     2.11           OBSERVATION DATA    G (GPS)             RINEX VERSION / TYPE
teqc 2010Oct21 OPUS Account 20111027 18:31:19UTC            PGM / RUN BY / DATE
Q 1522                                                      MARKER NAME
1170                                                        MARKER NUMBER
CSMIDDLETON NGS                                             OBSERVER / AGENCY
4624K01634 TRIMBLE NETR5 NP 70.55 / SP 451.54               REC # / TYPE / VERS
12668881 TRM41249.00 NONE                                   ANT # / TYPE
  -738054.2754 -5496299.3400  3140267.8893                  APPROX POSITION XYZ
        2.0000        0.0000        0.0000                  ANTENNA: DELTA H/E/N
     1     1                                                WAVELENGTH FACT L1/2
     5    L1    L2    C1    P1    P2                        # / TYPES OF OBSERV
    30.0000                                                 INTERVAL
  2011     8    18     0     0    0.0000000     GPS         TIME OF FIRST OBS
                                                            END OF HEADER
 11  8 18  0  0  0.0000000  0  7G10G12G17G09G05G04G02
 -18369829.01048 -14199193.07246  21116430.4064                   21116431.6134
 -13686294.446 7 -10649406.640 7  22144995.875
 -11406082.897 7  -8843161.345 6  22605748.750
  -7008667.84447  -5084499.08944  22924821.7814                   22924823.1454
  -7677235.855 7  -5964637.534 7  23158084.828
 -20232833.30348 -15716714.84646  20851100.5314                   20851101.5004
 -21878132.40148 -17000705.41446  20718321.0164                   20718319.0664
 11  8 18  0  0 30.0000000  0  7G10G12G17G09G05G04G02
 -18407620.23348 -14228640.74046  21109238.8674                   21109239.6134
 -13765307.526 8 -10710975.243 7  22129960.188
 -11359536.771 7  -8806891.659 7  22614606.172
  -6942943.44447  -5033285.28944  22937327.5394                   22937329.8754
  -7780843.406 7  -6045370.578 7  23138368.789
 -20169016.21848 -15666987.25746  20863244.1094                   20863244.9884
 -21899203.52548 -17017124.44646  20714311.2974                   20714309.0634
 11  8 18  0  1  0.0000000  0  7G10G12G17G09G05G04G02
 -18444846.02248 -14257647.82246  21102154.7734                   21102156.1414
 -13844021.365 8 -10772310.660 7  22114981.336
 -11312862.529 7  -8770522.156 6  22623488.359
  -6876867.31947  -4981797.45544  22949900.9924                   22949904.3714
  -7884326.607 7  -6126006.714 6  23118677.023
 -20104921.82248 -15617043.58346  20875441.1954                   20875441.9224
 -21919927.08048 -17033272.65446  20710367.8054                   20710365.9104
 11  8 18  0  1 30.0000000  0  7G10G12G17G09G05G04G02
 -18481505.17848 -14286213.36746  21095178.5314                   21095179.9184
 -13922434.152 8 -10833411.518 7  22100060.078
 -11266060.448 7  -8734053.012 7  22632394.273
  -6810443.24447  -4930038.47844  22962541.8444                   22962544.0084
  -7987683.099 7  -6206544.115 6  23099009.039
 -20040552.93548 -15566886.01846  20887690.3054                   20887690.9804
 -21940304.36548 -17049151.03146  20706489.8754                   20706487.9064
 11  8 18  0  2  0.0000000  0  7G10G12G17G09G05G04G02
 -18517595.16048 -14314335.39546  21088311.5554                   21088312.2034
 -14000542.820 8 -10894275.401 7  22085196.125
 -11219129.614 7  -8697483.568 7  22641324.750
  -6743674.05147  -4878010.60344  22975247.4304                   22975249.8244
  -8090909.398 7  -6286980.054 6  23079365.469
 -19975911.28248 -15516515.91946  20899990.9924                   20899991.5394
 -21960335.48948 -17064759.68346  20702678.1094                   20702676.1844
 11  8 18  0  2 30.0000000  0  7G10G12G17G09G05G04G02
 -18553113.94748 -14342012.33346  21081551.8914                   21081553.4264
 -14078344.458 8 -10954900.024 7  22070391.102
 -11172068.916 7  -8660812.931 7  22650280.414
  -6676562.95447  -4825716.28144  22988018.0474                   22988021.2704
  -8194002.554 7  -6367312.257 7  23059747.211
 -19910999.19948 -15465935.07346  20912343.1484                   20912344.3834
 -21980021.14748 -17080099.13146  20698931.8524                   20698930.1254
 11  8 18  0  3  0.0000000  0  7G10G12G17G09G05G04G02
 -18588061.33548 -14369244.03246  21074901.6644                   21074902.7894
 -14155838.121 8 -11015284.682 7  22055644.719
 -11124879.491 7  -8624041.973 7  22659260.070
  -6609114.48047  -4773159.02744  23000853.7034                   23000855.4184
  -8296961.187 7  -6447539.652 6  23040154.461
 -19845820.56448 -15415146.54246  20924746.4304                   20924747.5204
 -21999363.51248 -17095171.08846  20695251.3834                   20695249.5514
 11  8 18  0  3 30.0000000  0  7G10G12G17G09G05G04G02
 -18622434.02348 -14396027.91246  21068360.8444                   21068361.8754
 -14233019.947 8 -11075426.325 7  22040957.359
 -11077559.320 7  -8587169.154 7  22668264.914
  -6541330.84346  -4720340.66744  23013752.3834                   23013755.2304
  -8399780.567 7  -6527658.526 6  23020588.641
 -19780376.31548 -15364151.03846  20937200.3054                   20937200.8484
 -22018361.72648 -17109974.86646  20691636.1484                   20691634.1954
 11  8 18  0  4  0.0000000  0  7G10G12G17G09G05G04G02
 -18656229.83548 -14422362.27646  21061929.5474                   21061930.9494
 -14309887.038 8 -11135322.727 7  22026329.797
 -11030107.769 7  -8550193.945 7  22677294.523
  -6473214.96647  -4667263.42544  23026714.4144                   23026717.1844
  -8502457.712 7  -6607666.572 6  23001049.836
 -19714668.41548 -15312950.09246  20949703.5164                   20949705.0204
 -22037016.44848 -17124511.00346  20688086.3674                   20688084.2234
 11  8 18  0  4 30.0000000  0  7G10G12G17G09G05G04G02
 -18689448.29347 -14448246.74746  21055608.5004                   21055609.4964
 -14386438.039 8 -11194972.832 7  22011762.500
 -10982525.426 7  -8513116.818 7  22686349.242
  -6404771.38347  -4613930.78244  23039738.5314                   23039741.2384
  -8604990.895 7  -6687562.411 7  22981538.719
 -19648700.41248 -15261546.46446  20962257.2504                   20962258.1454
 -22055329.63348 -17138780.99546  20684601.3674                   20684599.3984
 11  8 18  0  5  0.0000000  0  7G10G12G17G09G05G04G02
 -18722086.76548 -14473679.29346  21049397.8204                   21049398.7424
 -14462669.091 7 -11254373.627 7  21997256.320
 -10934810.660 7  -8475936.534 7  22695429.070
  -6336002.28547  -4560344.49344  23052824.6174                   23052828.4614
  -8707375.890 7  -6767342.799 7  22962054.516
 -19582473.43248 -15209941.03446  20974860.0004                   20974860.5434
 -22073300.78948 -17152784.47646  20681181.4614                   20681179.2034
 11  8 18  0  5 30.0000000  0  7G10G12G17G09G05G04G02
 -18754144.35648 -14498659.20046  21043297.3674                   21043297.9804
 -14538578.623 8 -11313523.886 7  21982811.273
 -10886963.610 7  -8438653.146 7  22704534.047
  -6266911.95347  -4506507.92244  23065973.0704                   23065974.8954
  -8809610.214 7  -6847005.802 7  22942600.695
 -19515990.80448 -15158136.39746  20987510.9844                   20987511.7814
 -22090931.26248 -17166522.49146  20677826.4304                   20677824.5234
 11  8 18  0  6  0.0000000  0  8G10G30G12G17G09G05G04G02
 -18785619.06348 -14523184.92146  21037307.9304                   21037308.5084
     -3337.81246     41351.84043  24365787.2664                   24365786.0554
 -14614164.005 8 -11372421.555 7  21968428.008
 -10838983.591 7  -8401266.135 7  22713664.031
  -6197503.69447  -4452423.58844  23079180.2194                   23079183.3554
  -8911691.538 7  -6926549.581 7  22923175.016
 -19449254.69148 -15106134.23846  21000210.2664                   21000210.7664
 -22108221.87748 -17179995.68546  20674536.2274                   20674534.1454
 11  8 18  0  6 30.0000000  0  8G10G30G12G17G09G05G04G02
 -18816510.22548 -14547255.92846  21031429.4694                   21031430.3134
   -109354.78846    -41258.78942  24345611.3054                   24345610.9414
 -14689423.737 7 -11431065.469 7  21954106.039
 -10790871.315 7  -8363776.083 7  22722820.039
  -6127781.85347  -4398094.92044  23092447.6954                   23092450.7814
  -9013617.810 7  -7005972.518 7  22903778.781
 -19382268.30948 -15053937.07046  21012957.7584                   21012958.4804
 -22125174.40348 -17193205.42946  20671310.2344                   20671308.6524
 11  8 18  0  7  0.0000000  0  8G10G30G12G17G09G05G04G02
 -18846813.20048 -14570868.60446  21025663.1024                   21025663.9694
   -215206.67746   -123740.71242  24325468.6094                   24325468.9104
 -14764351.923 8 -11489451.068 7  21939848.109
 -10742623.029 7  -8326180.055 7  22732001.602
  -6057746.48747  -4343521.95744  23105775.6094                   23105778.2504
  -9115382.516 7  -7085269.579 7  22884413.398
 -19315030.75448 -15001544.18246  21025751.9304                   21025753.4024
 -22141786.38648 -17206149.80446  20668149.0164                   20668147.3594
 11  8 18  0  7 30.0000000  0  8G10G30G12G17G09G05G04G02
 -18876528.27148 -14594023.18046  21020008.2734                   21020008.9924
   -320892.86946   -206093.56842  24305356.6484                   24305357.5634
 -14838948.224 8 -11547578.030 7  21925652.984
 -10694240.038 7  -8288479.062 6  22741208.805
  -5987402.99647  -4288708.88544  23119160.9304                   23119164.1374
  -9216984.938 7  -7164440.190 7  22865079.078
 -19247546.57448 -14948959.12646  21038594.1254                   21038595.4884
 -22158060.70548 -17218831.06546  20665052.3914                   20665050.3404
 11  8 18  0  8  0.0000000  0  8G10G30G12G17G09G05G04G02
 -18905653.55948 -14616718.19346  21014466.1724                   21014467.0474
   -426410.42346   -288315.03042  24285277.8674                   24285278.0354
 -14913209.795 7 -11605444.162 7  21911520.992
 -10645721.323 7  -8250672.295 7  22750440.875
  -5916754.37547  -4233658.04244  23132605.1484                   23132607.5204
  -9318421.918 7  -7243481.885 7  22845776.445
 -19179817.70948 -14896183.38546  21051482.4454                   21051483.5354
 -22173997.98848 -17231249.70846  20662019.2974                   20662017.3714
 11  8 18  0  8 30.0000000  0  8G10G30G12G17G09G05G04G02
 -18934187.75248 -14638952.58946  21009035.8914                   21009037.0204
   -531756.83446   -370403.14143  24265230.7814                   24265231.5044
 -14987134.322 7 -11663047.647 7  21897453.641
 -10597067.120 7  -8212759.966 6  22759699.586
  -5845804.42147  -4178372.37344  23146105.9454                   23146109.6884
  -9419690.528 7  -7322392.385 7  22826505.391
 -19111846.75448 -14843219.00146  21064417.2194                   21064417.7854
 -22189599.05148 -17243406.37746  20659050.7734                   20659048.7734
 11  8 18  0  9  0.0000000  0  8G10G30G12G17G09G05G04G02
 -18962129.59048 -14660725.42646  21003718.7344                   21003719.5824
   -636929.37546   -452355.70643  24245217.3054                   24245219.4774
 -15060719.080 8 -11720386.406 7  21883451.188
 -10548276.625 7  -8174741.433 7  22768984.633
  -5774556.49246  -4122854.55144  23159664.6484                   23159667.9494
  -9520788.014 7  -7401169.534 7  22807267.219
 -19043635.76848 -14790067.59846  21077397.4774                   21077398.3284
 -22204864.94048 -17255301.85046  20656145.5474                   20656144.0204
 11  8 18  0  9 30.0000000  0  8G10G30G12G17G09G05G04G02
 -18989476.61048 -14682034.76646  20998515.2584                   20998515.5664
   -741924.52546   -534170.05543  24225236.2344                   24225239.3364
 -15133961.054 7 -11777458.054 7  21869513.516
 -10499348.590 7  -8136615.718 6  22778295.195
  -5703013.42847  -4067106.74344  23173278.9924                   23173281.8244
  -9621710.668 7  -7479810.462 7  22788062.602
 -18975186.57848 -14736730.58146  21090422.8524                   21090424.0164
 -22219795.72848 -17266936.21246  20653304.2504                   20653302.1844
 11  8 18  0 10  0.0000000  0  8G10G30G12G17G09G05G04G02
 -19016228.68748 -14702880.51546  20993424.1724                   20993424.8164
   -846740.82946   -615845.11443  24205291.0394                   24205294.4494
 -15206858.915 7 -11834261.571 7  21855641.469
 -10450283.417 7  -8098383.148 6  22787631.805
  -5631179.74247  -4011132.46744  23186948.7034                   23186950.8054
  -9722456.612 7  -7558313.716 7  22768890.766
 -18906502.80648 -14683210.77146  21103492.9774                   21103493.6024
 -22234393.20148 -17278310.85446  20650526.7344                   20650524.6914
 11  8 18  0 10 30.0000000  0  8G10G30G12G17G09G05G04G02
 -19042383.02848 -14723260.49346  20988446.7974                   20988447.8444
   -951374.39146   -697377.72343  24185380.1804                   24185383.3674
 -15279408.893 7 -11890794.005 7  21841835.773
 -10401080.026 7  -8060042.870 6  22796994.563
  -5559057.55547  -3954933.39844  23200672.8754                   23200676.0234
  -9823021.454 7  -7636675.838 7  22749754.297
 -18837585.11848 -14629508.68446  21116607.7734                   21116608.6024
 -22248657.30548 -17289425.72646  20647812.2194                   20647810.3834
 11  8 18  0 11  0.0000000  0  8G10G30G12G17G09G05G04G02
 -19067939.31048 -14743174.46546  20983584.0784                   20983584.5944
  -1055823.32146   -778766.47743  24165503.8364                   24165507.9144
 -15351609.403 7 -11947054.126 7  21828096.156
 -10351738.150 7  -8021594.683 6  22806384.875
  -5486651.51247  -3898513.14944  23214451.8284                   23214453.6414
  -9923403.658 7  -7714895.621 6  22730651.633
 -18768437.28948 -14575627.27646  21129765.6644                   21129766.8594
 -22262589.54748 -17300282.00146  20645160.7344                   20645158.8674
 11  8 18  0 11 30.0000000  0  8G10G30G12G17G09G05G04G02
 -19092895.58248 -14762620.89146  20978834.5864                   20978835.2384
  -1160084.30647   -860008.72044  24145664.7034                   24145668.1914
 -15423457.088 7 -12003039.321 7  21814424.297
 -10302256.699 7  -7983037.773 7  22815800.328
  -5413964.47547  -3841873.96844  23228283.1564                   23228286.0664
 -10023599.613 7  -7792970.320 7  22711584.945
 -18699060.63548 -14521567.55146  21142967.7034                   21142968.8524
 -22276190.25848 -17310879.95546  20642572.8284                   20642570.7624
 11  8 18  0 12  0.0000000  0  8G10G30G12G17G09G05G04G02
 -19117250.25748 -14781598.53646  20974199.9454                   20974200.7894
  -1264154.41346   -941102.25844  24125860.6024                   24125863.6134
 -15494949.704 7 -12058747.845 7  21800819.484
 -10252635.147 7  -7944371.656 7  22825243.484
  -5340999.36247  -3785018.06344  23242167.7584                   23242169.8204
 -10123606.082 7  -7870897.355 7  22692554.227
 -18629457.18148 -14467331.09946  21156212.7274                   21156213.4804
 -22289460.16448 -17321220.12246  20640047.4534                   20640045.5944
 11  8 18  0 12 30.0000000  0  8G10G30G12G17G09G05G04G02
 -19141001.99448 -14800106.37646  20969680.7274                   20969681.4224
  -1368031.09046  -1022045.09443  24106093.4844                   24106096.2814
 -15566084.708 8 -12114177.695 7  21787282.891
 -10202873.473 7  -7905596.367 7  22834712.625
  -5267759.64247  -3727948.21244  23256105.3284                   23256107.4734
 -10223420.068 7  -7948674.395 7  22673560.547
 -18559629.43148 -14412919.87246  21169500.8364                   21169501.7234
 -22302400.23148 -17331303.28746  20637585.2814                   20637583.6214
 11  8 18  0 13  0.0000000  0  9G10G30G12G17G09G05G04G25G02
 -19164149.43048 -14818143.31746  20965275.6804                   20965276.1484
  -1471711.23846  -1102834.77043  24086363.0784                   24086366.7194
 -15636859.318 8 -12169326.714 7  21773814.969
 -10152970.581 7  -7866711.055 7  22844208.758
  -5194248.76247  -3670667.06144  23270093.6414                   23270096.4534
 -10323038.447 7  -8026299.026 7  22654603.766
 -18489579.34348 -14358335.39846  21182830.6884                   21182831.3204
     12440.982 6     23350.101 6  24660210.008
 -22315011.17648 -17341129.98746  20635185.3204                   20635183.3874
 11  8 18  0 13 30.0000000  0  9G10G30G12G17G09G05G04G25G02
 -19186696.49348 -14835712.43846  20960985.0234                   20960986.0594
  -1575197.24846  -1183473.17343  24066670.6414                   24066674.0784
 -15707276.083 8 -12224196.889 7  21760415.094
 -10102930.830 7  -7827719.084 7  22853731.164
  -5120475.05247  -3613181.15044  23284132.3754                   23284135.5744
 -10422463.675 7  -8103773.134 7  22635683.477
 -18419314.27648 -14303583.41046  21196201.6724                   21196202.8984
    -90925.605 6    -57195.281 6  24640540.258
 -22327298.75348 -17350704.71846  20632846.9304                   20632845.1954
 11  8 18  0 14  0.0000000  0  9G10G30G12G17G09G05G04G25G02
 -19208632.19248 -14852805.17346  20956810.8984                   20956811.9774
  -1678476.74746  -1263950.61544  24047017.4144                   24047020.4694
 -15777323.020 8 -12278778.892 7  21747085.516
 -10052744.027 7  -7788612.535 6  22863281.070
  -5046432.49846  -3555485.71544  23298222.4694                   23298225.4184
 -10521682.907 7  -8181086.747 7  22616802.508
 -18348827.13948 -14248658.37446  21209614.9144                   21209616.1054
   -194181.653 6   -137654.495 6  24620891.516
 -22339254.24348 -17360020.67246  20630571.9694                   20630570.2304
 11  8 18  0 14 30.0000000  0  9G10G30G12G17G09G05G04G25G02
 -19229959.86547 -14869424.12446  20952752.0634                   20952752.8284
  -1781551.60346  -1344268.58643  24027402.4384                   24027405.8954
 -15847002.274 8 -12333074.372 7  21733826.031
 -10002414.954 7  -7749395.125 6  22872858.477
  -4972129.19447  -3497587.11244  23312361.5004                   23312364.4774
 -10620698.094 7  -8258241.333 7  22597961.016
 -18278124.71048 -14193565.57746  21223068.9614                   21223070.2814
   -297329.490 6   -218029.428 5  24601262.617
 -22350883.51148 -17369082.42546  20628359.3914                   20628357.1764
 11  8 18  0 15  0.0000000  0  9G10G30G12G17G09G05G04G25G02
 -19250678.13848 -14885568.21846  20948809.6174                   20948810.3444
  -1884418.67946  -1424424.65943  24007827.3674                   24007830.3244
 -15916310.714 7 -12387080.917 7  21720637.234
  -9951942.259 7  -7710065.783 6  22882462.922
  -4897568.21347  -3439487.73244  23326550.7424                   23326552.8984
 -10719505.532 7  -8335234.052 7  22579158.156
 -18207208.82848 -14138306.45946  21236563.7034                   21236564.6724
   -400366.199 6   -298317.770 6  24581655.063
 -22362186.98548 -17377890.31946  20626207.8594                   20626206.6214
 11  8 18  0 15 30.0000000  0  9G10G30G12G17G09G05G04G25G02
 -19270786.07748 -14901236.72446  20944983.1254                   20944983.5904
  -1987075.61346  -1504417.02243  23988292.8054                   23988294.8524
 -15985246.616 8 -12440797.154 7  21707519.266
  -9901325.907 7  -7670624.507 6  22892094.953
  -4822753.34047  -3381190.52144  23340787.3364                   23340790.4144
 -10818102.733 7  -8412062.966 7  22560395.281
 -18136081.93848 -14082882.91246  21250099.2664                   21250099.5704
   -503289.844 6   -378517.961 6  24562069.625
 -22373165.82948 -17386445.25546  20624118.8054                   20624116.8014
 11  8 18  0 16  0.0000000  0  9G10G30G12G17G09G05G04G25G02
 -19290283.62548 -14916429.59946  20941272.7894                   20941273.4654
  -2089520.62646  -1584244.25643  23968798.0554                   23968799.1374
 -16053808.613 8 -12494222.044 7  21694472.031
  -9850566.095 7  -7631071.467 6  22901754.852
  -4747689.11747  -3322698.97944  23355071.8204                   23355073.8794
 -10916487.943 7  -8488726.659 7  22541673.289
 -18064747.42248 -14027297.58346  21263673.2194                   21263674.2234
   -606098.878 6   -458628.883 6  24542505.211
 -22383822.12948 -17394748.85946  20622091.2114                   20622089.2114
 11  8 18  0 16 30.0000000  0  9G10G30G12G17G09G05G04G25G02
 -19309167.12948 -14931143.99546  20937679.5164                   20937680.1294
  -2191748.42146  -1663902.15143  23949344.3134                   23949345.8634
 -16121991.264 8 -12547351.350 7  21681497.359
  -9799659.921 7  -7591404.345 6  22911441.500
  -4672376.38046  -3264013.81944  23369403.9924                   23369406.0354
 -11014655.443 7  -8565220.733 7  22522993.734
 -17993205.14948 -13971550.36245  21277287.5474                   21277288.4734
   -708788.387 6   -538646.598 6  24522963.211
 -22394154.25648 -17402799.86346  20620124.8984                   20620122.9884
 11  8 18  0 17  0.0000000  0  9G10G30G12G17G09G05G04G25G02
 -19327438.14948 -14945381.12446  20934202.5634                   20934203.3594
  -2293758.80146  -1743390.71843  23929932.1564                   23929933.7774
 -16189795.101 8 -12600185.464 7  21668594.680
  -9748609.331 7  -7551624.751 6  22921156.414
  -4596821.09547  -3205139.60444  23383781.5234                   23383783.6094
 -11112605.283 7  -8641545.205 7  22504353.164
 -17921459.89448 -13915644.98246  21290939.7274                   21290941.1994
   -811358.483 6   -618571.321 5  24503445.734
 -22404165.81248 -17410601.06646  20618219.8914                   20618218.1054
 11  8 18  0 17 30.0000000  0  9G10G30G12G17G09G05G04G25G02
 -19345094.09848 -14959138.98946  20930843.2114                   20930843.8714
  -2395547.52246  -1822706.56343  23910562.1954                   23910563.7154
 -16257216.237 7 -12652721.368 7  21655764.844
  -9697412.670 7  -7511731.266 6  22930898.547
  -4521025.26247  -3146077.97644  23398205.2274                   23398208.1804
 -11210332.928 7  -8717696.528 7  22485756.391
 -17849512.09648 -13859581.78246  21304631.3594                   21304632.6884
   -913805.258 6   -698399.909 6  24483950.805
 -22413856.05848 -17418151.90246  20616375.6094                   20616374.0394
 11  8 18  0 18  0.0000000  0  9G10G30G12G17G09G05G04G25G02
 -19362134.11848 -14972416.91446  20927599.9614                   20927601.1954
  -2497112.18546  -1901847.76243  23891235.1644                   23891236.2774
 -16324251.898 8 -12704956.911 7  21643008.164
  -9646069.145 7  -7471723.365 6  22940668.961
  -4444992.74347  -3086831.88144  23412673.4774                   23412676.1024
 -11307835.570 7  -8793672.539 7  22467201.773
 -17777364.39148 -13803362.81246  21318360.6254                   21318361.8284
  -1016126.421 6   -778130.626 6  24464479.063
 -22423226.32748 -17425453.40746  20614593.0474                   20614590.8754
 11  8 18  0 18 30.0000000  0  9G10G30G12G17G09G05G04G25G02
 -19378557.04248 -14985213.97746  20924475.2974                   20924475.4774
  -2598449.37146  -1980811.75643  23871951.4924                   23871952.3284
 -16390900.014 7 -12756890.487 7  21630325.539
  -9594578.537 7  -7431600.847 6  22950467.117
  -4368726.39947  -3027403.59744  23427185.6954                   23427188.6334
 -11405109.809 7  -8869470.559 7  22448691.578
 -17705018.72448 -13746989.58645  21332127.5554                   21332128.7774
  -1118319.012 6   -857761.179 6  24445032.219
 -22432277.13548 -17432505.98046  20612870.3594                   20612868.7304
 11  8 18  0 19  0.0000000  0  9G10G30G12G17G09G05G04G25G02
 -19394362.36248 -14997529.78746  20921467.2584                   20921468.2854
  -2699556.93646  -2059596.81543  23852710.7664                   23852712.1954
 -16457158.202 8 -12808520.215 7  21617717.313
  -9542940.639 7  -7391363.586 6  22960294.516
  -4292230.11347  -2967796.12044  23441743.5944                   23441746.1564
 -11502152.992 7  -8945088.586 7  22430223.961
 -17632477.57148 -13690464.03345  21345931.8364                   21345932.5394
  -1220381.193 6   -937290.087 6  24425610.000
 -22441010.00848 -17439310.81446  20611208.6564                   20611206.8484
 11  8 18  0 19 30.0000000  0  9G10G30G12G17G09G05G04G25G02
 -19409548.57548 -15009363.17446  20918577.6094                   20918578.0164
  -2800431.57246  -2138200.38643  23833515.5634                   23833516.0434
 -16523023.711 7 -12859843.971 7  21605183.695
  -9491154.170 7  -7351010.542 6  22970148.523
  -4215507.14347  -2908012.03344  23456343.4144                   23456346.5124
 -11598962.406 7  -9020524.408 7  22411802.570
 -17559742.86548 -13633787.66645  21359772.6024                   21359773.2504
  -1322310.089 6  -1016715.102 6  24406213.734
 -22449425.56648 -17445868.38746  20609607.1024                   20609605.3014
 11  8 18  0 20  0.0000000  0  9G10G30G12G17G09G05G04G25G02
 -19424115.30248 -15020713.84846  20915805.4144                   20915806.6024
  -2901070.73146  -2216620.47843  23814365.0084                   23814365.5164
 -16588494.413 8 -12910860.087 7  21592724.547
  -9439218.713 7  -7310541.418 6  22980032.438
  -4138561.14747  -2848054.13344  23470985.2424                   23470988.1994
 -11695535.004 7  -9095775.707 7  22393425.453
 -17486816.85048 -13576962.22445  21373650.3444                   21373650.8954
  -1424103.295 6  -1096034.434 6  24386843.375
 -22457524.63848 -17452179.34246  20608066.0554                   20608063.9454
 11  8 18  0 20 30.0000000  0  9G10G30G12G17G09G05G04G25G02
 -19438061.52648 -15031581.01846  20913151.4774                   20913152.3164
  -3001471.95046  -2294855.11743  23795258.3914                   23795260.4924
 -16653568.070 7 -12961566.819 7  21580341.273
  -9387134.676 7  -7269956.516 6  22989943.281
  -4061395.74747  -2787925.31044  23485669.8204                   23485672.5004
 -11791868.019 7  -9170840.337 7  22375093.523
 -17413702.06248 -13519989.70145  21387563.2424                   21387564.2234
  -1525758.662 6  -1175246.314 6  24367499.422
 -22465308.47148 -17458244.65846  20606584.7974                   20606583.3134
 11  8 18  0 21  0.0000000  0  9G10G30G12G17G09G05G04G25G02
 -19451386.26448 -15041963.91246  20910615.5944                   20910616.3794
  -3101631.86046  -2372901.82243  23776199.4844                   23776200.3404
 -16718241.980 8 -13011962.049 7  21568034.477
  -9334900.812 7  -7229254.849 6  22999882.414
  -3984014.00647  -2727627.88744  23500394.3594                   23500397.2894
 -11887958.318 7  -9245715.822 7  22356808.219
 -17340400.24248 -13462871.41945  21401512.1024                   21401513.2344
  -1627273.213 6  -1254348.464 6  24348181.547
 -22472778.25948 -17464065.27146  20605163.2034                   20605161.6294
 11  8 18  0 21 30.0000000  0  9G10G30G12G17G09G05G04G25G02
 -19464089.28448 -15051862.35046  20908198.6414                   20908199.0904
  -3201548.07046  -2450758.59743  23757185.5944                   23757188.0394
 -16782514.152 7 -13062044.234 7  21555803.938
  -9282516.971 7  -7188436.310 6  23009851.016
  -3906419.93247  -2667165.01944  23515160.7814                   23515163.1764
 -11983802.990 7  -9320399.929 7  22338569.242
 -17266914.04148 -13405609.46945  21415496.0864                   21415497.0314
  -1728644.951 6  -1333339.338 6  24328890.203
 -22479934.94548 -17469641.90446  20603801.0634                   20603799.3874
 11  8 18  0 22  0.0000000  0  9G10G30G12G17G09G05G04G25G02
 -19476168.45148 -15061274.67246  20905900.2194                   20905900.5664
  -3301217.02846  -2528422.70243  23738220.0004                   23738221.6684
 -16846381.238 8 -13111810.781 7  21543650.422
  -9229981.942 7  -7147499.977 7  23019848.664
  -3828616.24447  -2606538.81444  23529965.7974                   23529969.0514
 -12079398.730 7  -9394890.024 7  22320377.727
 -17193244.70348 -13348204.83045  21429515.1414                   21429516.3594
  -1829870.388 6  -1412216.243 6  24309628.055
 -22486778.60248 -17474974.61546  20602499.0004                   20602497.0634
 11  8 18  0 22 30.0000000  0  9G10G30G12G17G09G05G04G25G02
 -19487623.58648 -15070200.71846  20903720.1484                   20903721.2034
  -3400636.34646  -2605892.28443  23719300.7114                   23719302.5084
 -16909841.319 8 -13161260.188 7  21531574.227
  -9177295.532 7  -7106445.693 7  23029874.977
  -3750606.59446  -2545752.13044  23544810.5474                   23544813.5634
 -12174742.995 7  -9469184.187 7  22302234.656
 -17119395.02248 -13290659.67245  21443568.3284                   21443569.5474
  -1930947.639 6  -1490977.692 6  24290393.883
 -22493310.94148 -17480064.74346  20601256.0554                   20601253.9774
 11  8 18  0 23  0.0000000  0  9G10G30G12G17G09G05G04G25G02
 -19498454.38148 -15078640.28146  20901659.3204                   20901659.8594
  -3499803.56546  -2683165.43743  23700429.9144                   23700431.4224
 -16972892.416 8 -13210390.898 7  21519576.055
  -9124457.653 7  -7065273.352 7  23039928.781
  -3672394.67546  -2484807.87544  23559694.4694                   23559697.3714
 -12269833.060 7  -9543280.264 7  22284139.133
 -17045367.05948 -13232975.57945  21457655.3364                   21457656.2734
  -2031874.385 7  -1569621.848 6  24271188.078
 -22499533.28748 -17484913.31246  20600071.9924                   20600070.0784
 11  8 18  0 23 30.0000000  0  9G10G30G12G17G09G05G04G25G02
 -19508659.55048 -15086592.33446  20899716.9304                   20899717.7704
  -3598715.09546  -2760239.34243  23681607.1484                   23681609.2194
 -17035531.228 8 -13259200.364 7  21507656.727
  -9071466.969 7  -7023981.961 7  23050012.852
  -3593983.43246  -2423708.27443  23574615.4304                   23574617.4844
 -12364665.319 7  -9617175.464 7  22266093.523
 -16971162.48748 -13175153.86245  21471776.1724                   21471776.7114
  -2132647.259 7  -1648146.150 6  24252011.664
 -22505445.87448 -17489520.51446  20598946.6024                   20598944.8364
 11  8 18  0 24  0.0000000  0  9G10G30G12G17G09G05G04G25G02
 -19518238.72648 -15094056.59846  20897894.1174                   20897895.4924
  -3697368.33146  -2837111.90243  23662833.5784                   23662835.9144
 -17097755.674 7 -13307686.916 7  21495815.008
  -9018323.254 7  -6982571.326 7  23060125.805
  -3515376.25446  -2362455.99644  23589573.7974                   23589576.5164
 -12459237.020 7  -9690867.627 7  22248096.867
 -16896783.31548 -13117196.07745  21485929.9924                   21485930.7814
  -2233263.931 7  -1726548.727 6  24232865.523
 -22511049.79548 -17493887.18946  20597880.4064                   20597878.4414
 11  8 18  0 24 30.0000000  0  9G10G30G12G17G09G05G04G25G02
 -19527192.13648 -15101033.25546  20896190.5164                   20896191.1884
  -3795761.42946  -2913781.81644  23644110.4224                   23644112.4494
 -17159564.777 7 -13355849.845 7  21484053.586
  -8965027.012 6  -6941041.826 7  23070267.734
  -3436577.86247  -2301054.68744  23604569.0164                   23604570.5634
 -12553546.219 7  -9764355.241 7  22230150.797
 -16822232.92148 -13059104.89045  21500116.8674                   21500117.6724
  -2333722.939 6  -1804828.466 6  24213748.711
 -22516347.15548 -17498014.98046  20596872.0474                   20596870.5164
 11  8 18  0 25  0.0000000  0  9G10G30G12G17G09G05G04G25G02
 -19535517.15348 -15107520.26246  20894606.0084                   20894606.7544
  -3893889.67446  -2990245.30543  23625436.6414                   23625439.6294
 -17220954.000 8 -13403685.592 7  21472371.641
  -8911576.023 7  -6899391.759 7  23080438.563
  -3357589.84846  -2239505.66144  23619599.1884                   23619602.7734
 -12647588.161 7  -9837634.598 7  22212254.742
 -16747511.57348 -13000880.48645  21514335.5634                   21514336.4654
  -2434019.929 7  -1882981.928 6  24194662.867
 -22521337.13748 -17501903.26646  20595922.6174                   20595920.5274
 11  8 18  0 25 30.0000000  0  9G10G30G12G17G09G05G04G25G02
 -19543213.99048 -15113517.77346  20893141.6024                   20893142.0864
  -3991751.44346  -3066501.13943  23606814.5314                   23606817.0124
 -17281922.101 8 -13451193.184 7  21460769.727
  -8857970.664 7  -6857621.396 7  23090640.039
  -3278416.38046  -2177812.15243  23634666.0234                   23634668.6764
 -12741360.592 7  -9910703.951 7  22194410.805
 -16672622.45648 -12942525.35645  21528586.2974                   21528587.4184
  -2534153.299 6  -1961007.918 6  24175607.914
 -22526021.86948 -17505553.69946  20595031.2664                   20595029.5204
 11  8 18  0 26  0.0000000  0  9G10G30G12G17G09G05G04G25G02
 -19550281.58048 -15119024.95446  20891796.7504                   20891797.0004
  -4089343.05146  -3142546.46343  23588242.9384                   23588245.4694
 -17342465.956 8 -13498370.204 7  21449248.219
  -8804209.730 7  -6815729.812 7  23100870.758
  -3199060.36646  -2115976.36743  23649766.5784                   23649769.2624
 -12834860.586 7  -9983561.009 7  22176618.016
 -16597566.64448 -12884040.33245  21542869.2894                   21542870.7154
  -2634119.733 6  -2038903.786 6  24156584.852
 -22530401.43748 -17508966.33846  20594197.6094                   20594195.6254
 11  8 18  0 26 30.0000000  0  9G10G30G12G17G09G05G04G25G02
 -19556720.86448 -15124042.56146  20890571.3834                   20890571.6524
  -4186662.92646  -3218380.03243  23569723.6564                   23569725.8164
 -17402584.510 8 -13545215.799 7  21437808.109
  -8750293.888 7  -6773717.522 6  23111130.289
  -3119526.71047  -2054002.17544  23664901.7894                   23664905.1024
 -12928086.331 7 -10056204.372 7  22158877.992
 -16522347.75548 -12825428.23245  21557182.9454                   21557184.2814
  -2733917.864 6  -2116668.512 6  24137594.047
 -22534478.17048 -17512142.99046  20593421.5784                   20593420.2814
 11  8 18  0 27  0.0000000  0  9G10G30G12G17G09G05G04G25G02
 -19562529.89348 -15128569.05246  20889465.7424                   20889466.3554
  -4283706.89646  -3293998.63544  23551256.3984                   23551258.9494
 -17462274.108 8 -13591727.165 7  21426449.602
  -8696221.226 7  -6731583.037 6  23121420.438
  -3039817.21247  -1991890.90843  23680070.0474                   23680072.3794
 -13021033.527 7 -10128630.706 7  22141190.383
 -16446966.47648 -12766689.58145  21571527.7584                   21571528.9454
  -2833543.853 7  -2194299.078 6  24118635.703
 -22538251.88548 -17515083.53846  20592703.9224                   20592701.7154
 11  8 18  0 27 30.0000000  0  9G10G30G12G17G09G05G04G25G02
 -19567709.11248 -15132604.78846  20888480.3284                   20888480.8484
  -4380473.25346  -3369400.93544  23532843.1644                   23532844.4384
 -17521533.648 8 -13637903.382 7  21415172.750
  -8641992.585 7  -6689326.996 6  23131739.375
  -2959936.40347  -1929646.17444  23695271.3284                   23695273.6174
 -13113700.619 7 -10200838.750 7  22123556.375
 -16371425.83148 -12707826.75145  21585902.2894                   21585903.5234
  -2932996.130 7  -2271794.301 6  24099710.789
 -22541724.82248 -17517789.69846  20592042.8054                   20592040.9494
 11  8 18  0 28  0.0000000  0  9G10G30G12G17G09G05G04G25G02
 -19572257.91948 -15136149.29546  20887615.0164                   20887615.2934
  -4476959.01046  -3444584.57444  23514481.9844                   23514484.0634
 -17580360.533 8 -13683742.490 7  21403978.391
  -8587607.245 6  -6646948.866 6  23142088.891
  -2879887.53947  -1867270.50543  23710503.8134                   23710506.1564
 -13206084.101 7 -10272825.826 7  22105976.594
 -16295727.80948 -12648841.28445  21600306.7584                   21600308.2734
  -3032272.050 7  -2349152.139 6  24080818.891
 -22544897.88448 -17520262.20146  20591438.8524                   20591437.2814
 11  8 18  0 28 30.0000000  0  9G10G30G12G17G09G05G04G25G02
 -19576175.40747 -15139201.86946  20886869.4844                   20886869.3134
  -4573160.59546  -3519546.77844  23496175.7114                   23496177.2034
 -17638751.902 8 -13729242.233 7  21392866.961
  -8533064.080 6  -6604447.756 6  23152467.844
  -2799673.43047  -1804766.09744  23725768.2274                   23725770.2384
 -13298180.195 7 -10344588.953 7  22088450.820
 -16219873.67548 -12589734.19345  21614741.8984                   21614742.8984
  -3131368.215 7  -2426369.860 6  24061961.336
 -22547771.21447 -17522501.13546  20590892.1564                   20590890.5354
 11  8 18  0 29  0.0000000  0  9G10G30G12G17G09G05G04G25G02
 -19579461.51048 -15141762.44946  20886244.0234                   20886244.1644
  -4669075.58846  -3594285.67944  23477923.9064                   23477925.2974
 -17696705.860 8 -13774401.123 7  21381838.383
  -8478362.839 6  -6561823.456 6  23162877.094
  -2719297.96647  -1742135.93044  23741063.2734                   23741065.3054
 -13389986.884 7 -10416126.579 7  22070980.656
 -16143865.84948 -12530507.31645  21629205.3914                   21629206.7154
  -3230282.457 7  -2503445.831 6  24043138.602
 -22550346.33348 -17524507.70446  20590402.2274                   20590400.4104
 11  8 18  0 29 30.0000000  0  9G10G30G12G17G09G05G04G25G02
 -19582115.41748 -15143830.41446  20885738.7584                   20885739.2664
  -4764700.85246  -3668798.79643  23459726.9924                   23459728.5514
 -17754219.643 8 -13819217.024 7  21370894.180
  -8423502.970 6  -6519075.569 6  23173316.367
  -2638764.27747  -1679382.42044  23756388.2974                   23756390.8364
 -13481500.844 7 -10487436.101 7  22053566.133
 -16067706.16048 -12471162.10945  21643698.1174                   21643699.6884
  -3329011.878 7  -2580377.811 6  24024351.492
 -22552623.98148 -17526282.48746  20589968.7424                   20589967.0944
 11  8 18  0 30  0.0000000  0  9G10G30G12G17G09G05G04G25G02
 -19584137.25648 -15145405.85846  20885353.8524                   20885354.3874
  -4860033.79347  -3743084.15143  23441585.6644                   23441586.8134
 -17811291.275 8 -13863688.406 7  21360033.992
  -8368484.090 6  -6476203.774 6  23183786.539
  -2558075.90847  -1616508.43943  23771742.9064                   23771745.2504
 -13572719.515 7 -10558515.516 7  22036207.914
 -15991396.90548 -12411700.37045  21658219.8754                   21658220.2424
  -3427554.209 7  -2657163.947 6  24005598.719
 -22554605.46048 -17527826.48946  20589591.6644                   20589590.0274
 11  8 18  0 30 30.0000000  0  9G10G30G12G17G09G05G04G25G02
 -19585526.09248 -15146488.05146  20885089.5394                   20885090.0784
  -4955070.99147  -3817139.05743  23423501.0554                   23423500.7854
 -17867917.829 8 -13907812.968 7  21349257.477
  -8313305.156 7  -6433207.209 6  23194286.758
  -2477235.73047  -1553516.16644  23787125.9144                   23787128.9414
 -13663639.458 7 -10629362.171 7  22018906.109
 -15914939.35248 -12352123.05945  21672768.8204                   21672770.1414
  -3525906.120 7  -2733801.732 6  23986883.234
 -22556291.08248 -17529139.94446  20589270.7664                   20589269.2234
 11  8 18  0 31  0.0000000  0  9G10G30G12G17G09G05G04G25G02
 -19586282.40948 -15147077.37046  20884945.5704                   20884946.3794
  -5049810.35147  -3890961.91543  23405472.5554                   23405472.5824
 -17924098.404 8 -13951590.009 7  21338567.078
  -8257966.351 6  -6390086.106 6  23204817.055
  -2396247.89247  -1490408.83344  23802537.4694                   23802540.7544
 -13754258.451 7 -10699974.318 7  22001662.094
 -15838336.12448 -12292432.23245  21687345.7974                   21687347.4734
  -3624065.754 7  -2810289.686 6  23968203.727
 -22557683.06948 -17530224.58946  20589005.9774                   20589004.1334
 11  8 18  0 31 30.0000000  0  9G10G30G12G17G09G05G04G25G02
 -19586405.91548 -15147173.59346  20884922.1724                   20884922.7704
  -5144248.96046  -3964550.39343  23387501.0314                   23387502.0354
 -17979830.291 8 -13995017.432 7  21327961.852
  -8202467.191 7  -6346840.040 6  23215378.859
  -2315115.83847  -1427189.09344  23817976.7734                   23817979.7424
 -13844573.556 7 -10770349.673 7  21984475.297
 -15761589.39748 -12232629.61245  21701950.4454                   21701951.6414
  -3722030.371 7  -2886625.672 6  23949561.289
 -22558782.24148 -17531081.07546  20588797.0314                   20588794.8834
 11  8 18  0 32  0.0000000  0  9G10G30G12G17G09G05G04G25G02
 -19585895.64848 -15146775.97646  20885019.5554                   20885019.8244
  -5238383.51246  -4037901.91343  23369587.7734                   23369589.5864
 -18035111.004 8 -14038093.293 7  21317442.313
  -8146806.697 7  -6303468.266 6  23225970.570
  -2233842.19647  -1363859.06344  23833443.6334                   23833446.0514
 -13934581.534 7 -10840485.707 7  21967347.516
 -15684700.64148 -12172716.30445  21716581.5784                   21716583.3134
  -3819797.017 6  -2962807.417 6  23930956.875
 -22559589.14648 -17531709.82246  20588643.2664                   20588641.5354
 11  8 18  0 32 30.0000000  0  9G10G30G12G17G09G05G04G25G02
 -19584752.06248 -15145884.85946  20885236.8594                   20885237.8054
  -5332211.73846  -4111014.75543  23351732.5704                   23351734.6764
 -18089938.733 8 -14080816.182 7  21307008.867
  -8090985.017 7  -6259970.916 6  23236592.602
  -2152430.96746  -1300421.80444  23848934.0554                   23848938.2504
 -14024279.978 7 -10910380.535 7  21950278.430
 -15607672.25748 -12112694.19045  21731239.8444                   21731241.0354
  -3917363.512 7  -3038833.199 7  23912390.836
 -22560105.34648 -17532112.04746  20588545.0314                   20588543.4064
 11  8 18  0 33  0.0000000  0  9G10G30G12G17G09G05G04G25G02
 -19582975.25147 -15144500.32346  20885575.4774                   20885576.0234
  -5425730.93246  -4183886.74144  23333936.2034                   23333938.7854
 -18144311.376 8 -14123184.456 7  21296661.719
  -8035001.913 7  -6216347.751 6  23247245.750
  -2070885.91846  -1236880.31844  23864451.8134                   23864455.4844
 -14113666.087 7 -10980032.002 7  21933268.438
 -15530506.36448 -12052564.92845  21745924.1174                   21745925.3054
  -4014727.430 7  -3114701.131 7  23893863.117
 -22560332.18548 -17532288.79846  20588501.6094                   20588500.0514
 11  8 18  0 33 30.0000000  0  9G10G30G12G17G09G05G04G25G02
 -19580564.71348 -15142621.96346  20886033.4224                   20886034.0824
  -5518937.90146  -4256515.47944  23316199.4224                   23316201.3364
 -18198226.166 8 -14165195.965 7  21286402.125
  -7978856.164 7  -6172597.838 6  23257929.992
  -1989210.08046  -1173236.89644  23879993.7504                   23879998.1524
 -14202736.828 7 -11049437.716 7  21916318.766
 -15453204.70948 -11992329.88645  21760633.5164                   21760634.7774
  -4111885.696 7  -3190408.797 7  23875374.766
 -22560270.40948 -17532240.65246  20588513.6564                   20588512.0514
 11  8 18  0 34  0.0000000  0  9G10G30G12G17G09G05G04G25G02
 -19577520.39147 -15140249.76446  20886612.9694                   20886613.4804
  -5611829.78646  -4328898.71244  23298523.2344                   23298524.9574
 -18251681.363 8 -14206849.340 7  21276229.898
  -7922547.817 7  -6128721.262 6  23268645.742
  -1907406.81946  -1109494.17543  23895561.6094                   23895564.7974
 -14291489.478 7 -11118595.563 7  21899429.922
 -15375769.09848 -11931990.44745  21775369.3444                   21775370.7734
  -4208835.691 7  -3265954.207 6  23856925.813
 -22559921.14948 -17531968.48946  20588580.5314                   20588578.3914
 11  8 18  0 34 30.0000000  0  9G10G30G12G17G09G05G04G25G02
 -19573842.29547 -15137383.70046  20887312.9534                   20887313.1564
  -5704404.03446  -4401034.38344  23280906.6254                   23280908.7274
 -18304674.753 8 -14248142.877 7  21266145.953
  -7866076.148 7  -6084717.408 6  23279391.586
  -1825479.26946  -1045654.59443  23911151.6094                   23911155.0864
 -14379921.120 7 -11187503.294 7  21882602.086
 -15298201.59048 -11871548.25145  21790130.5164                   21790131.3244
  -4305574.878 7  -3341335.363 7  23838517.094
 -22559285.55948 -17531473.21446  20588701.4454                   20588699.5744
 11  8 18  0 35  0.0000000  0  9G10G30G12G17G09G05G04G25G02
 -19569530.25148 -15134023.66346  20888133.6414                   20888133.8754
  -5796657.41446  -4472920.06944  23263350.7344                   23263352.8674
 -18357203.845 8 -14289074.614 7  21256149.719
  -7809440.811 7  -6040586.017 6  23290169.422
  -1743430.76946   -981720.76243  23926764.8984                   23926768.1214
 -14468028.917 7 -11256158.648 7  21865835.664
 -15220503.90748 -11811004.61645  21804915.2974                   21804917.0824
  -4402100.377 7  -3416549.944 6  23820148.313
 -22558364.33548 -17530755.36146  20588876.6174                   20588874.5664
 11  8 18  0 35 30.0000000  0  9G10G30G12G17G09G05G04G25G02
 -19564583.98948 -15130169.43046  20889074.5164                   20889074.9654
  -5888586.96746  -4544553.40144  23245857.3444                   23245859.4104
 -18409266.607 8 -14329642.996 7  21246242.602
  -7752640.989 7  -5996326.479 6  23300977.445
  -1661264.82446   -917695.43943  23942400.7734                   23942404.2304
 -14555809.439 7 -11324559.005 7  21849131.406
 -15142677.76948 -11750360.89245  21819725.6024                   21819726.5084
  -4498409.420 7  -3491595.894 6  23801821.703
 -22557158.56848 -17529815.79546  20589105.7734                   20589103.8834
 11  8 18  0 36  0.0000000  0  9G10G30G12G17G09G05G04G25G02
 -19559003.96547 -15125821.35246  20890136.7114                   20890137.0124
  -5980190.33346  -4615932.57844  23228425.5004                   23228427.6684
 -18460861.108 8 -14369846.483 7  21236424.578
  -7695676.380 7  -5951938.498 6  23311817.586
  -1578984.98347   -853581.33343  23958058.4774                   23958060.7704
 -14643260.872 7 -11392702.913 7  21832490.094
 -15064725.59148 -11689618.93845  21834558.8754                   21834559.9654
  -4594499.729 7  -3566471.376 6  23783536.000
 -22555669.59748 -17528655.55746  20589389.0234                   20589387.1884
 11  8 18  0 36 30.0000000  0  9G10G30G12G17G09G05G04G25G02
 -19552789.71548 -15120979.07646  20891319.2734                   20891319.4494
  -6071464.15047  -4687054.98544  23211056.9924                   23211058.0234
 -18511984.549 8 -14409682.911 7  21226696.203
  -7638546.573 7  -5907421.821 6  23322689.750
  -1496594.16746   -789380.77343  23973737.0314                   23973739.4344
 -14730379.712 7 -11460587.674 7  21815911.516
 -14986648.66148 -11628779.78345  21849416.6024                   21849417.6724
  -4690368.058 7  -3641173.911 6  23765292.906
 -22553898.19448 -17527275.24446  20589726.2194                   20589724.2774
 11  8 18  0 37  0.0000000  0  9G10G30G12G17G09G05G04G25G02
 -19545941.97047 -15115643.15346  20892622.2194                   20892622.3164
  -6162406.44047  -4757919.05344  23193751.6254                   23193753.1294
 -18562635.935 8 -14449151.516 7  21217057.445
  -7581251.650 7  -5862776.468 6  23333592.648
  -1414096.43346   -725096.91643  23989435.5084                   23989438.3984
 -14817163.641 7 -11528211.462 7  21799397.453
 -14908449.58848 -11567845.46245  21864297.6414                   21864298.4144
  -4786012.649 7  -3715702.090 6  23747092.211
 -22551846.35448 -17525676.40146  20590116.7664                   20590115.1174
 11  8 18  0 37 30.0000000  0  9G10G30G12G17G09G05G04G25G02
 -19538460.51548 -15109813.45046  20894045.6254                   20894046.6094
  -6253013.77946  -4828522.14344  23176508.9064                   23176510.4774
 -18612812.706 8 -14488250.280 7  21207508.648
  -7523790.599 7  -5818001.706 6  23344526.664
  -1331494.55247   -660731.85343  24005153.7974                   24005157.3054
 -14903609.581 8 -11595571.881 7  21782947.023
 -14830129.86948 -11506817.12645  21879201.2734                   21879202.0984
  -4881430.242 7  -3790053.394 6  23728934.680
 -22549514.58748 -17523859.43646  20590560.1334                   20590558.7814
 11  8 18  0 38  0.0000000  0  9G10G30G12G17G09G05G04G25G02
 -19530347.48748 -15103491.61746  20895589.9454                   20895590.4884
  -6343285.61647  -4898863.80944  23159331.3134                   23159332.4304
 -18662514.958 8 -14526979.291 7  21198050.758
  -7466165.316 7  -5773098.924 6  23355492.375
  -1248794.20846   -596290.12043  24020892.4534                   24020894.7074
 -14989717.057 8 -11662668.570 7  21766561.703
 -14751693.40248 -11445697.82845  21894127.3284                   21894128.4924
  -4976620.409 7  -3864227.428 6  23710820.141
 -22546906.09648 -17521826.84546  20591057.0314                   20591055.0784
 11  8 18  0 38 30.0000000  0  9G10G30G12G17G09G05G04G25G02
 -19521598.75048 -15096674.41346  20897254.2274                   20897255.1454
  -6433214.81146  -4968938.51044  23142218.5784                   23142219.0044
 -18711736.260 8 -14565333.529 7  21188684.656
  -7408371.061 7  -5728064.491 6  23366490.734
  -1165994.31547   -531770.80143  24036647.4924                   24036650.9454
 -15075479.005 7 -11729496.023 7  21750241.445
 -14673137.90648 -11384485.76245  21909075.8834                   21909077.2074
  -5071576.184 7  -3938218.855 6  23692750.875
 -22544018.02547 -17519576.40946  20591606.3674                   20591604.4344
 11  8 18  0 39  0.0000000  0  9G10G30G12G17G09G05G04G25G02
 -19512216.39147 -15089363.48446  20899040.2114                   20899040.4144
  -6522800.63247  -5038745.62844  23125171.0394                   23125171.5744
 -18760476.357 8 -14603312.807 7  21179409.313
  -7350409.148 6  -5682899.429 6  23377520.586
  -1083100.30547   -467178.16144  24052422.5864                   24052425.6524
 -15160894.151 8 -11796053.216 7  21733987.563
 -14594467.11248 -11323183.87045  21924046.3134                   21924047.8524
  -5166296.959 7  -4012027.202 6  23674725.813
 -22540852.95948 -17517110.12546  20592208.4534                   20592206.5354
 11  8 18  0 39 30.0000000  0  9G10G30G12G17G09G05G04G25G02
 -19502201.56247 -15081559.72346  20900945.5784                   20900946.3554
  -6612040.71447  -5108283.39044  23108188.7584                   23108188.9454
 -18808734.136 8 -14640916.242 7  21170226.422
  -7292280.074 6  -5637604.077 6  23388581.648
  -1000116.12247   -402515.21643  24068213.4694                   24068217.0664
 -15245960.973 7 -11862339.001 7  21717799.336
 -14515683.63648 -11261794.15645  21939038.3984                   21939039.5124
  -5260780.588 7  -4085650.739 6  23656746.633
 -22537412.67248 -17514429.37846  20592863.3984                   20592861.2344
 11  8 18  0 40  0.0000000  0  9G10G30G12G17G09G05G04G25G02
 -19491553.22948 -15073262.31346  20902971.7734                   20902972.2544
  -6700931.25247  -5177548.72544  23091272.9384                   23091273.8714
 -18856506.258 8 -14678141.255 7  21161135.703
  -7233982.279 6  -5592177.266 7  23399675.898
   -917043.84847   -337783.63943  24084022.1724                   24084024.8484
 -15330675.390 8 -11928350.181 7  21701679.133
 -14436788.08148 -11200317.11645  21954051.5554                   21954053.3404
  -5355023.282 7  -4159086.530 6  23638812.305
 -22533697.66148 -17511534.56146  20593570.4844                   20593568.4614
 11  8 18  0 40 30.0000000  0  9G10G30G12G17G09G05G04G25G02
 -19480272.49348 -15064472.11646  20905118.6884                   20905119.0664
  -6789470.28847  -5246540.22444  23074424.4224                   23074424.9384
 -18903791.599 8 -14714986.961 7  21152137.422
  -7175515.798 7  -5546619.008 6  23410801.672
   -833887.79047   -272986.78544  24099845.8054                   24099849.6134
 -15415035.716 8 -11994085.446 7  21685625.563
 -14357782.97848 -11138754.72645  21969085.8914                   21969086.8284
  -5449023.275 7  -4232333.225 6  23620924.828
 -22529709.50848 -17508426.90646  20594329.3054                   20594327.5594
 11  8 18  0 41  0.0000000  0  9G10G30G12G17G09G05G04G25G02
 -19468359.93848 -15055189.60646  20907385.5864                   20907386.4104
  -6877654.98846  -5315255.56344  23057643.4694                   23057644.6914
 -18950588.133 8 -14751451.770 7  21143232.359
  -7116880.964 7  -5500929.560 6  23421959.523
   -750651.40247   -208127.32344  24115685.3914                   24115689.0634
 -15499038.955 7 -12059542.450 7  21669640.398
 -14278670.31848 -11077108.51945  21984140.8674                   21984141.6174
  -5542777.904 7  -4305388.735 7  23603084.047
 -22525449.48548 -17505107.40746  20595139.7504                   20595138.0394
 11  8 18  0 41 30.0000000  0  9G10G30G12G17G09G05G04G25G02
 -19455815.47348 -15045414.68446  20909772.5554                   20909772.8834
  -6965482.48346  -5383692.56044  23040931.1094                   23040931.6024
 -18996894.132 8 -14787534.354 7  21134420.750
  -7058076.911 7  -5455108.267 7  23433149.242
   -667337.62546   -143207.57844  24131539.5314                   24131542.9264
 -15582681.915 8 -12124718.747 7  21653723.781
 -14199451.75048 -11015379.77845  21999215.7194                   21999216.5664
  -5636284.391 7  -4378250.923 7  23585290.586
 -22520918.68348 -17501576.90546  20596001.9694                   20595999.9064
 11  8 18  0 42  0.0000000  0  9G10G30G12G17G09G05G04G25G02
 -19442639.43448 -15035147.63346  20912279.8134                   20912280.7304
  -7052949.90247  -5451848.97244  23024286.0474                   23024287.8164
 -19042707.523 8 -14823233.078 7  21125702.828
  -6999103.055 7  -5409154.627 6  23444371.750
   -583949.85947    -78230.17644  24147408.0554                   24147411.6604
 -15665962.759 8 -12189612.857 7  21637876.016
 -14120129.07048 -10953569.91145  22014309.9144                   22014311.2774
  -5729540.014 7  -4450917.580 7  23567544.938
 -22516117.97848 -17497836.08246  20596915.6414                   20596913.7154
 11  8 18  0 42 30.0000000  0  9G10G30G12G17G09G05G04G25G02
 -19428832.59148 -15024389.03746  20914907.4614                   20914908.2274
  -7140054.72246  -5519722.80944  23007711.3834                   23007712.4574
 -19088026.441 8 -14858546.518 7  21117079.289
  -6939959.369 6  -5363068.683 6  23455626.586
   -500491.40746    -13197.69443  24163289.7194                   24163292.0824
 -15748878.425 7 -12254222.419 7  21622097.297
 -14040704.30448 -10891680.50945  22029424.6484                   22029425.4494
  -5822542.243 7  -4523386.860 7  23549847.008
 -22511048.87348 -17493886.12946  20597880.3984                   20597878.4964
 11  8 18  0 43  0.0000000  0  9G10G30G12G17G09G05G04G25G02
 -19414394.95948 -15013138.90946  20917654.2734                   20917654.9144
  -7226793.70146  -5587311.55544  22991204.7274                   22991206.1524
 -19132848.484 8 -14893472.778 7  21108549.492
  -6880644.980 6  -5316849.724 6  23466913.344
   -416965.37446     51887.43443  24179184.2734                   24179187.3984
 -15831425.920 8 -12318545.096 7  21606389.172
 -13961178.66647 -10829712.49145  22044557.4614                   22044558.8404
  -5915288.057 7  -4595656.316 6  23532197.383
 -22505712.00648 -17489727.52746  20598895.6884                   20598893.9924
 11  8 18  0 43 30.0000000  0  9G10G30G12G17G09G05G04G25G02
 -19399326.73248 -15001397.41846  20920521.7424                   20920522.8054
  -7313163.90746  -5654612.93944  22974768.5784                   22974770.4264
 -19177171.198 8 -14928009.942 7  21100114.859
  -6821159.071 7  -5270497.134 6  23478233.305
   -333374.63447    117022.98943  24195091.2814                   24195094.3554
 -15913602.250 7 -12382578.551 7  21590751.617
 -13881553.68347 -10767667.07145  22059709.4844                   22059710.8484
  -6007774.406 7  -4667723.592 6  23514598.273
 -22500108.11848 -17485360.85446  20599961.9924                   20599960.4414
 11  8 18  0 44  0.0000000  0  9G10G30G12G17G09G05G04G25G02
 -19383629.54148 -14989165.82346  20923508.8914                   20923509.9734
  -7399163.74546  -5721625.71044  22958403.3284                   22958405.5004
 -19220994.482 8 -14962157.947 7  21091776.055
  -6761502.559 7  -5224011.574 6  23489586.078
   -249723.84446    182205.37543  24211008.9614                   24211012.6844
 -15995405.971 8 -12446321.664 7  21575184.820
 -13801832.38447 -10705546.59045  22074880.0164                   22074881.5664
  -6100000.003 7  -4739587.700 6  23497048.469
 -22494240.05148 -17480788.33046  20601078.8984                   20601076.8594
 11  8 18  0 44 30.0000000  0  9G10G30G12G17G09G05G04G25G02
 -19367302.50848 -14976443.43546  20926615.9924                   20926616.7424
  -7484788.94347  -5788346.55644  22942109.9694                   22942111.8364
 -19264314.672 8 -14995913.930 7  21083532.031
  -6701673.934 7  -5177391.914 6  23500970.805
   -166014.75346    247433.11843  24226939.0164                   24226942.2154
 -16076832.746 8 -12509771.051 7  21559690.039
 -13722014.98047 -10643351.22845  22090068.5474                   22090070.0594
  -6191960.449 7  -4811245.195 6  23479549.023
 -22488106.89448 -17476009.23746  20602245.9614                   20602243.9454
 11  8 18  0 45  0.0000000  0  9G10G30G12G17G09G05G04G25G02
 -19350347.47048 -14963231.71546  20929842.4144                   20929843.5904
  -7570038.03047  -5854774.29144  22925888.0314                   22925889.4184
 -19307131.422 8 -15029277.619 7  21075384.398
  -6641673.927 7  -5130638.709 6  23512388.773
    -82251.94746    312702.75043  24242878.5004                   24242881.1214
 -16157881.389 8 -12572925.802 7  21544266.859
 -13642104.46147 -10581083.31845  22105275.2274                   22105276.4694
  -6283654.439 7  -4882695.056 6  23462100.031
 -22481711.07048 -17471025.47646  20603463.0944                   20603460.4694
 11  8 18  0 45 30.0000000  0  9G10G30G12G17G09G05G04G25G02
 -19332764.55748 -14949530.71346  20933188.4924                   20933188.7504
  -7654907.87147  -5920906.52344  22909737.3364                   22909739.2704
 -19349442.254 8 -15062247.101 7  21067332.984
  -6581501.446 7  -5083751.144 6  23523838.805
      1561.94746    378012.19043  24258827.5784                   24258830.9964
 -16238548.952 8 -12635783.581 7  21528916.234
 -13562102.22547 -10518743.93445  22120499.2504                   22120500.7584
  -6375078.881 7  -4953934.829 6  23444703.086
 -22475053.98848 -17465838.13246  20604729.8594                   20604727.6254
 11  8 18  0 46  0.0000000  0  9G10G30G12G17G09G05G04G25G02
 -19314554.23748 -14935340.83046  20936653.9064                   20936654.4614
  -7739395.62047  -5986741.02944  22893659.5864                   22893661.1564
 -19391245.299 8 -15094820.894 7  21059378.211
  -6521156.345 7  -5036729.040 6  23535322.586
     85423.78946    443358.98343  24274785.3834                   24274788.7114
 -16318832.538 8 -12698342.181 7  21513638.836
 -13482009.84947 -10456334.31445  22135740.4844                   22135742.0824
  -6466230.971 7  -5024962.381 7  23427357.211
 -22468136.12848 -17460447.58546  20606046.2814                   20606044.1454
 11  8 18  0 46 30.0000000  0  9G10G30G12G17G09G05G04G25G02
 -19295716.76348 -14920662.26846  20940237.9774                   20940239.2194
  -7823498.39647  -6052275.56044  22877655.6254                   22877656.3874
 -19432538.641 8 -15126997.531 7  21051520.203
  -6460638.059 7  -4989571.959 6  23546838.656
    169330.24447    508740.55143  24290753.3674                   24290755.8364
 -16398729.536 7 -12760599.525 7  21498434.680
 -13401828.88147 -10393855.65845  22150998.3134                   22150999.6764
  -6557107.848 7  -5095775.467 7  23410063.828
 -22460958.42848 -17454854.55046  20607411.9924                   20607409.9494
 11  8 18  0 47  0.0000000  0  9G10G30G12G17G09G05G04G25G02
 -19276253.23648 -14905495.86646  20943941.9064                   20943942.7304
  -7907213.83147  -6117508.26344  22861724.8284                   22861725.2304
 -19473320.694 8 -15158775.762 7  21043759.859
  -6399946.442 7  -4942279.834 6  23558387.781
    253277.82646    574154.18343  24306727.7344                   24306730.7274
 -16478237.472 8 -12822553.731 7  21483304.883
 -13321561.12447 -10331309.37545  22166272.4384                   22166273.7344
  -6647707.192 7  -5166372.285 7  23392822.969
 -22453522.55848 -17449060.35746  20608827.0944                   20608825.1604
 11  8 18  0 47 30.0000000  0  9G10G30G12G17G09G05G04G25G02
 -19256163.69748 -14889841.65846  20947764.3674                   20947765.4614
  -7990538.42547  -6182436.45744  22845869.0474                   22845868.9844
 -19513589.025 8 -15190153.695 7  21036097.055
  -6339080.458 7  -4894851.866 6  23569970.406
    337263.97146    639597.79543  24322709.3524                   24322713.0944
 -16557353.023 8 -12884202.172 7  21468249.586
 -13241207.82947 -10268696.44845  22181563.6024                   22181564.8164
  -6738025.601 7  -5236750.183 7  23375636.078
 -22445828.82648 -17443065.22746  20610291.1414                   20610289.2344
 11  8 18  0 48  0.0000000  0  9G10G30G12G17G09G05G04G25G02
 -19235449.82948 -14873700.97046  20951706.7344                   20951707.8244
  -8073470.26747  -6247058.58544  22830087.3284                   22830087.7774
 -19553342.385 8 -15221130.344 7  21028531.859
  -6278040.706 7  -4847288.470 6  23581586.461
    421284.74546    705068.44843  24338698.0394                   24338702.5044
 -16636074.357 8 -12945543.422 7  21453269.352
 -13160771.23047 -10206018.61045  22196870.6484                   22196871.4454
  -6828061.198 7  -5306907.689 7  23358502.422
 -22437879.09048 -17436870.61246  20611803.5394                   20611801.8094
 11  8 18  0 48 30.0000000  0  9G10G30G12G17G09G05G04G25G02
 -19214110.89348 -14857073.21246  20955767.3284                   20955767.7854
  -8156005.83147  -6311371.93844  22814380.7424                   22814381.6804
 -19592578.403 8 -15251703.867 7  21021065.766
  -6216825.924 7  -4799588.681 6  23593233.984
    505337.58346    770564.08443  24354692.5474                   24354696.3754
 -16714398.176 8 -13006574.933 7  21438364.516
 -13080252.40547 -10143276.69045  22212192.1804                   22212193.5354
  -6917810.386 7  -5376842.017 6  23341423.664
 -22429673.79548 -17430476.85346  20613365.1954                   20613363.0274
 11  8 18  0 49  0.0000000  0  9G10G30G12G17G09G05G04G25G02
 -19192149.53748 -14839960.44346  20959946.1484                   20959947.0514
  -8238143.78347  -6375375.48344  22798750.8594                   22798751.2504
 -19631296.801 8 -15281874.053 7  21013697.773
  -6155436.790 7  -4751753.036 6  23604916.984
    589418.14746    836081.32543  24370693.8754                   24370696.6884
 -16792323.218 8 -13067295.710 7  21423536.156
 -12999654.02647 -10080472.77445  22227529.5164                   22227531.0314
  -7007271.927 7  -5446552.190 6  23324399.883
 -22421215.59348 -17423886.02046  20614974.3984                   20614972.6804
 11  8 18  0 49 30.0000000  0  9G10G30G12G17G09G05G04G25G02
 -19169565.44848 -14822362.44746  20964243.6724                   20964244.4924
  -8319880.19047  -6439066.15744  22783196.2584                   22783197.5944
 -19669494.263 8 -15311638.301 7  21006429.031
  -6093872.101 7  -4703780.581 6  23616632.203
    673524.59646    901618.69443  24386697.4694                   24386701.9024
 -16869845.646 8 -13127702.747 7  21408783.930
 -12918976.63647 -10017607.31445  22242881.8524                   22242883.4884
  -7096441.901 7  -5516035.193 6  23307431.000
 -22412504.28748 -17417097.98346  20616632.2194                   20616630.5514
 11  8 18  0 50  0.0000000  0  9G10G30G12G17G09G05G04G25G02
 -19146359.84548 -14804280.14646  20968659.7894                   20968660.1994
  -8401213.02847  -6502442.36744  22767719.3364                   22767720.4264
 -19707170.419 8 -15340996.346 7  20999259.266
  -6032131.856 6  -4655671.314 6  23628381.063
    757652.85946    967173.11643  24402706.5944                   24402710.8984
 -16946963.740 8 -13187794.731 7  21394108.852
 -12838222.74647  -9954682.25945  22258249.3444                   22258250.6524
  -7185318.331 7  -5585289.430 7  23290518.305
 -22403541.84248 -17410114.23746  20618338.0234                   20618335.9414
 11  8 18  0 50 30.0000000  0  9G10G30G12G17G09G05G04G25G02
 -19122533.31448 -14785713.99646  20973194.0634                   20973194.3134
  -8482139.51147  -6565501.90844  22752319.0084                   22752321.0004
 -19744323.191 8 -15369946.553 7  20992189.789
  -5970216.304 6  -4607425.449 6  23640162.984
    841799.74446   1032742.01043  24418720.0234                   24418724.4304
 -17023674.883 8 -13247569.599 7  21379510.852
 -12757393.66647  -9891698.58145  22273630.6254                   22273631.5004
  -7273898.376 7  -5654312.774 6  23273661.922
 -22394328.87348 -17402935.28546  20620091.3284                   20620089.1024
 11  8 18  0 51  0.0000000  0  9G10G30G12G17G09G05G04G25G02
 -19098087.20948 -14766665.07946  20977845.8364                   20977846.7934
  -8562656.91447  -6628242.71044  22736997.4224                   22736998.9574
 -19780951.062 8 -15398487.753 7  20985219.266
  -5908125.087 6  -4559042.729 6  23651978.977
    925962.20246   1098323.01043  24434735.5394                   24434739.1374
 -17099976.340 8 -13307025.236 7  21364991.250
 -12676491.02947  -9828657.60245  22289025.9774                   22289027.2734
  -7362179.431 7  -5723103.145 7  23256862.664
 -22384866.74248 -17395562.18546  20621891.8754                   20621889.8404
 11  8 18  0 51 30.0000000  0  9G10G30G12G17G09G05G04G25G02
 -19073021.63048 -14747133.45746  20982615.7114                   20982615.8404
  -8642762.25147  -6690662.43844  22721753.8134                   22721755.0124
 -19817051.785 8 -15426618.176 7  20978349.883
  -5845857.071 6  -4510522.201 6  23663827.172
   1010137.42346   1163913.95243  24450753.2344                   24450757.4614
 -17175865.305 8 -13366159.466 7  21350549.852
 -12595516.02747  -9765560.20345  22304434.6644                   22304435.7114
  -7450158.397 7  -5791658.082 7  23240120.867
 -22375156.21948 -17387995.53146  20623739.7664                   20623737.9804
 11  8 18  0 52  0.0000000  0  9G10G30G12G17G09G05G04G25G02
 -19047337.90048 -14727120.14846  20987502.8444                   20987503.6914
  -8722453.28747  -6752759.33044  22706589.4144                   22706590.2504
 -19852623.927 8 -15454336.715 7  20971580.336
  -5783412.450 6  -4461864.084 6  23675710.523
   1094321.97346   1229512.22343  24466773.5864                   24466777.8984
 -17251339.601 8 -13424970.556 7  21336188.141
 -12514470.81747  -9702408.11445  22319857.1484                   22319858.6414
  -7537833.064 7  -5859975.947 7  23223436.727
 -22365198.79248 -17380236.49346  20625634.5784                   20625632.9064
 11  8 18  0 52 30.0000000  0  9G10G30G12G17G09G05G04G25G02
 -19021037.75748 -14706626.51846  20992507.9144                   20992509.1214
  -8801727.93847  -6814531.77944  22691503.9064                   22691504.5124
 -19887667.178 8 -15481643.134 7  20964912.164
  -5720791.401 7  -4413068.475 6  23687627.719
   1178511.92246   1295114.63243  24482794.7274                   24482798.7504
 -17326397.516 8 -13483457.203 7  21321904.844
 -12433357.42347  -9639202.88245  22335292.1954                   22335294.1214
  -7625201.307 7  -5928055.040 7  23206811.508
 -22354996.42148 -17372286.57246  20627576.1094                   20627573.9694
 11  8 18  0 53  0.0000000  0  9G10G30G12G17G09G05G04G25G02
 -18994120.88948 -14685652.31846  20997629.9694                   20997630.6024
  -8880582.19747  -6875976.67444  22676498.5394                   22676498.9804
 -19922178.012 8 -15508534.676 7  20958344.906
  -5657992.443 6  -4364134.251 6  23699577.750
   1262705.36345   1360719.71442  24498814.9614                   24498820.3794
 -17401035.271 8 -13541616.450 7  21307701.797
 -12352176.20847  -9575944.82945  22350740.8674                   22350742.3954
  -7712259.221 7  -5995892.324 7  23190244.875
 -22344548.70648 -17364145.47946  20629564.0704                   20629562.1374
 11  8 18  0 53 30.0000000  0  9G10G30G12G17G09G05G04G25G02
 -18966589.23447 -14664199.06146  21002868.9614                   21002869.3794
  -8959014.60847  -6937092.81944  22661573.1094                   22661573.7704
 -19956155.996 8 -15535011.010 7  20951879.250
  -5595016.432 6  -4315062.031 6  23711561.227
   1346898.39346   1426324.57642  24514837.3444                   24514842.1524
 -17475251.234 8 -13599447.022 7  21293579.023
 -12270929.80547  -9512635.96545  22366200.6094                   22366202.4844
  -7799005.124 7  -6063486.491 7  23173737.531
 -22333857.90748 -17355814.99046  20631598.3754                   20631597.1024
 11  8 18  0 54  0.0000000  0  9G10G30G12G17G09G05G04G25G02
 -18938443.73348 -14642267.48546  21008224.8134                   21008225.9104
  -9037022.04547  -6997877.84644  22646728.7664                   22646729.5354
 -19989599.574 8 -15561070.925 7  20945514.969
  -5531862.653 7  -4265851.329 6  23723579.039
   1431087.94046   1491926.65042  24530857.5704                   24530862.7384
 -17549042.620 8 -13656946.773 7  21279536.359
 -12189619.23547  -9449277.10745  22381674.3674                   22381676.0354
  -7885436.000 7  -6130835.195 7  23157290.109
 -22322924.71448 -17347295.62246  20633679.0234                   20633677.0044
 11  8 18  0 54 30.0000000  0  9G10G30G12G17G09G05G04G25G02
 -18909685.18547 -14619858.21846  21013697.3284                   21013698.1644
  -9114601.69847  -7058329.51044  22631966.1644                   22631967.0474
 -20022506.773 8 -15586712.887 7  20939252.828
  -5468530.790 7  -4216501.835 6  23735630.813
   1515271.32646   1557523.92142  24546877.6724                   24546883.4534
 -17622406.905 8 -13714113.693 7  21265576.109
 -12108245.92047  -9385869.36744  22397158.9304                   22397160.1994
  -7971548.947 7  -6197936.158 7  23140903.711
 -22311750.39248 -17338588.34546  20635805.1414                   20635803.0904
 11  8 18  0 55  0.0000000  0  9G10G30G12G17G09G05G04G25G02
 -18880315.52148 -14596972.75546  21019286.0704                   21019286.5234
  -9191752.37547  -7118446.88644  22617284.4694                   22617285.8444
 -20054877.444 7 -15611936.768 7  20933092.875
  -5405021.671 6  -4167014.268 6  23747715.773
   1599443.98246   1623112.93242  24562896.1094                   24562900.7274
 -17695343.269 8 -13770947.185 7  21251696.625
 -12026812.58047  -9322414.84345  22412655.6644                   22412657.1214
  -8057342.661 7  -6264788.416 6  23124577.430
 -22300337.15648 -17329694.91546  20637976.6414                   20637974.8874
 11  8 18  0 55 30.0000000  0  9G10G30G12G17G09G05G04G25G02
 -18850334.18948 -14573610.66346  21024991.9064                   21024992.3244
  -9268469.36647  -7178226.32744  22602686.0634                   22602687.8244
 -20086708.044 8 -15636739.800 7  20927035.742
  -5341333.203 6  -4117386.906 6  23759835.570
   1683604.76746   1688692.57842  24578911.5784                   24578915.8554
 -17767846.761 8 -13827443.371 7  21237899.633
 -11945318.98747  -9258913.36645  22428162.9844                   22428164.4104
  -8142812.493 7  -6331388.287 7  23108312.961
 -22288684.19748 -17320614.68246  20640194.8984                   20640192.3874
 11  8 18  0 56  0.0000000  0  9G10G30G12G17G09G05G04G25G02
 -18819743.03148 -14549773.37846  21030812.6564                   21030813.4534
  -9344750.88047  -7237666.42945  22588170.2664                   22588171.8874
 -20117997.968 8 -15661121.551 7  20921081.055
  -5277466.062 6  -4067620.324 6  23771988.859
   1767749.87946   1754260.07743  24594923.7734                   24594928.4024
 -17839915.902 8 -13883601.106 7  21224185.359
 -11863767.19147  -9195366.52945  22443681.5864                   22443683.1214
  -8227956.464 7  -6397734.186 7  23092110.484
 -22276793.47148 -17311349.16546  20642457.5394                   20642455.4844
 11  8 18  0 56 30.0000000  0  9G10G30G12G17G09G05G04G25G02
 -18788544.13948 -14525462.54346  21036749.9224                   21036750.2774
  -9420595.12647  -7296765.75644  22573737.0004                   22573738.8954
 -20148746.399 8 -15685081.339 7  20915230.055
  -5213420.335 6  -4017714.610 6  23784176.430
   1851875.54546   1819812.42543  24610932.3594                   24610937.4104
 -17911549.341 8 -13939419.323 7  21210553.961
 -11782159.29847  -9131776.00345  22459211.5944                   22459212.9884
  -8312772.727 7  -6463824.781 7  23075970.570
 -22264666.36948 -17301899.48446  20644764.8754                   20644763.0784
 11  8 18  0 57  0.0000000  0  9G10G30G12G17G09G05G04G25G02
 -18756737.70247 -14500678.29046  21042802.2274                   21042803.1804
  -9495998.54447  -7355521.59644  22559387.8984                   22559390.1644
 -20178951.039 8 -15708617.413 7  20909482.641
  -5149194.763 6  -3967668.744 6  23796398.164
   1935979.67046   1885347.94043  24626936.5164                   24626942.0744
 -17982743.386 8 -13994895.165 7  21197006.078
 -11700495.98047  -9068142.27744  22474751.7664                   22474752.9344
  -8397257.581 7  -6529657.108 7  23059893.586
 -22252303.81248 -17292266.32646  20647117.7734                   20647115.3634
 11  8 18  0 57 30.0000000  0  9G10G30G12G17G09G05G04G25G02
 -18724326.16247 -14475422.53846  21048969.9924                   21048970.4964
  -9570959.75247  -7413932.86344  22545123.0634                   22545124.8594
 -20208611.871 8 -15731729.729 7  20903838.250
  -5084790.598 6  -3917483.734 6  23808654.617
   2020058.00946   1950863.41243  24642936.2114                   24642941.4304
 -18053496.939 8 -14050027.767 7  21183542.094
 -11618780.02347  -9004467.51144  22490301.4774                   22490302.6804
  -8481409.680 7  -6595230.173 6  23043880.414
 -22239707.84148 -17282451.28646  20649514.6334                   20649512.3914
 11  8 18  0 58  0.0000000  0  9G10G30G12G17G09G05G04G25G02
 -18691309.09147 -14449694.94646  21055253.0234                   21055253.4224
  -9645474.80747  -7471996.45944  22530943.5784                   22530945.8874
 -20237725.592 8 -15754415.727 7  20898297.977
  -5020206.030 6  -3867158.145 6  23820944.258
   2104108.69046   2016357.33843  24658930.4224                   24658935.7974
 -18123806.304 8 -14104814.240 7  21170162.766
 -11537011.47347  -8940751.76044  22505861.5004                   22505862.3324
  -8565224.873 7  -6660540.653 6  23027930.617
 -22226878.00048 -17272454.00746  20651956.0234                   20651953.7734
 11  8 18  0 58 30.0000000  0  9G10G30G12G17G09G05G04G25G02
 -18657687.89547 -14423496.60446  21061650.9064                   21061651.7734
  -9719541.57047  -7529710.73544  22516849.5634                   22516850.8874
 -20266291.543 8 -15776674.890 7  20892862.055
  -4955440.907 6  -3816691.855 6  23833268.727
   2188128.49246   2081827.23643  24674920.1414                   24674924.0044
 -18193669.456 8 -14159253.019 7  21156868.281
 -11455191.78647  -8876996.19144  22521431.2034                   22521432.3834
  -8648700.850 7  -6725586.820 7  23012045.695
 -22213815.81548 -17262275.68946  20654441.7274                   20654439.6884
 11  8 18  0 59  0.0000000  0  9G10G30G12G17G09G05G04G25G02
 -18623465.48247 -14396829.77746  21068163.1884                   21068164.1604
  -9793158.60647  -7587074.59344  22502840.0784                   22502841.6524
 -20294309.443 8 -15798507.006 7  20887530.664
  -4890496.849 6  -3766086.131 6  23845626.406
   2272113.14446   2147269.67843  24690900.8594                   24690905.5274
 -18263085.320 8 -14213343.259 7  21143658.961
 -11373323.86547  -8813203.03044  22537010.8984                   22537011.1994
  -8731836.213 7  -6790367.565 7  22996225.367
 -22200523.68048 -17251918.18946  20656970.9064                   20656969.0514
 11  8 18  0 59 30.0000000  0  9G10G30G12G17G09G05G04G25G02
 -18588642.03347 -14369694.60146  21074790.2424                   21074790.6094
  -9866322.41647  -7644085.27444  22488917.6334                   22488918.7034
 -20321777.002 8 -15819910.284 7  20882303.570
  -4825372.099 6  -3715339.613 6  23858020.516
   2356060.76846   2212683.36043  24706875.6484                   24706880.8674
 -18332050.619 8 -14267082.426 7  21130534.813
 -11291407.95747  -8749372.48944  22552598.3594                   22552599.9454
  -8814627.201 7  -6854879.970 7  22980470.555
 -22187001.45348 -17241381.40046  20659544.0234                   20659541.9774
 11  8 18  1  0  0.0000000  0  9G10G30G12G17G09G05G04G25G02
 -18553219.94047 -14342092.95546  21081530.4924                   21081531.2464
  -9939031.24747  -7700741.45245  22475082.1804                   22475082.4614
 -20348693.590 8 -15840884.232 7  20877181.711
  -4760067.229 6  -3664452.756 6  23870447.617
   2439967.45845   2278065.00342  24722842.5944                   24722848.0944
 -18400563.744 8 -14320469.222 7  21117496.750
 -11209446.39347  -8685506.37444  22568195.1094                   22568196.3954
  -8897072.167 7  -6919122.720 7  22964781.977
 -22173251.55248 -17230667.20046  20662160.8834                   20662159.1454
 11  8 18  1  0 30.0000000  0  9G10G30G12G17G09G05G04G25G02
 -18517199.08148 -14314024.74546  21088385.1414                   21088385.9654
 -10011281.64247  -7757040.39345  22461332.9064                   22461333.6294
 -20375056.914 8 -15861427.072 7  20872164.570
  -4694581.070 6  -3613424.580 6  23882909.016
   2523831.09145   2343413.18842  24738801.5394                   24738806.7424
 -18468621.480 8 -14373501.196 7  21104546.336
 -11127439.51947  -8621604.94244  22583800.2894                   22583802.1764
  -8979167.289 7  -6983092.893 6  22949160.023
 -22159273.80348 -17219775.45846  20664820.7894                   20664818.8914
 11  8 18  1  1  0.0000000  0  9G10G30G12G17G09G05G04G25G02
 -18480581.61047 -14285491.64546  21095352.9384                   21095353.5044
 -10083071.46747  -7812980.43345  22447671.8054                   22447672.3834
 -20400866.294 8 -15881538.267 7  20867253.516
  -4628914.092 6  -3562255.537 6  23895404.828
   2607648.39045   2408725.29642  24754750.8754                   24754757.5394
 -18536221.860 8 -14426176.768 7  21091682.227
 -11045389.05347  -8557669.57244  22599414.4844                   22599416.3554
  -9060910.427 7  -7046788.779 6  22933604.008
 -22145069.61548 -17208707.26846  20667523.0314                   20667521.7584
 11  8 18  1  1 30.0000000  0  9G10G30G12G17G09G05G04G25G02
 -18443368.55247 -14256494.45246  21102434.4454                   21102435.2464
 -10154398.15747  -7868559.62245  22434098.6174                   22434098.7194
 -20426119.842 8 -15901216.347 7  20862448.133
  -4563065.798 6  -3510945.222 6  23907935.930
   2691416.42445   2473998.94442  24770691.8284                   24770699.5164
 -18603362.626 8 -14478494.213 7  21078905.813
 -10963296.17547  -8493701.12344  22615036.1414                   22615037.5554
  -9142298.880 7  -7110208.286 6  22918116.789
 -22130640.17148 -17197463.54346  20670269.3524                   20670267.4734
 11  8 18  1  2  0.0000000  0  9G10G30G12G17G09G05G04G25G02
 -18405561.75347 -14227034.60346  21109629.0634                   21109629.5004
 -10225259.82247  -7923776.45045  22420613.7664                   22420614.8914
 -20450817.288 8 -15920461.103 7  20857748.180
  -4497036.162 6  -3459493.615 6  23920500.547
 -52364568.34445 -40426768.54042  24786621.9844                   24786630.1484
 -18670041.980 8 -14530452.105 7  21066217.203
 -10881163.10547  -8429701.36444  22630665.4144                   22630666.9024
  -9223330.494 7  -7173349.734 7  22902697.320
 -22115987.20448 -17186045.66446  20673057.7344                   20673055.9804
 11  8 18  1  2 30.0000000  0  9G10G30G12G17G09G05G04G25G02
 -18367163.54348 -14197113.91546  21116935.5234                   21116936.2304
 -10295654.51747  -7978629.41544  22407218.5784                   22407219.2544
 -20474958.394 8 -15939272.350 7  20853154.031
  -4430825.779 6  -3407901.120 6  23933099.992
 -52280909.27345 -40361579.88842  24802542.8524                   24802550.7344
 -18736258.146 8 -14582049.083 7  21053616.875
 -10798991.42847  -8365671.49944  22646301.9614                   22646303.8484
  -9304003.168 7  -7236211.502 7  22887345.438
 -22101111.97248 -17174454.58346  20675888.3204                   20675886.7664
 11  8 18  1  3  0.0000000  0  9G10G30G12G17G09G05G04G25G02
 -18328174.52048 -14166732.84246  21124355.1564                   21124355.4574
 -10365579.02747  -8033116.00544  22393912.0314                   22393912.6094
 -20498540.395 8 -15957647.932 7  20848666.523
  -4364433.939 6  -3356167.244 6  23945733.133
 -52197308.554 5                  24818451.000
 -18802008.555 8 -14633283.136 7  21041104.273
 -10716781.78947  -8301612.08744  22661946.5234                   22661948.1484
  -9384313.606 7  -7298790.980 7  22872062.773
 -22086014.93648 -17162690.67846  20678761.2814                   20678759.5864
 11  8 18  1  3 30.0000000  0  9G10G30G12G17G09G05G04G25G02
 -18288595.94747 -14135892.39446  21131886.5554                   21131887.2894
 -10435030.58047  -8087234.04845  22380696.0634                   22380696.0044
 -20521562.148 8 -15975586.958 7  20844285.664
  -4297859.979 6  -3304291.437 6  23958402.664
 -52113768.936 5                  24834348.781
 -18867290.433 8 -14684152.085 7  21028681.773
 -10634535.20147  -8237523.84144  22677597.6254                   22677599.4454
  -9464258.806 7  -7361085.862 7  22856849.672
 -22070697.01348 -17150754.62446  20681676.0314                   20681674.0314
 11  8 18  1  4  0.0000000  0  9G10G30G12G17G09G05G04G25G02
 -18248426.55948 -14104591.57846  21139530.7974                   21139531.3954
 -10504004.03447  -8140979.56244  22367570.6644                   22367570.9574
 -20544019.921 8 -15993086.515 7  20840011.914
  -4231100.834 6  -3252271.357 6  23971106.648
 -52030290.710 6                  24850234.461
 -18932098.864 8 -14734652.129 7  21016349.219
 -10552250.35347  -8173405.82345  22693255.8204                   22693257.9224
  -9543833.481 7  -7423092.016 7  22841707.031
 -22055156.54748 -17138645.17446  20684633.5554                   20684631.2894
 11  8 18  1  4 30.0000000  0  8G10G30G12G17G05G04G25G02
 -18207674.10848 -14072836.40346  21147285.9384                   21147285.8014
 -10572503.31847  -8194355.58844  22354535.3134                   22354536.1174
 -20565918.824 8 -16010150.577 7  20835844.867
  -4164162.899 6  -3200111.927 6  23983843.953
 -18996437.696 8 -14784786.243 7  21004106.031
 -10469934.64547  -8109263.73145  22708920.1484                   22708921.8554
  -9623041.336 7  -7484812.355 7  22826633.672
 -22039400.86048 -17126368.01146  20687631.7894                   20687629.9024
 11  8 18  1  5  0.0000000  0  8G10G30G12G17G05G04G25G02
 -18166337.30948 -14040625.91146  21155151.8134                   21155152.6954
 -10640523.38247  -8247358.20544  22341591.4304                   22341591.9264
 -20587255.149 8 -16026776.287 7  20831784.633
  -4097043.250 6  -3147810.919 6  23996617.047
 -19060302.805 8 -14834551.236 7  20991952.852
 -10387586.87347  -8045096.66944  22724590.4064                   22724592.7034
  -9701877.137 7  -7546242.777 7  22811632.492
 -22023428.57848 -17113922.08046  20690671.0554                   20690669.3204
 11  8 18  1  5 30.0000000  0  8G10G30G12G17G05G04G25G02
 -18124417.98947 -14007961.51046  21163128.5394                   21163129.7304
 -10708061.74647  -8299985.48444  22328739.6414                   22328740.3204
 -20608027.147 8 -16042962.252 7  20827831.875
  -4029741.617 6  -3095368.089 6  24009422.922
 -19123691.830 8 -14883945.237 7  20979890.359
 -10305208.10247  -7980905.43444  22740265.8364                   22740268.4804
  -9780338.216 7  -7607381.201 7  22796701.664
 -22007240.43148 -17101307.93246  20693751.1254                   20693749.6994
 11  8 18  1  6  0.0000000  0  8G10G30G12G17G05G04G25G02
 -18081917.00847 -13974843.84446  21171216.3364                   21171216.8554
 -10775115.39747  -8352235.05744  22315979.3754                   22315980.5004
 -20628233.694 8 -16058707.616 7  20823986.766
  -3962257.209 6  -3042782.853 6  24022265.930
 -19186601.668 8 -14932965.857 7  20967918.953
 -10222799.11847  -7916690.66444  22755948.2814                   22755950.3914
  -9858421.325 7  -7668225.133 7  22781842.664
 -21990836.99648 -17088526.03246  20696873.1094                   20696871.1524
 11  8 18  1  6 30.0000000  0  8G10G30G12G17G05G04G25G02
 -18038836.76447 -13941274.81946  21179414.6804                   21179415.2814
 -10841682.62147  -8404105.59544  22303312.2344                   22303313.5514
 -20647874.449 8 -16074012.104 7  20820249.430
  -3894590.471 6  -2990055.526 6  24035141.766
 -19249031.000 8 -14981612.051 8  20956039.086
 -10140361.75147  -7852453.77544  22771635.2504                   22771637.2194
  -9936124.544 7  -7728773.047 7  22767056.391
 -21974220.12948 -17075577.83046  20700035.2274                   20700033.0664
 11  8 18  1  7  0.0000000  0  8G10G30G12G17G05G04G25G02
 -17995179.05347 -13907255.82746  21187722.0474                   21187722.5394
 -10907761.52447  -8455595.65645  22290737.7974                   22290739.2194
 -20666948.727 8 -16088875.169 7  20816619.867
  -3826741.673 6  -2937186.299 6  24048053.883
 -19310978.268 8 -15029882.610 7  20944250.688
 -10057897.67547  -7788196.06644  22787328.0314                   22787329.7114
 -10013445.747 7  -7789023.301 7  22752342.516
 -21957391.14948 -17062464.31046  20703237.5944                   20703234.9654
 11  8 18  1  7 30.0000000  0  8G10G30G12G17G05G04G25G02
 -17950944.86147 -13872787.61745  21196139.6564                   21196140.0124
 -10973348.87847  -8506702.68945  22278257.1254                   22278258.0864
 -20685454.361 8 -16103295.150 7  20813097.922
  -3758709.666 6  -2884174.363 5  24060998.688
 -19372440.458 8 -15077775.188 7  20932555.094
  -9975407.17247  -7723917.74844  22803025.4924                   22803026.9654
 -10090381.439 7  -7848973.165 7  22737702.227
 -21940350.36948 -17049185.77546  20706480.1954                   20706478.4384
 11  8 18  1  8  0.0000000  0  8G10G30G12G17G05G04G25G02
 -17906136.04047 -13837871.65045  21204666.3204                   21204667.2154
 -11038442.62047  -8557425.07045  22265870.5314                   22265871.4024
 -20703390.922 8 -16117271.694 7  20809684.852
  -3690494.672 6  -2831019.834 5  24073980.508
 -19433415.725 8 -15125288.344 7  20920951.680
  -9892891.81447  -7659620.06744  22818728.2424                   22818728.8874
 -10166929.328 7  -7908620.850 6  22723135.492
 -21923098.97148 -17035743.12446  20709763.3284                   20709761.0784
 11  8 18  1  8 30.0000000  0  8G10G30G12G17G05G04G25G02
 -17860754.90247 -13802509.72346  21213302.0164                   21213302.5474
 -11103041.01547  -8607761.48045  22253577.6564                   22253578.3014
 -20720757.902 8 -16130804.413 7  20806379.883
  -3622097.463 6  -2777723.318 6  24086996.055
 -19493902.718 8 -15172421.035 7  20909441.391
  -9810353.38447  -7595304.39044  22834433.7424                   22834435.3914
 -10243087.487 7  -7967964.855 6  22708642.609
 -21905638.69648 -17022137.70146  20713085.6094                   20713083.8874
 11  8 18  1  9  0.0000000  0  8G10G30G12G17G05G04G25G02
 -17814802.62747 -13766702.75645  21222046.5234                   21222047.3204
 -11167141.32747  -8657709.76945  22241379.9144                   22241380.9884
 -20737554.048 8 -16143892.326 8  20803183.688
  -3553517.048 6  -2724284.056 6  24100046.836
 -19553899.008 8 -15219171.347 7  20898023.977
  -9727792.56847  -7530971.27144  22850145.7114                   22850145.9304
 -10318852.885 7  -8027002.815 7  22694225.141
 -21887970.05848 -17008369.91446  20716448.0474                   20716445.8634
 11  8 18  1  9 30.0000000  0  8G10G30G12G17G05G04G25G02
 -17768282.26347 -13730453.11546  21230899.1414                   21230899.5904
 -11230742.33047  -8707268.99245  22229276.8524                   22229278.0314
 -20753779.340 8 -16156535.417 7  20800096.313
  -3484754.550 6  -2670702.908 6  24113131.563
 -19613403.397 8 -15265538.371 7  20886700.938
  -9645211.56847  -7466622.44044  22865859.2504                   22865860.5944
 -10394224.004 7  -8085733.565 7  22679882.398
 -21870095.26548 -16994441.48546  20719849.6414                   20719847.3324
 11  8 18  1 10  0.0000000  0  8G10G30G12G17G05G04G25G02
 -17721192.99747 -13693760.17346  21239859.7664                   21239860.2704
 -11293839.43647  -8756435.56945  22217270.2424                   22217271.4844
 -20769430.716 8 -16168731.295 7  20797117.828
  -3415807.835 6  -2616978.198 5  24126251.484
 -19672412.041 8 -15311519.098 7  20875471.773
  -9562609.32347  -7402257.05544  22881578.1484                   22881579.9264
 -10469196.047 7  -8144153.328 7  22665615.586
 -21852012.95148 -16980351.36446  20723290.5314                   20723288.7544
 11  8 18  1 10 30.0000000  0  8G10G30G12G17G05G04G25G02
 -17673539.67048 -13656627.72446  21248927.8984                   21248928.5864
 -11356433.34247  -8805210.03145  22205358.2344                   22205359.4344
 -20784510.208 8 -16180481.550 8  20794248.391
  -3346679.137 6  -2563111.694 6  24139405.641
 -19730925.459 8 -15357113.932 7  20864337.445
  -9479989.80047  -7337878.22544  22897299.8674                   22897301.6334
 -10543769.290 7  -8202262.341 7  22651424.906
 -21833727.37748 -16966102.84646  20726769.9694                   20726767.7704
 11  8 18  1 11  0.0000000  0  8G10G30G12G17G05G04G25G02
 -17625322.21647 -13619055.66645  21258103.5634                   21258104.3634
 -11418519.93147  -8853589.20645  22193544.1254                   22193544.8164
 -20799014.999 8 -16191783.983 8  20791488.336
  -3277366.951 6  -2509102.218 6  24152595.883
 -19788939.905 8 -15402319.961 7  20853297.477
  -9397352.48247  -7273485.53144  22913025.6174                   22913027.3984
 -10617939.425 7  -8260057.253 7  22637310.945
 -21815237.40548 -16951695.05946  20730288.4224                   20730286.2114
 11  8 18  1 11 30.0000000  0  8G10G30G12G17G05G04G25G02
 -17576543.82747 -13581046.52846  21267385.6174                   21267386.1994
 -11480098.30847  -8901572.37345  22181826.4924                   22181826.9844
 -20812945.615 7 -16202639.003 7  20788836.914
  -3207872.266 6  -2454950.551 6  24165821.305
 -19846454.999 8 -15447136.877 8  20842352.828
  -9314699.65747  -7209080.74044  22928753.8674                   22928756.2344
 -10691705.268 7  -8317537.132 7  22623273.391
 -21796545.55447 -16937129.96346  20733845.1174                   20733843.4614
 11  8 18  1 12  0.0000000  0  8G10G30G12G17G05G04G25G02
 -17527205.55348 -13542601.11245  21276774.3284                   21276774.6804
 -11541165.59747  -8949157.27845  22170205.5164                   22170206.2464
 -20826300.541 8 -16213045.444 7  20786295.594
  -3138194.213 6  -2400655.957 6  24179080.273
 -19903467.942 8 -15491562.515 7  20831503.539
  -9232031.97047  -7144664.37244  22944485.4454                   22944486.9304
 -10765063.607 7  -8374699.487 7  22609314.180
 -21777652.16648 -16922407.83646  20737440.5704                   20737438.8404
 11  8 18  1 12 30.0000000  0  8G10G30G12G17G05G04G25G02
 -17477309.81947 -13503721.31946  21286269.2274                   21286269.6764
 -11601720.16347  -8996342.65045  22158682.2034                   22158683.0634
 -20839079.600 8 -16223003.151 7  20783864.164
  -3068333.393 6  -2346219.028 6  24192373.664
 -19959977.569 8 -15535595.954 7  20820750.258
  -9149350.80047  -7080237.47844  22960218.3984                   22960220.1994
 -10838012.487 7  -8431542.772 7  22595432.586
 -21758558.77648 -16907529.85546  20741074.2584                   20741072.0664
 11  8 18  1 13  0.0000000  0  8G10G30G12G17G05G04G25G02
 -17426857.32647 -13464407.67845  21295869.9144                   21295870.7274
 -11661758.70047  -9043125.93045  22147258.1254                   22147258.0784
 -20851281.126 8 -16232510.818 7  20781542.383
  -2998288.441 6  -2291638.582 6  24205703.016
 -20015980.876 8 -15579234.860 7  20810092.859
  -9066656.00847  -7015800.00544  22975954.4924                   22975956.8444
 -10910548.247 7  -8488064.145 7  22581629.313
 -21739264.83148 -16892495.59846  20744745.6174                   20744743.4804
 11  8 18  1 13 30.0000000  0  8G10G30G12G17G05G04G25G02
 -17375851.94947 -13424663.23245  21305576.3674                   21305577.0554
 -11721280.62647  -9089506.63345  22135930.7194                   22135931.1994
 -20862905.849 8 -16241569.051 7  20779330.234
  -2928061.175 6  -2236916.050 6  24219066.195
 -20071477.333 8 -15622478.810 8  20799532.406
  -8983950.55446  -6951354.19344  22991693.3594                   22991695.0394
 -10982670.014 7  -8544262.920 7  22567905.047
 -21719773.70448 -16877307.69346  20748454.6414                   20748452.2894
 11  8 18  1 14  0.0000000  0  8G10G30G12G17G05G04G25G02
 -17324294.15047 -13384488.32345  21315387.0864                   21315387.9454
 -11780282.64347  -9135482.19145  22124703.1174                   22124703.3594
 -20873951.820 8 -16250176.297 7  20777227.977
  -2857650.099 7  -2182050.300 6  24232465.469
 -20126463.970 8 -15665325.506 7  20789068.781
  -8901234.39546  -6886900.05844  23007433.8134                   23007435.2424
 -11054374.184 7  -8600136.303 7  22554260.359
 -21700084.88448 -16861965.73646  20752201.0394                   20752199.3954
 11  8 18  1 14 30.0000000  0  8G10G30G12G17G05G04G25G02
 -17272186.68547 -13343885.10645  21325302.8204                   21325303.5864
 -11838763.53847  -9181051.69345  22113574.4144                   22113575.2074
 -20884419.134 8 -16258332.643 7  20775236.211
  -2787056.299 6  -2127042.139 6  24245899.305
 -20180940.063 8 -15707774.378 7  20778702.102
  -8818509.50547  -6822439.11644  23023175.3444                   23023177.4694
 -11125659.197 7  -8655683.066 7  22540695.336
 -21680200.41848 -16846471.34046  20755985.4304                   20755983.1454
 11  8 18  1 15  0.0000000  0  8G10G30G12G17G05G04G25G02
 -17219531.13447 -13302854.79745  21335323.1954                   21335323.2664
 -11896720.82147  -9226213.19445  22102545.5164                   22102546.0744
 -20894306.997 8 -16266037.469 7  20773354.570
  -2716279.164 6  -2071891.067 6  24259366.523
 -20234903.447 8 -15749823.730 7  20768433.242
  -8735776.33746  -6757971.72644  23038918.7664                   23038920.8794
 -11196522.138 7  -8710900.918 7  22527209.813
 -21660120.75948 -16830824.84346  20759806.0864                   20759803.8834
 11  8 18  1 15 30.0000000  0  9G10G30G12G17G29G05G04G25G02
 -17166329.72447 -13261399.14345  21345447.1724                   21345447.7274
 -11954152.42047  -9270965.04545  22091616.1094                   22091616.6524
 -20903614.486 8 -16273290.049 7  20771583.344
  -2645318.730 6  -2016597.269 6  24272870.461
   -614476.593 6   -462762.354 6  24658013.438
 -20288352.200 8 -15791472.071 7  20758262.141
  -8653036.12447  -6693498.85644  23054664.1724                   23054666.4264
 -11266960.613 7  -8765788.002 7  22513806.172
 -21639846.94748 -16815027.06346  20763664.1724                   20763661.8324
 11  8 18  1 16  0.0000000  0  9G10G30G12G17G29G05G04G25G02
 -17112584.33147 -13219519.60645  21355673.8674                   21355675.0744
 -12011056.23947  -9315305.65745  22080787.5944                   22080788.5634
 -20912341.451 8 -16280090.268 7  20769922.719
  -2574174.531 6  -1961160.203 6  24286409.242
   -694861.812 6   -525400.146 6  24642716.227
 -20341284.653 8 -15832718.097 7  20748189.367
  -8570289.71747  -6629021.14944  23070410.1094                   23070411.8984
 -11336972.062 7  -8820342.377 7  22500483.563
 -21619379.89848 -16799078.70946  20767559.0004                   20767556.4654
 11  8 18  1 16 30.0000000  0  9G10G30G12G17G29G05G04G25G02
 -17058297.97647 -13177218.54245  21366004.6724                   21366005.3204
 -12067431.22347  -9359234.17845  22070060.0784                   22070061.2584
 -20920488.231 8 -16286438.399 7  20768372.523
  -2502847.997 7  -1905581.042 6  24299982.680
   -775319.126 6   -588094.037 6  24627405.086
 -20393699.853 8 -15873561.089 8  20738215.023
  -8487539.09847  -6564540.18644  23086157.8364                   23086159.4924
 -11406555.205 7  -8874562.970 7  22487242.305
 -21598721.92748 -16782981.58646  20771489.8444                   20771487.6374
 11  8 18  1 17  0.0000000  0  9G10G30G12G17G29G05G04G25G02
 -17003472.85347 -13134497.65245  21376437.3834                   21376437.9614
 -12123275.60647  -9402749.23845  22059432.9224                   22059433.8364
 -20928054.288 7 -16292334.013 7  20766932.656
  -2431339.122 6  -1849859.833 6  24313589.563
   -855848.000 7   -650843.726 6  24612081.672
 -20445596.693 8 -15914000.142 7  20728339.523
  -8404785.80147  -6500057.12144  23101904.4304                   23101906.6454
 -11475707.850 7  -8928448.115 7  22474082.617
 -21577873.98548 -16766736.43846  20775457.4224                   20775455.2544
 11  8 18  1 17 30.0000000  0  9G10G30G12G17G29G05G04G25G02
 -16948109.07547 -13091357.04545  21386972.9774                   21386973.3954
 -12178585.51247  -9445847.82145  22048908.0474                   22048909.0164
 -20935037.262 8 -16297775.286 7  20765603.750
  -2359646.229 6  -1793995.225 6  24327232.594
   -936446.018 6   -713647.360 6  24596744.570
 -20496971.557 8 -15954032.482 7  20718563.039
  -8322028.76547  -6435571.14544  23117652.6954                   23117654.5434
 -11544425.656 7  -8981994.434 7  22461006.055
 -21556835.24048 -16750342.62046  20779460.6174                   20779458.6644
 11  8 18  1 18  0.0000000  0  9G10G30G12G17G29G05G04G25G02
 -16892210.80447 -13047799.93645  21397610.0704                   21397610.4184
 -12233360.83847  -9488529.86145  22038483.8914                   22038485.5394
 -20941438.528 8 -16302763.275 7  20764385.758
  -2287771.173 6  -1737988.732 6  24340910.094
  -1017114.822 6   -776506.084 6  24581393.070
 -20547824.402 8 -15993658.040 7  20708886.125
  -8239270.93247  -6371084.56744  23133401.5944                   23133403.7504
 -11612708.247 7  -9035201.613 7  22448012.422
 -21535608.50648 -16733802.31346  20783500.1884                   20783498.1524
 11  8 18  1 18 30.0000000  0  9G10G30G12G17G29G05G04G25G02
 -16835777.98647 -13003826.29145  21408348.4304                   21408349.2424
 -12287598.13247  -9530792.63545  22028163.1334                   22028164.9024
 -20947255.984 7 -16307296.341 7  20763278.875
  -2215712.544 6  -1681839.145 6  24354621.914
  -1097851.873 6   -839417.985 6  24566028.969
 -20598152.130 8 -16032874.412 7  20699308.898
  -8156511.48747  -6306596.71244  23149150.0554                   23149151.6764
 -11680551.485 7  -9088066.455 7  22435102.188
 -21514193.25248 -16717115.10946  20787574.9614                   20787573.2304
 11  8 18  1 19  0.0000000  0  9G10G30G12G17G29G05G04G25G02
 -16778814.81647 -12959439.40345  21419188.4384                   21419188.9304
 -12341296.85847  -9572635.75845  22017944.9224                   22017946.3754
 -20952490.828 8 -16311375.438 7  20762282.750
  -2143471.865 6  -1625547.701 6  24368368.789
  -1178658.191 6   -902383.874 6  24550651.555
 -20647954.676 8 -16071681.564 7  20689832.086
  -8073753.42646  -6242109.93844  23164898.1724                   23164899.7304
 -11747954.756 8  -9140588.448 7  22422275.836
 -21492591.97048 -16700282.94346  20791685.8284                   20791683.4384
 11  8 18  1 19 30.0000000  0  9G10G30G12G17G29G05G04G25G02
 -16721322.43147 -12914640.12945  21430128.7424                   21430129.0744
 -12394454.09647  -9614056.94845  22007829.3054                   22007830.5044
 -20957141.294 8 -16314999.175 7  20761397.906
  -2071047.868 6  -1569113.466 6  24382151.133
  -1259532.185 6   -965402.508 6  24535262.469
 -20697229.504 8 -16110077.491 8  20680455.070
  -7990996.32646  -6177623.90844  23180646.0164                   23180647.6254
 -11814914.545 7  -9192764.873 7  22409534.000
 -21470804.93248 -16683306.03146  20795831.8054                   20795829.7854
 11  8 18  1 20  0.0000000  0  9G10G30G12G17G29G05G04G25G02
 -16663303.96747 -12869430.91945  21441169.1804                   21441170.0354
 -12447068.98147  -9655055.53145  21997817.1484                   21997817.6994
 -20961208.484 8 -16318168.399 7  20760623.430
  -1998441.597 6  -1512537.131 6  24395967.117
  -1340473.858 6  -1028473.921 6  24519860.016
 -20745975.802 8 -16148061.583 8  20671179.383
  -7908242.34047  -6113140.29443  23196393.6724                   23196395.0904
 -11881429.522 7  -9244594.682 7  22396876.281
 -21448833.53048 -16666185.45846  20800012.5164                   20800010.7154
 11  8 18  1 20 30.0000000  0  9G10G30G12G17G29G05G04G25G02
 -16604761.87347 -12823813.69145  21452309.5164                   21452309.9454
 -12499139.92347  -9695630.27445  21987908.3524                   21987909.1604
 -20964692.421 8 -16320883.156 7  20759960.500
  -1925653.475 6  -1455819.123 6  24409818.773
  -1421483.058 6  -1091597.886 6  24504443.422
 -20794192.439 8 -16185632.953 7  20662003.867
  -7825492.60947  -6048659.99044  23212140.7504                   23212142.7384
 -11947497.770 7  -9296076.390 7  22384304.688
 -21426679.67648 -16648922.72446  20804227.9694                   20804226.6914
 11  8 18  1 21  0.0000000  0  9G10G30G12G17G29G05G04G25G02
 -16545698.23947 -12777790.07545  21463548.6804                   21463549.5984
 -12550664.86247  -9735779.54945  21978103.5164                   21978104.0354
 -20967592.293 8 -16323142.792 7  20759408.594
  -1852683.368 6  -1398959.294 6  24423705.078
  -1502558.927 6  -1154773.841 6  24489016.875
 -20841877.670 8 -16222790.239 8  20652929.398
  -7742747.94647  -5984183.65744  23227886.2814                   23227887.6334
 -12013116.742 7  -9347208.022 7  22371817.109
 -21404343.70848 -16631518.07646  20808478.6954                   20808476.5554
 11  8 18  1 21 30.0000000  0  9G10G30G12G17G29G05G04G25G02
 -16486114.71947 -12731361.34945  21474887.4534                   21474887.9734
 -12601641.66047  -9775501.71145  21968403.4224                   21968403.0514
 -20969907.443 8 -16324946.802 7  20758968.156
  -1779531.066 6  -1341957.532 6  24437625.195
  -1583700.516 6  -1218000.980 6  24473574.445
 -20889029.901 8 -16259532.204 7  20643956.461
  -7660008.92847  -5919711.68844  23243631.6334                   23243632.9304
 -12078283.815 7  -9397987.529 7  22359416.461
 -21381826.48948 -16613972.19146  20812763.6484                   20812761.9654
 11  8 18  1 22  0.0000000  0  9G10G30G12G17G29G05G04G25G02
 -16426012.72447 -12684528.61445  21486324.0394                   21486324.9574
 -12652067.61248  -9814794.65145  21958807.6804                   21958807.6294
 -20971636.543 7 -16326294.151 7  20758639.016
  -1706195.548 6  -1284813.003 6  24451580.078
  -1664906.561 6  -1281278.317 6  24458122.328
 -20935646.544 8 -16295856.827 8  20635085.859
  -7577275.49547  -5855244.09344  23259375.0234                   23259376.4614
 -12142995.784 7  -9448412.393 7  22347101.836
 -21359128.32248 -16596285.30646  20817082.9304                   20817081.2114
 11  8 18  1 22 30.0000000  0  9G10G30G12G17G29G05G04G25G02
 -16365396.41747 -12637295.11545  21497858.9924                   21497859.8524
 -12701942.79747  -9853658.40845  21949316.3444                   21949316.9964
 -20972781.367 8 -16327186.231 7  20758421.359
  -1632678.881 6  -1227527.319 6  24465569.617
  -1746177.733 6  -1344606.382 6  24442655.742
 -20981727.743 8 -16331764.216 8  20626317.047
  -7494550.52847  -5790783.11044  23275117.3834                   23275119.2074
 -12207252.243 7  -9498482.340 7  22334874.305
 -21336251.61548 -16578459.29446  20821435.9224                   20821434.1054
 11  8 18  1 23  0.0000000  0  9G10G30G12G17G29G05G04G25G02
 -16304266.61047 -12589661.50045  21509491.6024                   21509492.2234
 -12751263.86747  -9892090.39845  21939930.7664                   21939930.8714
 -20973340.527 8 -16327621.941 7  20758315.148
  -1558980.034 5  -1170099.634 5  24479593.852
  -1827511.962 6  -1407983.583 5  24427178.805
 -21027270.885 8 -16367252.345 8  20617650.047
  -7411833.54647  -5726328.32244  23290857.7344                   23290859.4804
 -12271049.503 7  -9548194.455 7  22322733.859
 -21313195.94748 -16560493.84346  20825823.3204                   20825821.6414
 11  8 18  1 23 30.0000000  0  9G10G30G12G17G29G05G04G25G02
 -16242626.69547 -12541630.39045  21521221.7504                   21521222.3794
 -12800030.22548  -9930090.13545  21930650.9304                   21930650.9184
 -20973314.424 8 -16327601.605 7  20758319.953
  -1485099.945 5  -1112530.700 6  24493653.758
  -1908909.870 6  -1471410.426 5  24411689.109
 -21072275.597 8 -16402320.920 8  20609086.008
  -7329126.39747  -5661881.20944  23306596.2504                   23306598.3094
 -12334386.397 8  -9597547.850 7  22310681.258
 -21289963.25548 -16542390.44846  20830244.7344                   20830243.0744
 11  8 18  1 24  0.0000000  0  9G10G30G12G17G29G05G04G25G02
 -16180475.11547 -12493200.57945  21533048.5234                   21533048.9614
 -12848236.62347  -9967653.54045  21921477.6484                   21921478.1844
 -20972699.750 8 -16327122.636 7  20758436.789
  -1411034.839 5  -1054817.630 5  24507747.102
  -1990367.066 7  -1534883.480 6  24396188.742
 -21116737.068 8 -16436966.193 8  20600625.156
  -7246426.48847  -5597439.73344  23322333.8674                   23322335.3554
 -12397257.158 7  -9646538.024 7  22298717.820
 -21266551.20048 -16524147.28446  20834700.0864                   20834698.1094
 11  8 18  1 24 30.0000000  0  8G10G30G12G29G05G04G25G02
 -16117820.55147 -12444378.83045  21544971.0634                   21544971.4304
 -12895887.60147 -10004784.14245  21912409.7734                   21912410.7424
 -20971502.334 8 -16326189.592 7  20758664.750
  -2071889.204 6  -1598407.183 5  24380674.852
 -21160659.971 8 -16471191.789 8  20592267.469
  -7163740.92847  -5533009.42644  23338067.8834                   23338069.7464
 -12459665.875 8  -9695168.177 7  22286841.938
 -21242966.81848 -16505769.84446  20839187.6644                   20839185.6414
 11  8 18  1 25  0.0000000  0  8G10G30G12G29G05G04G25G02
 -16054661.98148 -12395164.35145  21556989.6174                   21556990.2854
 -12942978.07347 -10041478.00745  21903449.1094                   21903448.9574
 -20969718.686 8 -16324799.734 7  20759004.305
  -2153472.096 6  -1661978.222 6  24365150.352
 -21204039.646 8 -16504994.097 8  20584012.148
  -7081067.32947  -5468588.45144  23353800.2974                   23353801.7544
 -12521606.929 8  -9743433.912 7  22275055.078
 -21219207.95848 -16487256.44846  20843708.6884                   20843707.2344
 11  8 18  1 25 30.0000000  0  8G10G30G12G29G05G04G25G02
 -15991003.23047 -12345560.12145  21569104.1094                   21569103.7504
 -12989507.85148 -10077734.94645  21894594.3284                   21894594.9104
 -20967350.285 8 -16322954.231 7  20759454.805
  -2235116.455 6  -1725597.147 6  24349614.414
 -21246876.343 8 -16538373.306 8  20575860.570
  -6998408.02747  -5404178.60844  23369530.0474                   23369531.8444
 -12583079.601 8  -9791334.677 7  22263356.953
 -21195277.09348 -16468609.01346  20848262.8834                   20848260.7304
 11  8 18  1 26  0.0000000  0  8G10G30G12G29G05G04G25G02
 -15926844.74047 -12295566.48545  21581312.6024                   21581313.1134
 -13035473.67348 -10113552.45445  21885847.6724                   21885847.8874
 -20964395.056 8 -16320651.465 7  20760017.242
  -2316819.865 7  -1789262.071 6  24334066.586
 -21289167.010 8 -16571327.042 8  20567812.805
  -6915761.93446  -5339779.05744  23385256.7114                   23385258.9534
 -12644080.074 8  -9838867.474 7  22251748.500
 -21171172.74948 -16449826.40846  20852849.8754                   20852848.1564
 11  8 18  1 26 30.0000000  0  8G10G30G12G29G05G04G25G02
 -15862189.90047 -12245186.07545  21593616.1094                   21593616.7384
 -13080874.39047 -10148929.61845  21877207.7734                   21877207.9694
 -20960853.824 8 -16317892.073 7  20760691.297
  -2398582.075 6  -1852972.841 6  24318507.844
 -21330910.930 8 -16603854.736 8  20559869.086
  -6833130.74946  -5275391.10343  23400981.1334                   23400982.3834
 -12704606.746 8  -9886031.069 7  22240230.625
 -21146896.90748 -16430910.15246  20857469.3524                   20857467.5704
 11  8 18  1 27  0.0000000  0  8G10G30G12G29G05G04G25G02
 -15797041.81347 -12194421.31845  21606013.4454                   21606013.7664
 -13125709.26447 -10183865.87445  21868676.0474                   21868676.2304
 -20956727.443 8 -16314676.706 7  20761476.570
  -2480403.201 6  -1916729.513 6  24302937.609
 -21372107.498 8 -16635955.923 8  20552029.719
  -6750516.02646  -5211016.01043  23416700.9844                   23416703.6844
 -12764658.290 8  -9932824.444 7  22228803.445
 -21122451.30148 -16411861.62046  20862121.2114                   20862119.5354
 11  8 18  1 27 30.0000000  0  8G10G30G12G29G05G04G25G02
 -15731401.60547 -12143273.09545  21618504.2344                   21618505.1214
 -13169975.67447 -10218359.14345  21860252.4534                   21860252.8674
 -20952014.788 8 -16311004.506 7  20762373.266
  -2562281.292 6  -1980530.575 6  24287357.305
 -21412754.642 8 -16667628.990 8  20544294.789
  -6667917.40346  -5146653.43643  23432419.4534                   23432421.8204
 -12824231.489 8  -9979245.108 7  22217466.766
 -21097835.72748 -16392680.65146  20866805.1804                   20866803.6024
 11  8 18  1 28  0.0000000  0  8G10G30G12G29G05G04G25G02
 -15665272.40047 -12091743.84145  21631088.0164                   21631088.8914
 -13213672.59248 -10252408.66545  21851937.0634                   21851937.6604
 -20946716.405 8 -16306875.899 7  20763381.477
  -2644216.071 6  -2044375.760 6  24271764.172
 -21452851.692 8 -16698873.410 8  20536664.781
  -6585336.30246  -5082304.54043  23448134.9224                   23448136.0664
 -12883324.771 8 -10025291.776 7  22206221.664
 -21073051.66448 -16373368.38146  20871521.6254                   20871519.4844
 11  8 18  1 28 30.0000000  0  8G10G30G12G29G05G04G25G02
 -15598657.42347 -12039836.05645  21643764.6564                   21643765.2854
 -13256799.41647 -10286013.96845  21843730.4844                   21843731.4344
 -20940833.334 8 -16302291.683 8  20764501.219
  -2726207.552 6  -2108265.215 6  24256161.711
 -21492398.240 8 -16729688.873 8  20529139.156
  -6502774.37146  -5017970.58243  23463845.6484                   23463847.1484
 -12941936.936 8 -10070963.546 7  22195068.398
 -21048101.07848 -16353926.36046  20876269.4224                   20876267.3874
 11  8 18  1 29  0.0000000  0  8G10G30G12G29G05G04G25G02
 -15531559.39548 -11987551.85845  21656533.1564                   21656533.5124
 -13299354.72947 -10319173.91845  21835632.7034                   21835633.9654
 -20934365.697 8 -16297251.966 7  20765731.453
  -2808255.335 6  -2172198.478 6  24240549.727
 -21531393.301 8 -16760074.603 8  20521718.727
  -6420232.62146  -4953652.34343  23479552.7814                   23479554.6524
 -13000066.101 8 -10116258.963 7  22184006.578
 -21022985.01848 -16334355.39546  20881048.8834                   20881047.1024
 11  8 18  1 29 30.0000000  0  8G10G30G12G29G05G04G25G02
 -15463979.08548 -11934891.87345  21669392.7814                   21669393.7464
 -13341335.54348 -10351886.22845  21827643.8054                   21827644.5394
 -20927312.054 8 -16291755.610 7  20767073.977
  -2890357.194 7  -2236173.888 6  24224926.039
 -21569834.265 8 -16790028.574 8  20514403.539
  -6337710.31546  -4889349.30744  23495256.5554                   23495258.5594
 -13057708.664 8 -10161175.219 7  22173037.453
 -20997702.54748 -16314654.74546  20885859.7894                   20885858.2154
 11  8 18  1 30  0.0000000  0  8G10G30G12G29G05G04G25G02
 -15395920.55148 -11881859.23145  21682344.4064                   21682344.4414
 -13382742.17147 -10384151.11245  21819764.0634                   21819765.4734
 -20919674.336 8 -16285804.140 7  20768527.445
  -2972513.834 7  -2300192.007 6  24209292.359
 -21607721.612 8 -16819551.151 8  20507193.727
  -6255210.06947  -4825063.42443  23510956.3134                   23510957.7074
 -13114864.308 8 -10205712.050 7  22162161.172
 -20972256.30248 -16294826.48546  20890701.7974                   20890700.6684
 11  8 18  1 30 30.0000000  0  8G10G30G12G29G05G04G25G02
 -15327385.17748 -11828455.03645  21695386.0704                   21695386.6094
 -13423571.65948 -10415966.29645  21811994.9384                   21811995.5124
 -20911451.111 8 -16279396.433 7  20770092.148
  -3054722.955 7  -2364250.985 6  24193648.016
 -21645052.968 8 -16848640.491 8  20500090.094
  -6172731.03947  -4760794.06843  23526651.4384                   23526652.1294
 -13171529.481 8 -10249866.703 7  22151378.211
 -20946645.87048 -16274870.29046  20895575.7194                   20895574.1484
 11  8 18  1 31  0.0000000  0  8G10G30G12G29G05G04G25G02
 -15258376.20948 -11774681.81345  21708517.7734                   21708518.1334
 -13463823.37747 -10447331.26345  21804335.1484                   21804335.7854
 -20902643.495 8 -16272533.355 7  20771768.250
  -3136984.576 6  -2428350.913 6  24177993.711
 -21681827.957 8 -16877296.299 8  20493091.711
  -6090274.80447  -4696542.49744  23542342.4454                   23542343.7664
 -13227703.018 8 -10293638.277 7  22140688.914
 -20920873.12348 -16254787.60846  20900480.2974                   20900478.2504
 11  8 18  1 31 30.0000000  0  8G10G30G12G29G05G04G25G02
 -15188895.87947 -11720541.28845  21721739.4614                   21721740.1214
 -13503496.10548 -10478245.07845  21796785.5164                   21796786.4654
 -20893251.647 8 -16265215.028 7  20773555.414
  -3219297.892 6  -2492491.134 6  24162330.117
 -21718045.252 8 -16905517.538 8  20486199.531
  -6007842.17247  -4632309.29344  23558028.8444                   23558030.1374
 -13283383.032 8 -10337025.277 7  22130093.016
 -20894938.94248 -16234579.13846  20905415.1954                   20905413.2384
 11  8 18  1 32  0.0000000  0  8G10G30G12G29G05G04G25G02
 -15118945.86648 -11666034.78845  21735050.9384                   21735051.2154
 -13542587.63948 -10508706.00445  21789346.7344                   21789347.4734
 -20883275.070 8 -16257441.055 7  20775453.609
  -3301661.081 6  -2556670.195 6  24146656.945
 -21753703.701 8 -16933303.316 8  20479414.313
  -5925433.20247  -4568094.56844  23573710.9774                   23573712.1024
 -13338566.683 8 -10380025.515 7  22119591.875
 -20868843.18648 -16214244.76546  20910381.2344                   20910379.0474
 11  8 18  1 32 30.0000000  0  8G10G30G12G29G05G04G25G02
 -15048529.59648 -11611164.95045  21748450.7114                   21748450.7704
 -13581097.14848 -10538713.40545  21782018.5164                   21782019.3164
 -20872714.830 8 -16249212.306 7  20777463.250
  -3384074.159 6  -2620888.157 6  24130974.094
 -21788802.536 8 -16960653.017 8  20472735.273
  -5843048.96347  -4503899.05344  23589388.2894                   23589389.3484
 -13393252.534 8 -10422637.841 7  22109185.414
 -20842587.46748 -16193785.74946  20915377.4224                   20915375.6524
 11  8 18  1 33  0.0000000  0  8G10G30G12G29G05G04G25G02
 -14977649.38748 -11555933.62145  21761938.8524                   21761938.8134
 -13619023.29647 -10568266.24245  21774801.5084                   21774802.3324
 -20861570.943 8 -16240528.747 7  20779584.203
  -3466536.026 6  -2685144.050 6  24115281.539
 -21823340.745 8 -16987565.878 8  20466162.750
  -5760690.27547  -4439723.46244  23605060.2274                   23605062.2384
 -13447438.689 8 -10464860.806 7  22098874.250
 -20816172.34948 -16173202.52746  20920403.9454                   20920402.4104
 11  8 18  1 33 30.0000000  0  8G10G30G12G29G05G04G25G02
 -14906307.33647 -11500342.39845  21775514.4304                   21775514.8134
 -13656364.33948 -10597363.14745  21767695.5944                   21767696.7464
 -20849843.349 8 -16231390.359 8  20781815.617
  -3549045.229 6  -2749436.882 6  24099580.070
 -21857317.100 8 -17014040.928 8  20459697.125
  -5678357.12047  -4375567.77943  23620727.3754                   23620729.5394
 -13501122.609 8 -10506692.441 7  22088658.781
 -20789598.42248 -16152495.55746  20925460.7814                   20925458.9734
 11  8 18  1 34  0.0000000  0  8G10G30G12G29G05G04G25G02
 -14834507.43047 -11444394.42745  21789177.4534                   21789178.0434
 -13693120.18647 -10626004.05945  21760701.3444                   21760702.7274
 -20837533.648 8 -16221798.386 7  20784158.133
  -3631602.259 6  -2813766.976 6  24083870.914
 -21890731.582 8 -17040078.157 8  20453338.367
  -5596051.64346  -4311433.62044  23636389.3594                   23636391.5354
 -13554303.729 8 -10548132.263 7  22078538.852
 -20762867.80148 -16131666.48446  20930547.4844                   20930545.1024
 11  8 18  1 34 30.0000000  0  8G10G30G12G29G05G04G25G02
 -14762252.06647 -11388091.55845  21802927.1564                   21802927.6134
 -13729289.99748 -10654188.32345  21753818.4144                   21753819.1414
 -20824642.160 8 -16211753.074 7  20786611.164
  -3714206.306 6  -2878133.744 6  24068151.914
 -21923583.793 8 -17065677.247 8  20447086.633
  -5513774.85446  -4247321.89243  23652046.3984                   23652048.4734
 -13606980.421 8 -10589179.029 7  22068514.516
 -20735981.57448 -16110716.15146  20935663.8204                   20935661.8554
 11  8 18  1 35  0.0000000  0  8G10G30G12G29G05G04G25G02
 -14689543.16447 -11331435.27345  21816763.3984                   21816763.8794
 -13764871.41647 -10681914.09545  21747047.5234                   21747048.0664
 -20811168.912 8 -16201254.433 7  20789174.984
  -3796855.468 6  -2942535.657 6  24052424.258
 -21955871.801 7 -17090836.708 8  20440942.469
  -5431526.28346  -4183232.07743  23667697.2114                   23667700.2974
 -13659149.729 8 -10629830.437 7  22058586.773
 -20708939.55748 -16089644.43546  20940809.7734                   20940807.5824
 11  8 18  1 35 30.0000000  0  8G10G30G12G29G05G04G25G02
 -14616384.08847 -11274428.20245  21830684.8134                   21830685.9654
 -13799864.25747 -10709181.23145  21740388.4454                   21740389.0984
 -20797114.729 8 -16190303.131 7  20791849.695
  -3879549.610 6  -3006972.605 6  24036688.109
 -21987595.467 8 -17115556.419 8  20434905.805
  -5349307.46146  -4119165.49643  23683343.6094                   23683345.6054
 -13710810.745 8 -10670085.778 7  22048756.328
 -20681743.44148 -16068452.65146  20945984.8674                   20945983.1134
 11  8 18  1 36  0.0000000  0  8G10G30G12G29G05G04G25G02
 -14542777.10847 -11217072.13845  21844691.9614                   21844692.3754
 -13834267.06747 -10735988.61045  21733842.4844                   21733842.4654
 -20782480.070 8 -16178899.509 7  20794634.805
  -3962287.741 6  -3071443.850 6  24020944.008
 -22018753.959 7 -17139835.739 8  20428976.891
  -5267118.99646  -4055122.52243  23698983.4144                   23698985.3054
 -13761961.387 8 -10709943.434 7  22039022.766
 -20654393.98147 -16047141.37146  20951189.1564                   20951187.2894
 11  8 18  1 36 30.0000000  0  8G10G30G12G29G05G04G25G02
 -14468725.89847 -11159369.87745  21858783.4774                   21858783.9304
 -13868079.50347 -10762335.95345  21727407.7734                   21727407.8834
 -20767266.076 8 -16167044.455 7  20797529.641
  -4045069.724 6  -3135949.273 6  24005190.664
 -22049347.421 7 -17163674.772 8  20423155.016
  -5184962.36546  -3991104.35243  23714616.8914                   23714619.1374
 -13812600.630 8 -10749402.581 7  22029386.008
 -20626892.72248 -16025711.81846  20956422.8134                   20956420.8794
 11  8 18  1 37  0.0000000  0  8G10G30G12G29G05G04G25G02
 -14394231.01248 -11101321.91645  21872959.5314                   21872960.0274
 -13901298.62647 -10788220.98445  21721086.0084                   21721086.9414
 -20751471.466 8 -16154736.969 7  20800534.977
  -4127892.636 7  -3200486.597 6  23989429.156
 -22079372.836 8 -17187071.179 8  20417441.250
  -5102836.10546  -3927109.83143  23730245.1954                   23730246.9344
 -13862724.791 8 -10788460.362 7  22019848.461
 -20599238.64348 -16004163.17346  20961685.1884                   20961682.9844
 11  8 18  1 37 30.0000000  0  8G10G30G12G29G05G04G25G02
 -14319295.91047 -11042930.92045  21887218.7584                   21887219.3954
 -13933924.01747 -10813643.35445  21714877.7114                   21714877.7704
 -20735097.253 8 -16141977.845 7  20803651.398
  -4210756.281 7  -3265055.620 6  23973661.141
 -22108830.398 7 -17210025.103 8  20411836.023
  -5020741.62246  -3863140.10843  23745866.8204                   23745869.1724
 -13912332.767 8 -10827115.929 7  22010407.930
 -20571433.19148 -15982496.56746  20966975.8914                   20966974.2074
 11  8 18  1 38  0.0000000  0  8G10G30G12G29G05G04G25G02
 -14243924.55147 -10984199.98845  21901561.9774                   21901562.4024
 -13965956.18747 -10838603.46845  21708782.2034                   21708782.4884
 -20718145.792 8 -16128768.928 7  20806876.922
  -4293661.240 7  -3329656.824 6  23957884.695
 -22137720.940 8 -17232537.176 8  20406338.219
  -4938681.38847  -3799197.05543  23761483.7034                   23761484.5474
 -13961424.356 8 -10865369.108 7  22001066.102
 -20543478.71948 -15960713.85146  20972295.5634                   20972294.1374
 11  8 18  1 38 30.0000000  0  8G10G30G12G29G05G04G25G02
 -14168118.42347 -10925130.28845  21915987.3364                   21915987.6604
 -13997392.77148 -10863099.49945  21702800.0784                   21702800.5784
 -20700616.224 8 -16115109.532 7  20810212.641
  -4376605.381 7  -3394288.560 6  23942100.953
 -22166042.330 8 -17254605.766 8  20400948.477
  -4856654.47347  -3735279.92943  23777091.9224                   23777093.6484
 -14009996.521 8 -10903217.531 7  21991823.094
 -20515374.93548 -15938814.79346  20977643.6024                   20977641.6254
 11  8 18  1 39  0.0000000  0  8G10G30G12G29G05G04G25G02
 -14091879.87647 -10865723.61945  21930494.7034                   21930495.4694
 -14028232.18948 -10887130.20345  21696931.9694                   21696931.9144
 -20682508.968 8 -16100999.988 7  20813658.406
  -4459586.945 6  -3458949.480 6  23926310.938
 -22193793.287 8 -17276229.861 8  20395667.664
  -4774660.92447  -3671388.84443  23792695.1954                   23792696.9574
 -14058046.908 8 -10940659.381 7  21982679.664
 -20487121.83248 -15916799.37846  20983019.8674                   20983017.7194
 11  8 18  1 39 30.0000000  0  8G10G30G12G29G05G04G25G02
 -14015212.84947 -10805983.08045  21945084.2194                   21945085.0784
 -14058475.02047 -10910696.03345  21691176.5864                   21691176.8594
 -20663825.919 8 -16086441.775 7  20817213.711
  -4542606.452 6  -3523639.947 6  23910512.422
 -22220974.979 8 -17297410.378 8  20390495.242
  -4692702.91646  -3607525.43343  23808291.2344                   23808292.7894
 -14105575.364 8 -10977694.522 7  21973634.930
 -20458721.79948 -15894669.46746  20988424.3524                   20988422.6914
 11  8 18  1 40  0.0000000  0  8G10G30G12G29G05G04G25G02
 -13938119.48947 -10745910.34145  21959754.7974                   21959755.4924
 -14088119.96148 -10933795.98445  21685535.1954                   21685535.8484
 -20644566.728 8 -16071434.610 7  20820878.547
  -4625662.605 6  -3588358.998 6  23894707.234
 -22247586.004 8 -17318146.209 8  20385431.352
  -4610780.62547  -3543689.87743  23823881.1954                   23823881.7304
 -14152579.865 8 -11014321.378 7  21964690.391
 -20430175.17748 -15872425.34246  20993856.1174                   20993854.0904
 11  8 18  1 40 30.0000000  0  8G10G30G12G29G05G04G25G02
 -13860601.72247 -10685506.87945  21974505.6724                   21974506.2584
 -14117165.00048 -10956428.46845  21680008.1334                   21680008.2544
 -20624732.112 8 -16055979.077 7  20824652.852
  -4708752.943 6  -3653104.670 6  23878896.063
 -22273625.150 8 -17338436.429 8  20380476.070
  -4528893.55747  -3479881.76543  23839463.0234                   23839464.5594
 -14199057.664 8 -11050537.836 7  21955846.008
 -20401481.92848 -15850066.95546  20999316.7584                   20999314.8054
 11  8 18  1 41  0.0000000  0  8G10G30G12G29G05G04G25G02
 -13782664.02347 -10624776.19245  21989336.5864                   21989337.1884
 -14145611.07747 -10978594.23245  21674594.9384                   21674595.4494
 -20604324.371 8 -16040076.951 7  20828536.656
  -4791878.841 6  -3717878.037 6  23863076.695
 -22299093.450 8 -17358281.823 8  20375629.719
  -4447044.13847  -3416102.98643  23855038.6644                   23855039.8404
 -14245008.953 8 -11086344.007 7  21947101.531
 -20372644.35448 -15827596.09746  21004804.6724                   21004802.4494
 11  8 18  1 41 30.0000000  0  8G10G30G12G29G05G04G25G02
 -13704307.14147 -10563718.87745  22004247.3444                   22004247.7384
 -14173455.42947 -11000291.12945  21669296.2894                   21669296.6724
 -20583342.131 8 -16023727.153 7  20832529.242
  -4875036.821 7  -3782676.429 6  23847253.656
 -22323988.555 8 -17377680.579 8  20370892.234
  -4365231.03747  -3352352.54943  23870607.5314                   23870608.4024
 -14290430.211 8 -11121737.162 7  21938458.266
 -20343661.78348 -15805012.27546  21010319.6174                   21010317.8594
 11  8 18  1 42  0.0000000  0  8G10G30G12G29G05G04G25G02
 -13625535.11147 -10502338.07145  22019237.6024                   22019237.5044
 -14200698.51447 -11021519.49545  21664112.3754                   21664112.9384
 -20561786.729 8 -16006930.750 7  20836631.164
  -4958227.354 7  -3847500.183 6  23831421.563
 -22348311.144 8 -17396633.213 8  20366263.438
  -4283456.32646  -3288631.99343  23886168.0784                   23886170.1454
 -14335321.187 8 -11156717.112 7  21929915.734
 -20314535.96448 -15782316.82446  21015862.2344                   21015859.8634
 11  8 18  1 42 30.0000000  0  8G10G30G12G29G05G04G25G02
 -13546350.98747 -10440636.14145  22034305.9144                   22034305.5864
 -14227339.83847 -11042278.95745  21659042.1804                   21659043.3914
 -20539660.212 8 -15989689.306 7  20840841.719
  -5041449.667 6  -3912348.708 6  23815585.273
 -22372061.032 8 -17415139.594 8  20361744.836
  -4201720.50346  -3224941.79943  23901721.9454                   23901723.6524
 -14379680.562 8 -11191282.837 7  21921474.680
 -20285267.85348 -15759510.49246  21021431.5864                   21021429.7384
 11  8 18  1 43  0.0000000  0  8G10G30G12G29G05G04G25G02
 -13466756.52347 -10378614.47545  22049451.9614                   22049452.0234
 -14253377.73848 -11062568.21545  21654087.3594                   21654088.7234
 -20516962.821 8 -15972003.037 7  20845161.000
  -5124702.140 6  -3977220.797 6  23799743.266
 -22395236.932 8 -17433198.712 8  20357333.984
  -4120023.60946  -3161281.92043  23917268.5944                   23917270.1994
 -14423505.898 8 -11225432.442 7  21913134.695
 -20255857.58148 -15736593.38046  21027028.1954                   21027026.0004
 11  8 18  1 43 30.0000000  0  8G10G30G12G29G05G04G25G02
 -13386754.34247 -10316275.10145  22064675.6564                   22064676.2974
 -14278811.21348 -11082386.50145  21649247.8754                   21649248.3554
 -20493694.771 8 -15953872.087 7  20849588.836
  -5207983.308 6  -4042115.165 6  23783894.492
 -22417838.193 8 -17450810.048 8  20353033.313
  -4038365.71446  -3097652.41943  23932807.6644                   23932809.6804
 -14466795.425 8 -11259164.516 7  21904897.094
 -20226305.83348 -15713566.04346  21032651.6024                   21032649.8634
 11  8 18  1 44  0.0000000  0  8G10G30G12G29G05G04G25G02
 -13306347.85747 -10253620.67845  22079976.2894                   22079977.0474
 -14303640.35748 -11101733.88045  21644522.7344                   21644524.1094
 -20469857.730 8 -15935297.777 7  20854124.609
  -5291292.903 6  -4107031.726 6  23768041.898
 -22439865.401 8 -17467974.082 8  20348841.648
  -3956748.36446  -3034054.54243  23948338.4924                   23948340.6764
 -14509548.455 8 -11292478.553 7  21896761.492
 -20196613.80748 -15690429.39046  21038302.0554                   21038299.6024
 11  8 18  1 44 30.0000000  0  8G10G30G12G29G05G04G25G02
 -13225540.06547 -10190653.58545  22095353.3834                   22095354.3014
 -14327864.51248 -11120609.82545  21639913.3444                   21639913.9614
 -20445452.296 8 -15916280.555 7  20858768.883
  -5374629.771 7  -4171969.554 6  23752183.992
 -22461318.148 8 -17484690.473 8  20344759.125
  -3875171.90746  -2970488.50543  23963862.1174                   23963863.8834
 -14551763.592 8 -11325373.434 7  21888728.289
 -20166782.32348 -15667184.07346  21043978.4144                   21043976.6454
 11  8 18  1 45  0.0000000  0  8G10G30G12G29G05G04G25G02
 -13144333.55147 -10127375.77945  22110806.8594                   22110807.4454
 -14351482.75047 -11139013.63845  21635419.1024                   21635419.3484
 -20420479.728 8 -15896821.404 7  20863521.047
  -5457992.511 7  -4236927.506 6  23736320.688
 -22482195.398 7 -17500958.431 8  20340786.367
  -3793636.67746  -2906954.62143  23979377.8364                   23979379.9734
 -14593439.006 8 -11357847.764 7  21880797.617
 -20136812.18048 -15643830.70346  21049681.8594                   21049679.8164
 11  8 18  1 45 30.0000000  0  8G10G30G12G29G05G04G25G02
 -13062731.61947 -10063789.85745  22126335.7344                   22126335.5664
 -14374494.91148 -11156945.17945  21631039.6334                   21631040.7344
 -20394941.227 8 -15876921.281 7  20868380.953
  -5541380.887 7  -4301905.437 6  23720452.031
 -22502497.714 8 -17516778.391 8  20336922.867
  -3712143.66146  -2843453.58643  23994885.6884                   23994887.1644
 -14634573.808 8 -11389900.841 7  21872969.406
 -20106704.54948 -15620370.19846  21055411.2274                   21055409.4694
 11  8 18  1 46  0.0000000  0  8G10G30G12G29G05G04G25G02
 -12980736.01947  -9999897.15145  22141938.0004                   22141939.0984
 -14396899.58747 -11174403.35945  21626776.7664                   21626777.2854
 -20368836.941 8 -15856580.275 7  20873348.172
  -5624792.565 7  -4366901.488 6  23704578.578
 -22522223.776 8 -17532149.324 8  20333169.570
  -3630692.50946  -2779985.20543  24010385.0784                   24010386.6684
 -14675165.680 8 -11421530.874 7  21865245.313
 -20076459.05548 -15596802.26746  21061166.4454                   21061164.8014
 11  8 18  1 46 30.0000000  0  8G10G30G12G29G05G04G25G02
 -12898350.24447  -9935700.45745  22157615.6024                   22157616.7934
 -14418696.84848 -11191388.23345  21622628.4694                   21622628.7894
 -20342168.536 8 -15835799.701 7  20878423.023
  -5708227.050 7  -4431915.347 6  23688702.156
 -22541374.426 8 -17547071.881 8  20329525.008
  -3549284.48946  -2716550.39843  24025877.2274                   24025878.8874
 -14715214.012 8 -11452737.359 7  21857624.727
 -20046077.21048 -15573128.08546  21066947.8914                   21066945.6174
 11  8 18  1 47  0.0000000  0  8G10G30G12G29G05G04G25G02
 -12815576.55247  -9871201.45045  22173366.6564                   22173367.8284
 -14439885.64848 -11207898.98845  21618596.6094                   21618597.1564
 -20314936.657 7 -15814580.054 7  20883605.203
  -5791683.041 7  -4496945.937 6  23672820.531
 -22559948.418 8 -17561545.089 8  20325990.320
  -3467919.67546  -2653149.25643  24041359.8834                   24041362.1024
 -14754716.894 8 -11483518.800 7  21850107.172
 -20015559.53647 -15549348.06946  21072755.3364                   21072753.2234
 11  8 18  1 47 30.0000000  0  8G10G30G12G29G05G04G25G02
 -12732418.23147  -9806402.74145  22189191.8134                   22189192.2544
 -14460465.84748 -11223935.50045  21614680.2664                   21614680.6644
 -20287142.631 8 -15792922.375 7  20888893.992
  -5875159.442 7  -4561992.496 6  23656935.953
 -22577946.005 8 -17575569.165 8  20322565.516
  -3386598.61146  -2589782.22943  24056834.7344                   24056836.7114
 -14793673.267 8 -11513874.397 7  21842694.070
 -19984906.60548 -15525462.66646  21078588.5164                   21078586.2304
 11  8 18  1 48  0.0000000  0  8G10G30G12G29G05G04G25G02
 -12648879.55047  -9741307.67245  22205088.5394                   22205089.4184
 -14480438.31548 -11239498.45345  21610879.4694                   21610879.8324
 -20258789.060 7 -15770828.682 7  20894289.633
  -5958656.539 7  -4627055.169 6  23641047.297
 -22595368.786 8 -17589145.329 8  20319250.039
  -3305323.27146  -2526450.78243  24072300.6804                   24072303.0204
 -14832083.247 8 -11543804.243 7  21835384.734
 -19954120.91647 -15501473.81246  21084446.7194                   21084444.5164
 11  8 18  1 48 30.0000000  0  8G10G30G12G29G05G04G25G02
 -12564961.27047  -9675916.76745  22221058.0004                   22221058.9694
 -14499800.42248 -11254585.80045  21607195.1414                   21607195.9924
 -20229874.895 8 -15748298.154 7  20899792.070
  -6042171.125 7  -4692131.437 6  23625154.648
 -22612214.143 8 -17602271.565 8  20316044.477
  -3224092.03946  -2463153.74443  24087759.1564                   24087761.4144
 -14869943.317 8 -11573305.583 7  21828180.352
 -19923201.01048 -15477380.37546  21090330.8674                   21090328.6334
 11  8 18  1 49  0.0000000  0  8G10G30G12G29G05G04G25G02
 -12480666.45347  -9610232.47945  22237098.7034                   22237099.0984
 -14518552.40648 -11269197.73745  21603626.5704                   21603627.2584
 -20200401.803 7 -15725332.110 7  20905400.313
  -6125702.954 7  -4757221.133 6  23609258.648
 -22628482.334 8 -17614948.048 8  20312948.742
  -3142906.02446  -2399891.89743  24103208.2114                   24103210.3554
 -14907252.887 8 -11602377.965 7  21821080.992
 -19892148.16947 -15453183.35146  21096239.5784                   21096237.7194
 11  8 18  1 49 30.0000000  0  8G10G30G12G29G05G04G25G02
 -12395997.74347  -9544256.85345  22253210.5004                   22253211.6174
 -14536693.59547 -11283333.71645  21600174.6954                   21600174.8404
 -20170370.895 8 -15701931.389 7  20911114.945
  -6209250.150 7  -4822322.810 6  23593360.852
 -22644173.179 8 -17627174.661 8  20309962.961
  -3061765.54946  -2336665.52743  24118648.3984                   24118650.7194
 -14944010.463 8 -11631020.224 7  21814085.883
 -19860962.79748 -15428883.04546  21102174.1884                   21102171.9224
 11  8 18  1 50  0.0000000  0  8G10G30G12G29G05G04G25G02
 -12310958.12247  -9477992.21544  22269393.1254                   22269393.7274
 -14554223.41848 -11296993.31245  21596838.5004                   21596839.2504
 -20139783.320 8 -15678096.919 7  20916935.641
  -6292811.391 7  -4887435.421 6  23577459.750
 -22659286.591 8 -17638951.327 8  20307086.844
  -2980670.89146  -2273474.89243  24134079.7114                   24134081.9884
 -14980214.629 8 -11659231.251 7  21807196.398
 -19829645.41748 -15404479.88246  21108133.5004                   21108131.0824
 11  8 18  1 50 30.0000000  0  8G10G30G12G29G05G04G25G02
 -12225552.30647  -9411442.21745  22285644.5164                   22285645.8094
 -14571143.56647 -11310177.84645  21593618.6954                   21593618.9924
 -20108641.626 8 -15653830.674 7  20922861.664
  -6376387.793 7  -4952559.824 6  23561554.984
 -22673824.332 8 -17650279.418 8  20304320.594
  -2899624.21146  -2210321.60143  24149502.9384                   24149504.8754
 -15015866.089 8 -11687011.591 7  21800412.063
 -19798199.06448 -15379976.22046  21114117.3754                   21114115.4774
 11  8 18  1 51  0.0000000  0  8G10G30G12G29G05G04G25G02
 -12139780.85447  -9344607.32344  22301966.8364                   22301967.7854
 -14587451.51447 -11322885.33345  21590515.4844                   21590516.1724
 -20076945.381 8 -15629132.302 7  20928893.641
  -6459975.677 7  -5017693.183 6  23545648.266
 -22687784.228 8 -17661157.224 8  20301663.648
  -2818623.86646  -2147204.39543  24164916.2034                   24164918.3404
 -15050961.557 8 -11714358.708 7  21793733.594
 -19766621.67048 -15355370.44046  21120126.5394                   21120124.6254
 11  8 18  1 51 30.0000000  0  8G10G30G12G29G05G04G25G02
 -12053646.97747  -9277490.00044  22318357.1174                   22318358.3204
 -14603147.41248 -11335115.90945  21587528.5554                   21587529.0634
 -20044696.263 8 -15604003.117 7  20935030.242
  -6543574.335 6  -5082834.913 6  23529739.930
 -22701166.876 8 -17671585.232 8  20299117.141
  -2737670.95946  -2084124.20043  24180321.2584                   24180323.3164
 -15085500.390 8 -11741272.075 7  21787160.992
 -19734914.70848 -15330663.70946  21126159.8204                   21126157.6954
 11  8 18  1 52  0.0000000  0  8G10G30G12G29G05G04G25G02
 -11967154.17247  -9210093.01444  22334816.4844                   22334817.0434
 -14618231.44648 -11346869.70045  21584658.2424                   21584658.5044
 -20011896.392 8 -15578444.771 7  20941271.445
  -6627183.111 6  -5147984.529 6  23513829.961
 -22713972.713 8 -17681563.783 8  20296680.297
  -2656766.21846  -2021081.51943  24195717.6414                   24195719.1764
 -15119481.734 8 -11767751.030 7  21780694.906
 -19703079.04448 -15305856.68046  21132218.1414                   21132216.2114
 11  8 18  1 52 30.0000000  0  8G10G30G12G29G05G04G25G02
 -11880305.43147  -9142418.65345  22351343.6334                   22351343.7894
 -14632703.36148 -11358146.50745  21581904.3984                   21581904.4064
 -19978546.682 7 -15552457.990 7  20947617.844
  -6710800.944 7  -5213141.221 6  23497917.953
 -22726201.703 8 -17691092.845 8  20294353.313
  -2575910.01346  -1958076.64743  24211103.6094                   24211105.5744
 -15152904.535 8 -11793794.760 7  21774334.609
 -19671115.38447 -15280949.91246  21138300.8364                   21138298.8834
 11  8 18  1 53  0.0000000  0  8G10G30G12G29G05G04G25G02
 -11793103.45347  -9074469.05044  22367937.3284                   22367938.0554
 -14646562.98848 -11368946.20645  21579266.8054                   21579267.0984
 -19944648.320 8 -15526043.685 7  20954068.523
  -6794426.289 7  -5278303.818 6  23482003.727
 -22737853.892 8 -17700172.447 8  20292135.805
  -2495102.70546  -1895109.90143  24226480.1414                   24226482.0984
 -15185767.696 8 -11819402.420 7  21768080.875
 -19639025.02747 -15255944.42846  21144407.2894                   21144405.1334
 11  8 18  1 53 30.0000000  0  8G10G30G12G29G05G04G25G02
 -11705550.41347  -9006245.92144  22384597.7504                   22384599.2504
 -14659809.44448 -11379268.12245  21576745.8284                   21576746.5904
 -19910202.367 8 -15499202.685 7  20960623.273
  -6878057.249 7  -5343470.750 6  23466089.953
 -22748928.506 8 -17708801.987 8  20290028.188
  -2414344.07646  -1832181.13543  24241848.9614                   24241850.1604
 -15218069.459 8 -11844572.621 7  21761934.164
 -19606807.21048 -15230839.62746  21150537.8914                   21150535.5274
 11  8 18  1 54  0.0000000  0  8G10G30G12G29G05G04G25G02
 -11617650.32847  -8937752.34444  22401325.5474                   22401325.3554
 -14672443.70648 -11389112.99145  21574341.7734                   21574342.5394
 -19875211.269 8 -15471936.905 7  20967282.086
  -6961693.628 7  -5408641.901 6  23450174.883
 -22759426.866 8 -17716982.505 8  20288030.406
  -2333635.52646  -1769291.32543  24257206.9844                   24257208.7894
 -15249809.885 8 -11869305.411 7  21755894.070
 -19574463.84148 -15205636.99046  21156692.7894                   21156690.7734
 11  8 18  1 54 30.0000000  0  8G10G30G12G29G05G04G25G02
 -11529405.53147  -8868990.15244  22418117.3594                   22418117.6334
 -14684465.27248 -11398480.43945  21572054.0164                   21572054.8204
 -19839675.455 8 -15444246.676 7  20974044.375
  -7045334.027 7  -5473816.201 6  23434258.445
 -22769348.931 8 -17724713.965 8  20286142.406
  -2252977.32346  -1706440.76043  24272556.1804                   24272557.3014
 -15280987.580 8 -11893599.714 7  21749960.969
 -19541995.27447 -15180336.79146  21162871.5164                   21162869.4304
 11  8 18  1 55  0.0000000  0  8G10G30G12G29G05G04G25G02
 -11440819.41847  -8799962.00044  22434974.6484                   22434975.0744
 -14695874.24448 -11407370.54045  21569882.8674                   21569883.7734
 -19803597.208 8 -15416133.758 7  20980909.688
  -7128977.068 7  -5538992.554 6  23418341.313
 -22778695.176 8 -17731996.732 8  20284363.805
  -2172369.78546  -1643629.70443  24287894.8834                   24287896.3834
 -15311601.761 8 -11917454.914 7  21744135.539
 -19509402.33348 -15154939.68146  21169073.6414                   21169071.1294
 11  8 18  1 55 30.0000000  0  9G10G30G12G26G29G05G04G25G02
 -11351893.63347  -8730669.16144  22451896.1564                   22451896.6954
 -14706669.47348 -11415782.39845  21567828.6094                   21567829.1294
 -19766976.892 8 -15387598.455 7  20987878.414
   -674676.410 6                  24822594.641
  -7212620.482 7  -5604169.189 6  23402424.766
 -22787464.514 8 -17738829.955 8  20282695.039
  -2091812.38246  -1580857.69643  24303224.7734                   24303225.3554
 -15341650.354 8 -11940869.392 7  21738416.836
 -19476684.69547 -15129445.40046  21175299.2664                   21175297.1804
 11  8 18  1 56  0.0000000  0  9G10G30G12G26G29G05G04G25G02
 -11262629.00747  -8661112.30044  22468883.2034                   22468883.1214
 -14716849.23648 -11423714.67745  21565891.6954                   21565892.3794
 -19729813.876 8 -15358640.268 7  20994950.516
   -768910.16646   -502066.71742  24804662.8364                   24804666.2734
  -7296261.393 7  -5669343.860 6  23386508.477
 -22795655.494 8 -17745212.520 8  20281136.445
  -2011303.62946  -1518123.58643  24318544.5944                   24318546.3094
 -15371130.675 8 -11963841.071 7  21732807.172
 -19443841.03047 -15103852.92246  21181549.4224                   21181546.9414
 11  8 18  1 56 30.0000000  0  9G10G30G12G26G29G05G04G25G02
 -11173034.22647  -8591298.16644  22485932.2584                   22485932.8014
 -14726418.74648 -11431171.42945  21564070.5084                   21564070.6684
 -19692115.358 8 -15329264.816 7  21002124.305
   -863270.84046   -575594.35242  24786706.3594                   24786710.5274
  -7379903.709 7  -5734519.628 6  23370592.102
 -22803273.414 8 -17751148.538 8  20279686.859
  -1930849.09446  -1455431.74943  24333854.3674                   24333855.7384
 -15400047.053 8 -11986373.311 7  21727304.516
 -19410877.62647 -15078167.13246  21187822.3054                   21187820.1524
 11  8 18  1 57  0.0000000  0  9G10G30G12G26G29G05G04G25G02
 -11083108.85447  -8521226.44144  22503044.4534                   22503045.0234
 -14735374.95148 -11438150.27645  21562366.3134                   21562367.0434
 -19653879.709 8 -15299470.816 7  21009400.008
   -957752.33946   -649216.15143  24768727.6954                   24768730.8874
  -7463543.000 7  -5799693.067 6  23354675.406
 -22810315.689 8 -17756635.998 8  20278346.797
  -1850445.99546  -1392779.98943  24349153.9144                   24349156.6524
 -15428395.454 8 -12008462.980 7  21721910.570
 -19377791.41148 -15052385.65546  21194117.8204                   21194116.4304
 11  8 18  1 57 30.0000000  0  9G10G30G12G26G29G05G04G25G02
 -10992855.73847  -8450899.32644  22520218.5474                   22520219.8754
 -14743717.96548 -11444651.31145  21560778.6644                   21560778.9734
 -19615108.490 8 -15269259.482 7  21016778.102
  -1052352.06246   -722930.03543  24750725.5474                   24750728.2194
  -7547177.955 7  -5864863.119 6  23338760.438
 -22816782.876 8 -17761675.336 8  20277115.719
  -1770094.86846  -1330168.72843  24364445.3594                   24364446.4844
 -15456175.162 8 -12030109.503 7  21716623.547
 -19344583.15848 -15026509.08846  21200437.8984                   21200435.9104
 11  8 18  1 58  0.0000000  0  9G10G30G12G26G29G05G04G25G02
 -10902279.28047  -8380320.26744  22537455.2424                   22537455.7814
 -14751449.33648 -11450675.75545  21559307.4304                   21559307.7624
 -19575804.785 8 -15238633.233 7  21024257.359
  -1147068.36846   -796734.78043  24732701.4144                   24732705.0434
  -7630808.786 6  -5930029.951 6  23322845.969
 -22822676.442 8 -17766267.708 8  20275993.930
  -1689797.51846  -1267599.37043  24379724.5864                   24379727.2814
 -15483386.692 8 -12051313.294 7  21711446.211
 -19311255.05048 -15000539.12146  21206779.7424                   21206777.6414
 11  8 18  1 58 30.0000000  0  9G10G30G12G26G29G05G04G25G02
 -10811379.56647  -8309489.32844  22554753.1334                   22554753.3484
 -14758566.16948 -11456221.32245  21557953.1414                   21557953.6604
 -19535966.939 8 -15207590.751 7  21031838.313
  -1241895.45446   -870625.87843  24714656.3134                   24714659.3134
  -7714430.793 7  -5995189.925 6  23306933.070
 -22827993.741 8 -17770411.034 8  20274982.531
  -1609550.94246  -1205069.61343  24394995.2584                   24394997.0904
 -15510026.227 8 -12072071.350 7  21706376.266
 -19277804.61248 -14974473.83146  21213145.1094                   21213143.0554
 11  8 18  1 59  0.0000000  0  9G10G30G12G26G29G05G04G25G02
 -10720161.86546  -8238410.60644  22572111.0474                   22572111.5164
 -14765071.34948 -11461290.28845  21556715.6884                   21556716.0594
 -19495599.338 8 -15176135.484 7  21039519.953
  -1336832.91046   -944602.95643  24696590.3364                   24696593.2234
  -7798045.544 6  -6060344.274 6  23291021.547
 -22832737.824 8 -17774107.695 8  20274079.750
  -1529358.68146  -1142582.09943  24410255.7344                   24410257.9264
 -15536095.742 8 -12092385.259 7  21701415.844
 -19244235.34348 -14948315.95946  21219533.4064                   21219531.3204
 11  8 18  1 59 30.0000000  0  9G10G30G12G26G29G05G04G25G02
 -10628629.01347  -8167086.30444  22589529.1484                   22589529.8954
 -14770964.83448 -11465882.60145  21555594.1334                   21555594.7704
 -19454703.854 8 -15144268.875 7  21047302.242
  -1431878.00346  -1018663.88943  24678504.0004                   24678507.2074
  -7881651.778 6  -6125491.928 6  23275111.664
 -22836909.195 8 -17777358.096 8  20273286.211
  -1449220.54646  -1080136.80543  24425505.5864                   24425507.4304
 -15561594.263 8 -12112254.217 7  21696563.414
 -19210547.94248 -14922066.02446  21225943.9304                   21225941.5984
 11  8 18  2  0  0.0000000  0  9G10G30G12G26G29G05G04G25G02
 -10536781.97847  -8095517.20144  22607006.6804                   22607007.5204
 -14776244.74048 -11469996.81346  21554589.1484                   21554589.9694
 -19413279.832 8 -15111990.424 7  21055184.859
  -1527025.33946  -1092804.51543  24660398.2734                   24660400.8914
  -7965245.892 6  -6190630.158 6  23259204.641
 -22840506.064 8 -17780160.830 8  20272601.328
  -1369134.77946  -1017732.32943  24440745.3364                   24440747.3014
 -15586518.882 8 -12131675.995 7  21691820.492
 -19176740.44148 -14895722.49046  21232377.0554                   21232374.6334
 11  8 18  2  0 30.0000000  0  9G10G30G12G26G29G05G04G25G02
 -10444624.87346  -8023706.44444  22624543.8984                   22624544.5004
 -14780912.58747 -11473634.08745  21553700.7814                   21553701.7154
 -19371329.978 8 -15079302.224 7  21063167.867
  -1622273.37646  -1167023.59843  24642272.3754                   24642275.4144
  -8048827.845 7  -6255758.951 6  23243298.859
 -22843530.187 8 -17782517.272 8  20272026.305
  -1289102.89846   -955369.82743  24455974.2894                   24455976.2584
 -15610870.213 8 -12150651.029 7  21687186.445
 -19142814.40948 -14869286.60146  21238832.9844                   21238830.7584
 11  8 18  2  1  0.0000000  0  9G10G30G12G26G29G05G04G25G02
 -10352160.96147  -7951656.66544  22642139.8134                   22642139.7344
 -14784969.06148 -11476794.98245  21552928.9224                   21552930.0354
 -19328856.994 8 -15046206.393 7  21071249.664
  -1717619.58846  -1241319.17443  24624128.0474                   24624131.8714
  -8132396.495 7  -6320877.342 6  23227396.938
 -22845982.461 8 -17784428.104 8  20271559.555
  -1209125.65646   -893049.87743  24471193.3984                   24471195.9414
 -15634647.966 8 -12169179.130 7  21682662.016
 -19108771.37648 -14842759.54946  21245311.6254                   21245308.9574
 11  8 18  2  1 30.0000000  0  9G10G30G12G26G29G05G04G25G02
 -10259393.08647  -7879370.00344  22659792.4144                   22659793.2734
 -14788414.20848 -11479479.51345  21552273.1564                   21552274.0124
 -19285862.033 8 -15012703.830 7  21079431.313
  -1813060.73046  -1315688.72843  24605966.5314                   24605970.0434
  -8215950.172 7  -6385984.091 6  23211497.133
 -22847863.089 8 -17785893.508 8  20271201.578
  -1129203.16946   -830772.59943  24486402.8444                   24486404.0944
 -15657851.276 8 -12187259.614 7  21678246.359
 -19074611.46847 -14816141.43346  21251811.3984                   21251809.5274
 11  8 18  2  2  0.0000000  0  9G10G30G12G26G29G05G04G25G02
 -10166323.54447  -7806848.27944  22677503.0944                   22677503.6764
 -14791247.85447 -11481687.56145  21551734.3054                   21551734.9924
 -19242346.422 8 -14978795.564 7  21087712.375
  -1908593.35846  -1390129.57343  24587787.0004                   24587789.7624
  -8299487.073 7  -6451077.782 6  23195600.633
 -22849171.969 8 -17786913.399 8  20270952.414
  -1049335.15846   -768537.73243  24501601.2274                   24501603.2304
 -15680479.003 8 -12204891.587 7  21673940.742
 -19040334.68648 -14789432.24246  21258334.1334                   21258332.4694
 11  8 18  2  2 30.0000000  0  9G10G30G12G26G29G05G04G25G02
 -10072956.16647  -7734094.48644  22695270.4304                   22695271.1484
 -14793471.25948 -11483420.08246  21551311.1484                   21551311.6024
 -19198312.639 8 -14944483.521 7  21096091.578
  -2004215.32046  -1464640.00743  24569590.5944                   24569594.2384
  -8383006.732 7  -6516158.035 6  23179707.844
 -22849910.766 8 -17787489.066 8  20270811.859
   -969522.87346   -706346.39343  24516789.3054                   24516790.7974
 -15702531.392 8 -12222075.243 7  21669744.305
 -19005942.60448 -14762633.19746  21264878.9224                   21264876.6604
 11  8 18  2  3  0.0000000  0  9G10G30G12G26G29G05G04G25G02
  -9979293.15446  -7661110.32544  22713093.8984                   22713094.7074
 -14795084.09248 -11484676.84845  21551004.3204                   21551004.6334
 -19153761.944 8 -14909768.704 7  21104569.445
  -2099923.12046  -1539217.32743  24551378.5084                   24551381.0744
  -8466506.824 7  -6581223.034 6  23163818.242
 -22850079.287 8 -17787620.352 8  20270780.047
   -889765.72746   -644197.89043  24531966.2424                   24531967.5314
 -15724007.104 8 -12238809.552 7  21665657.031
 -18971434.99748 -14735744.12946  21271445.1954                   21271443.0474
 11  8 18  2  3 30.0000000  0  9G10G30G12G26G29G05G04G25G02
  -9885336.96847  -7587897.73244  22730973.2504                   22730973.5904
 -14796086.46548 -11485457.93046  21550813.3444                   21550813.9064
 -19108696.099 8 -14874652.455 7  21113145.266
  -2195713.18746  -1613858.77542  24533150.3054                   24533152.1604
  -8549985.732 7  -6646271.537 6  23147932.031
 -22849677.943 8 -17787307.590 8  20270856.031
   -810063.86946   -582092.54543  24547133.3204                   24547134.5744
 -15744905.392 8 -12255093.910 7  21661680.203
 -18936812.28948 -14708765.37746  21278033.6174                   21278031.4024
 11  8 18  2  4  0.0000000  0  9G10G30G12G26G29G05G04G25G02
  -9791091.22847  -7514459.48344  22748907.9384                   22748907.9064
 -14796479.36147 -11485764.08045  21550738.6024                   21550739.0944
 -19063117.376 8 -14839136.566 7  21121818.391
  -2291583.27246  -1688562.59543  24514905.3524                   24514908.9804
  -8633442.581 7  -6711302.811 6  23132051.664
 -22848707.645 8 -17786551.489 8  20271040.625
   -730418.07446   -520030.85443  24562288.2424                   24562290.8984
 -15765226.168 8 -12270928.255 7  21657813.469
 -18902075.03347 -14681697.36546  21284644.2504                   21284641.7624
 11  8 18  2  4 30.0000000  0  9G10G30G12G26G29G05G04G25G02
  -9696558.61646  -7440797.71944  22766896.8594                   22766897.1254
 -14796262.98348 -11485595.48845  21550779.7274                   21550780.2344
 -19017027.277 8 -14803222.210 7  21130589.242
  -2387529.83346  -1763325.93042  24496647.4694                   24496650.9264
  -8716875.785 7  -6776315.660 6  23116174.195
 -22847169.151 8 -17785352.642 8  20271333.648
   -650828.06646   -458012.62643  24577434.3524                   24577435.8054
 -15784968.657 8 -12286311.987 7  21654056.531
 -18867223.74648 -14654540.51246  21291276.2274                   21291274.0004
 11  8 18  2  5  0.0000000  0  9G10G30G12G26G29G05G04G25G02
  -9601741.90647  -7366914.58044  22784938.7504                   22784940.2504
 -14795437.91748 -11484952.57845  21550937.0784                   21550937.6134
 -18970427.918 8 -14766911.029 7  21139457.055
  -2483550.12346  -1838146.80743  24478376.2424                   24478379.0664
  -8800283.711 7  -6841308.783 6  23100301.695
 -22845063.129 8 -17783711.559 8  20271734.586
   -571294.45146   -396038.37342  24592568.3364                   24592570.5704
 -15804132.508 8 -12301244.844 7  21650409.805
 -18832259.15148 -14627295.36646  21297929.8444                   21297927.6604
 11  8 18  2  5 30.0000000  0  9G10G30G12G26G29G05G04G25G02
  -9506643.83646  -7292812.18944  22803036.3674                   22803036.5314
 -14794004.11147 -11483835.32545  21551209.5164                   21551210.2504
 -18923320.434 8 -14730203.901 7  21148420.820
  -2579640.44946  -1913022.22543  24460090.1644                   24460093.0664
  -8883664.312 7  -6906280.660 6  23084435.273
 -22842389.556 7 -17781628.233 8  20272243.273
   -491816.84246   -334107.77543  24607692.6804                   24607694.8244
 -15822716.688 8 -12315726.003 7  21646873.242
 -18797181.10347 -14599961.79846  21304604.5164                   21304602.8794
 11  8 18  2  6  0.0000000  0  9G10G30G12G26G29G05G04G25G02
  -9411267.69347  -7218493.11344  22821185.3524                   22821186.0514
 -14791963.02747 -11482244.86745  21551598.4144                   21551598.5664
 -18875707.793 8 -14693103.146 7  21157481.281
  -2675798.73646  -1987950.66143  24441791.7274                   24441794.2854
  -8967017.326 7  -6971231.024 6  23068573.828
 -22839150.453 8 -17779104.234 8  20272859.203
   -412396.35546   -272221.65142  24622806.2194                   24622807.6764
 -15840721.696 8 -12329755.866 7  21643447.070
 -18761990.97448 -14572540.91546  21311300.8054                   21311299.1024
 11  8 18  2  6 30.0000000  0  9G10G30G12G26G29G05G04G25G02
  -9315616.49446  -7143959.71744  22839387.0784                   22839387.4064
 -14789315.11747 -11480181.55845  21552101.6644                   21552102.4924
 -18827592.011 8 -14655610.330 7  21166637.078
  -2772021.68846  -2062929.44243  24423481.5004                   24423484.1994
  -9050340.832 7  -7036158.394 6  23052717.367
 -22835346.207 7 -17776139.859 8  20273583.023
   -333032.92646   -210380.01643  24637908.8914                   24637910.5204
 -15858146.935 8 -12343333.945 7  21640130.914
 -18726689.08148 -14545032.92446  21318018.9454                   21318016.7934
 11  8 18  2  7  0.0000000  0  9G10G30G12G26G29G05G04G25G02
  -9219693.06647  -7069214.19244  22857640.9454                   22857642.2544
 -14786060.78447 -11477645.69445  21552721.6254                   21552721.7704
 -18778974.612 8 -14617726.645 7  21175889.055
  -2868305.84746  -2137955.90043  24405158.5554                   24405161.3914
  -9133633.467 7  -7101061.689 6  23036867.117
 -22830977.250 8 -17772735.462 8  20274414.289
   -253727.01846   -148583.14943  24652999.8674                   24653001.9344
 -15874991.869 8 -12356459.851 7  21636925.680
 -18691275.86548 -14517438.19046  21324757.8204                   21324755.5744
 11  8 18  2  7 30.0000000  0  9G10G30G12G26G29G05G04G25G02
  -9123499.20347  -6994257.95244  22875946.3754                   22875946.7734
 -14782199.52247 -11474636.89945  21553456.0164                   21553456.5274
 -18729856.673 8 -14579452.931 7  21185235.805
  -2964647.16347  -2213026.92543  24386826.3834                   24386827.9024
  -9216892.294 6  -7165938.648 6  23021023.289
 -22826043.172 8 -17768890.694 8  20275353.313
   -174477.07946    -86829.93543  24668080.7974                   24668082.6254
 -15891254.976 8 -12369132.391 7  21633830.805
 -18655750.67248 -14489756.21546  21331517.9614                   21331515.8094
 11  8 18  2  8  0.0000000  0  9G10G30G12G26G29G05G04G25G02
  -9027037.34747  -6919092.86844  22894302.2274                   22894302.7814
 -14777731.57247 -11471155.35545  21554306.2664                   21554307.0004
 -18680239.632 8 -14540790.311 7  21194678.016
  -3061042.12647  -2288139.74443  24368482.1804                   24368484.3204
  -9300115.593 7  -7230787.911 6  23005187.469
 -22820544.650 8 -17764606.109 8  20276399.914
    -95283.23846    -25120.40943  24683150.6954                   24683152.9224
 -15906935.470 8 -12381350.936 7  21630846.438
 -18620113.55848 -14461987.01546  21338299.4774                   21338297.4654
 11  8 18  2  8 30.0000000  0  8G10G30G12G26G29G05G25G02
  -8930314.20047  -6843724.21344  22912708.2664                   22912708.5204
 -14772661.49948 -11467204.61645  21555271.2424                   21555271.4574
 -18630129.447 8 -14501743.402 7  21204213.078
  -3157491.55746  -2363295.04043  24350128.5164                   24350130.9384
  -9383305.500 7  -7295611.187 6  22989356.875
 -22814486.263 8 -17759885.266 8  20277552.688
 -15922037.017 8 -12393118.382 7  21627973.469
 -18584368.82748 -14434133.95746  21345101.2734                   21345098.9414
 11  8 18  2  9  0.0000000  0  8G10G30G12G26G29G05G25G02
  -8833329.66946  -6768151.85644  22931163.3524                   22931164.2624
 -14766987.20848 -11462783.07445  21556350.7504                   21556351.3714
 -18579525.141 8 -14462311.493 7  21213843.055
  -3253989.42246  -2438488.01743  24331765.2194                   24331767.2854
  -9466457.558 7  -7360404.951 6  22973533.031
 -22807866.184 8 -17754726.730 8  20278812.328
 -15936556.401 8 -12404432.165 7  21625210.078
 -18548513.93248 -14406195.07446  21351924.3674                   21351922.1334
 11  8 18  2  9 30.0000000  0  8G10G30G12G26G29G05G25G02
  -8736086.60047  -6692378.05944  22949668.4924                   22949668.7034
 -14760709.46348 -11457891.28945  21557545.4224                   21557545.7384
 -18528428.791 8 -14422496.174 7  21223566.141
  -3350532.53346  -2513716.27643  24313393.8834                   24313395.7664
  -9549570.367 7  -7425168.116 6  22957717.719
 -22800684.935 8 -17749130.935 8  20280178.766
 -15950493.443 8 -12415292.178 7  21622558.125
 -18512549.74348 -14378171.02046  21358767.8674                   21358766.0664
 11  8 18  2 10  0.0000000  0  8G10G30G12G26G29G05G25G02
  -8638588.76147  -6616405.75444  22968221.7344                   22968222.0984
 -14753829.81648 -11452530.50446  21558854.6254                   21558855.3364
 -18476843.637 8 -14382299.946 7  21233383.156
  -3447118.40246  -2588977.85843  24295014.1724                   24295016.3554
  -9632643.290 7  -7489900.226 7  22941908.875
 -22792944.394 8 -17743099.318 8  20281652.000
 -15963848.568 8 -12425698.754 7  21620016.563
 -18476477.14647 -14350062.49146  21365632.6484                   21365630.6334
 11  8 18  2 10 30.0000000  0  8G10G30G12G26G29G05G25G02
  -8540838.67647  -6540236.85844  22986823.0474                   22986823.3054
 -14746348.53748 -11446700.91445  21560278.4774                   21560278.4534
 -18424771.234 8 -14341724.046 7  21243291.750
  -3543743.55446  -2664270.06143  24276626.6954                   24276628.9184
  -9715674.050 7  -7554599.495 7  22926108.531
 -22784645.212 8 -17736632.403 8  20283231.094
 -15976621.223 8 -12435651.441 7  21617585.984
 -18440296.04247 -14321869.40046  21372517.3364                   21372515.6454
 11  8 18  2 11  0.0000000  0  8G10G30G12G26G29G05G25G02
  -8442838.38147  -6463873.02344  23005472.1724                   23005472.6134
 -14738265.75248 -11440402.62045  21561816.5004                   21561816.8834
 -18372212.541 8 -14300769.217 7  21253293.383
  -3640404.07247  -2739589.75843  24258233.1334                   24258234.9844
  -9798660.319 7  -7619264.082 7  22910316.602
 -22775787.455 8 -17729730.228 8  20284916.828
 -15988810.431 8 -12445149.501 7  21615266.063
 -18404006.07147 -14293591.48646  21379423.3134                   21379421.0634
 11  8 18  2 11 30.0000000  0  8G10G30G12G26G29G05G25G02
  -8344591.67547  -6387317.15544  23024167.3134                   23024167.6374
 -14729583.28547 -11433637.04045  21563468.6644                   21563468.7304
 -18319170.978 8 -14259438.138 7  21263387.008
  -3737097.48646  -2814935.19743  24239833.2664                   24239834.7304
  -9881601.641 7  -7683893.645 7  22894533.727
 -22766373.044 8 -17722394.304 8  20286708.023
 -16000416.991 8 -12454193.563 7  21613057.805
 -18367608.58847 -14265229.80546  21386349.2974                   21386346.9534
 11  8 18  2 12  0.0000000  0  8G10G30G12G26G29G05G25G02
  -8246100.41146  -6310570.72444  23042909.6024                   23042910.2974
 -14720300.99848 -11426404.07745  21565234.5164                   21565235.1094
 -18265647.840 8 -14217731.793 7  21273572.141
  -3833820.15546  -2890303.35643  24221426.2664                   24221429.3204
  -9964495.147 6  -7748485.925 6  22878759.508
 -22756402.023 8 -17714624.644 8  20288605.797
 -16011439.778 8 -12462782.744 7  21610960.211
 -18331103.35048 -14236784.14846  21393295.8834                   21393293.5784
 11  8 18  2 12 30.0000000  0  8G10G30G12G26G29G05G25G02
  -8147368.71246  -6233636.92144  23061697.4694                   23061698.1094
 -14710420.88448 -11418705.28345  21567114.8754                   21567115.4104
 -18211646.153 8 -14175652.569 7  21283848.258
  -3930569.49346  -2965692.33243  24203015.4224                   24203017.9024
 -10047340.495 7  -7813040.690 7  22862994.008
 -22745876.547 8 -17706422.960 8  20290608.414
 -16021879.823 8 -12470917.830 7  21608973.492
 -18294491.58848 -14208255.49546  21400263.2194                   21400260.8134
 11  8 18  2 13  0.0000000  0  8G10G30G12G26G29G05G25G02
  -8048399.13246  -6156517.77244  23080530.5634                   23080531.0984
 -14699943.68548 -11410541.23545  21569108.3674                   21569108.7544
 -18157167.984 8 -14133202.038 7  21294215.125
  -4027342.09446  -3041099.40843  24184600.8134                   24184602.6254
 -10130135.897 7  -7877556.555 6  22847239.711
 -22734797.342 8 -17697789.785 8  20292716.672
 -16031736.734 8 -12478598.531 7  21607097.875
 -18257773.51348 -14179643.99446  21407250.0314                   21407248.5984
 11  8 18  2 13 30.0000000  0  8G10G30G12G26G29G05G25G02
  -7949194.00646  -6079215.10043  23099408.8914                   23099409.3524
 -14688869.70048 -11401912.13845  21571216.3984                   21571216.1764
 -18102215.144 8 -14090381.653 7  21304672.453
  -4124134.25846  -3116521.76043  24166181.0234                   24166184.0554
 -10212879.049 7  -7942031.675 6  22831493.195
 -22723164.921 8 -17688725.542 8  20294930.461
 -16041009.927 8 -12485824.388 7  21605333.086
 -18220949.01648 -14150949.57346  21414257.9144                   21414255.7074
 11  8 18  2 14  0.0000000  0  8G10G30G12G26G29G05G25G02
  -7849756.96946  -6001731.71843  23118330.4534                   23118331.7034
 -14677200.65348 -11392819.39145  21573436.6484                   21573436.9064
 -18046790.302 8 -14047193.469 7  21315219.227
  -4220943.53046  -3191957.47443  24147759.3914                   24147761.1684
 -10295568.970 7  -8006465.323 6  22815758.117
 -22710981.005 8 -17679231.568 8  20297248.891
 -16049700.109 8 -12492595.953 7  21603679.469
 -18184019.11548 -14122173.00846  21421285.4614                   21421282.9384
 11  8 18  2 14 30.0000000  0  8G10G30G12G26G29G05G25G02
  -7750090.70846  -5924069.70943  23137296.7194                   23137296.7774
 -14664937.56548 -11383263.75445  21575770.3524                   21575770.6724
 -17990895.533 8 -14003639.113 7  21325855.539
  -4317766.59846  -3267403.93643  24129334.0314                   24129336.6884
 -10378204.036 7  -8070856.232 6  22800032.531
 -22698246.490 8 -17669308.549 8  20299672.156
 -16057807.168 8 -12498913.144 7  21602136.656
 -18146984.07448 -14093314.52446  21428333.0634                   21428330.6254
 11  8 18  2 15  0.0000000  0  8G10G30G12G26G29G05G25G02
  -7650197.72046  -5846231.02044  23156306.1724                   23156306.8204
 -14652081.32647 -11373245.91745  21578216.6024                   21578216.8834
 -17934533.140 8 -13959720.377 7  21336580.852
  -4414599.79846  -3342858.29243  24110907.4694                   24110909.9104
 -10460782.243 7  -8135202.824 6  22784318.688
 -22684962.509 8 -17658957.374 8  20302199.961
 -16065331.082 8 -12504775.924 7  21600705.297
 -18109844.21548 -14064374.35946  21435400.4384                   21435397.6844
 11  8 18  2 15 30.0000000  0  8G10G30G12G26G29G05G25G02
  -7550080.80446  -5768217.87144  23175358.0004                   23175357.8914
 -14638632.69047 -11362766.47345  21580775.8444                   21580776.0704
 -17877705.159 8 -13915438.847 7  21347395.086
  -4511439.85846  -3418318.01143  24092479.6254                   24092481.0704
 -10543302.032 7  -8199503.936 6  22768615.531
 -22671130.250 8 -17648178.987 8  20304832.188
 -16072271.532 8 -12510184.073 7  21599384.430
 -18072599.41048 -14035352.41846  21442487.7584                   21442485.5904
 11  8 18  2 16  0.0000000  0  8G10G30G12G26G29G05G25G02
  -7449743.69247  -5690033.10544  23194450.8524                   23194451.8484
 -14624593.51347 -11351826.88246  21583447.4774                   21583447.8674
 -17820414.625 8 -13870796.878 7  21358296.867
  -4608284.01347  -3493780.91643  24074050.3984                   24074053.3714
 -10625762.120 7  -8263758.498 6  22752923.672
 -22656751.649 8 -17636974.861 8  20307568.148
 -16078629.429 8 -12515138.277 7  21598174.633
 -18035250.90948 -14006249.68046  21449595.1724                   21449592.7154
 11  8 18  2 16 30.0000000  0  8G10G30G12G26G29G05G25G02
  -7349188.65847  -5611678.57344  23213586.0784                   23213587.2384
 -14609964.43348 -11340427.61046  21586231.2584                   21586231.8794
 -17762663.183 8 -13825795.785 7  21369286.625
  -4705128.74546  -3569244.26843  24055621.7664                   24055623.5594
 -10708160.306 7  -8327964.845 6  22737244.320
 -22641826.869 8 -17625345.147 8  20310408.555
 -16084404.342 8 -12519638.215 7  21597075.820
 -17997798.63048 -13977066.07546  21456721.9454                   21456719.3714
 11  8 18  2 17  0.0000000  0  8G10G30G12G26G29G05G25G02
  -7248418.01647  -5533156.02544  23232762.5864                   23232762.8164
 -14594746.31848 -11328569.34946  21589126.9614                   21589127.6214
 -17704453.042 8 -13780437.242 7  21380363.961
  -4801970.45946  -3644705.25843  24037193.0084                   24037194.2734
 -10790494.817 7  -8392121.567 7  22721576.828
 -22626356.888 8 -17613290.599 8  20313352.273
 -16089596.167 8 -12523683.799 7  21596087.570
 -17960242.76648 -13947801.77046  21463868.9224                   21463866.6134
 11  8 18  2 17 30.0000000  0  8G10G30G12G26G29G05G25G02
  -7147434.26847  -5454467.39344  23251978.8754                   23251979.3674
 -14578939.75648 -11316252.54346  21592134.8284                   21592135.4694
 -17645785.844 8 -13734722.553 7  21391527.930
  -4898805.06546  -3720160.71243  24018765.4144                   24018768.1644
 -10872763.297 7  -8456226.835 6  22705921.656
 -22610342.673 8 -17600811.980 8  20316399.836
 -16094204.422 8 -12527274.644 7  21595210.422
 -17922582.74048 -13918456.28146  21471035.0314                   21471033.4574
 11  8 18  2 18  0.0000000  0  8G10G30G12G26G29G05G25G02
  -7046241.08447  -5375615.58944  23271235.2344                   23271236.4414
 -14562546.96348 -11303478.94645  21595254.2894                   21595254.8244
 -17586665.193 7 -13688654.519 7  21402777.992
  -4995630.27446  -3795608.85643  24000340.6884                   24000342.9694
 -10954964.858 7  -8520279.933 7  22690279.367
 -22593786.287 8 -17587910.887 8  20319550.195
 -16098230.256 8 -12530411.657 7  21594444.734
 -17884820.00448 -13889030.75846  21478221.2974                   21478219.0554
 11  8 18  2 18 30.0000000  0  8G10G30G12G26G29G05G25G02
  -6944842.22146  -5296603.51244  23290531.0784                   23290531.7234
 -14545569.88548 -11290250.05545  21598484.8134                   21598485.5084
 -17527094.135 7 -13642235.518 7  21414114.117
  -5092443.74046  -3871047.82343  23981917.4614                   23981919.1524
 -11037098.475 7  -8584280.114 6  22674649.336
 -22576690.205 8 -17574589.258 8  20322803.438
 -16101674.762 8 -12533095.691 7  21593788.914
 -17846955.57848 -13859526.00646  21485426.3914                   21485424.1024
 11  8 18  2 19  0.0000000  0  8G10G30G12G26G29G05G25G02
  -6843237.63547  -5217431.14943  23309865.5784                   23309866.4384
 -14528007.17548 -11276564.82245  21601826.6644                   21601827.4224
 -17467072.352 8 -13595465.304 7  21425535.680
  -5189239.30346  -3946472.84343  23963497.5394                   23963500.2854
 -11119160.056 7  -8648224.156 7  22659033.367
 -22559052.551 8 -17560845.611 8  20326159.938
 -16104535.371 8 -12535324.731 7  21593244.797
 -17808986.95948 -13829940.06046  21492651.4224                   21492649.1804
 11  8 18  2 19 30.0000000  0  8G10G30G12G26G29G05G25G02
  -6741431.88746  -5138102.05343  23329238.3364                   23329239.8244
 -14509861.95748 -11262425.69645  21605279.6334                   21605280.3244
 -17406603.852 8 -13548347.021 7  21437042.539
  -5286015.59447  -4021882.85843  23945082.4534                   23945083.6094
 -11201149.614 7  -8712112.076 7  22643431.156
 -22540876.312 8 -17546682.294 8  20329618.961
 -16106814.361 8 -12537100.559 7  21592811.188
 -17770916.55548 -13800274.80446  21499895.6724                   21499893.5984
 11  8 18  2 20  0.0000000  0  8G10G30G12G26G29G05G25G02
  -6639427.98147  -5058618.50844  23348649.9384                   23348650.0984
 -14491135.69448 -11247833.78345  21608843.7344                   21608844.2384
 -17345691.716 7 -13500883.021 7  21448633.719
  -5382769.18546  -4097275.20243  23926670.2814                   23926671.8954
 -11283065.599 7  -8775942.642 6  22627842.672
 -22522163.312 8 -17532100.713 8  20333179.680
 -16108512.074 8 -12538423.428 7  21592488.195
 -17732744.70448 -13770530.50146  21507159.9844                   21507157.7934
 11  8 18  2 20 30.0000000  0  8G10G30G12G26G29G05G25G02
  -6537227.70547  -4978981.95044  23368097.9614                   23368098.4494
 -14471828.30648 -11232789.05046  21612517.7814                   21612518.2814
 -17284336.571 7 -13453073.818 7  21460309.273
  -5479495.50346  -4172646.22443  23908264.0474                   23908266.0164
 -11364904.979 7  -8839713.535 7  22612269.797
 -22502913.820 8 -17517101.095 8  20336842.391
 -16109627.497 8 -12539292.567 7  21592275.828
 -17694470.41048 -13740706.36946  21514443.2974                   21514441.5864
 11  8 18  2 21  0.0000000  0  8G10G30G12G26G29G05G25G02
  -6434835.62747  -4899195.95543  23387582.6644                   23387582.2074
 -14451943.23848 -11217294.19145  21616301.8054                   21616301.9844
 -17222543.483 8 -13404923.376 7  21472068.508
  -5576193.16546  -4247994.99743  23889862.4774                   23889865.1024
 -11446667.732 7  -8903424.744 7  22596710.883
 -22483130.810 8 -17501685.752 8  20340606.945
 -16110163.029 8 -12539709.849 7  21592173.680
 -17656096.00448 -13710804.23446  21521745.4454                   21521743.4024
 11  8 18  2 21 30.0000000  0  8G10G30G12G26G29G05G25G02
  -6332252.72147  -4819261.25544  23407102.9924                   23407103.1804
 -14431480.14248 -11201348.89145  21620196.0004                   21620196.1804
 -17160312.783 7 -13356431.929 7  21483910.250
  -5672857.06046  -4323317.43743  23871467.8134                   23871470.3834
 -11528350.355 7  -8967073.492 7  22581166.727
 -22462814.076 8 -17485854.512 8  20344473.406
 -16110117.292 8 -12539674.182 7  21592182.414
 -17617620.05548 -13680822.96046  21529067.5314                   21529065.1604
 11  8 18  2 22  0.0000000  0  8G10G30G12G26G29G05G25G02
  -6229482.77847  -4739180.81143  23426659.7504                   23426660.3754
 -14410441.57048 -11184955.20546  21624199.3834                   21624199.7384
 -17097648.048 8 -13307602.278 7  21495835.180
  -5769485.01146  -4398611.86443  23853080.0634                   23853082.4884
 -11609952.213 7  -9030659.333 7  22565638.805
 -22441966.188 8 -17469609.391 8  20348440.539
 -16109491.833 8 -12539186.808 7  21592301.625
 -17579043.82248 -13650763.55746  21536408.0394                   21536406.0704
 11  8 18  2 22 30.0000000  0  8G10G30G12G26G29G05G25G02
  -6126527.94847  -4658956.24143  23446251.5084                   23446251.5634
 -14388828.03748 -11168113.47345  21628311.9774                   21628312.3674
 -17034550.770 7 -13258435.578 7  21507842.055
  -5866072.50046  -4473874.69743  23834700.4064                   23834702.0084
 -11691471.054 7  -9094180.443 7  22550126.148
 -22420587.738 8 -17452950.846 8  20352508.836
 -16108286.150 8 -12538247.279 7  21592531.234
 -17540366.47348 -13620625.34946  21543768.1884                   21543766.0204
 11  8 18  2 23  0.0000000  0  8G10G30G12G26G29G05G25G02
  -6023391.39647  -4578590.17743  23465877.6174                   23465877.7624
 -14366641.30248 -11150825.11345  21632533.8914                   21632534.7234
 -16971023.949 8 -13208934.154 7  21519930.914
  -5962616.71746  -4549103.89943  23816328.9534                   23816330.5164
 -11772904.536 7  -9157635.029 7  22534629.734
 -22398680.416 8 -17435880.196 8  20356677.703
 -16106500.925 8 -12536856.181 7  21592870.609
 -17501588.88548 -13590409.04546  21551147.4844                   21551145.5394
 11  8 18  2 23 30.0000000  0  8G10G30G12G26G29G05G25G02
  -5920075.74347  -4498084.46443  23485537.6024                   23485538.6684
 -14343883.14647 -11133091.48945  21636865.0864                   21636865.3594
 -16907070.422 8 -13159100.250 7  21532100.953
  -6059114.50846  -4624296.91743  23797965.8914                   23797968.0704
 -11854251.401 7  -9221022.138 7  22519150.078
 -22376246.020 8 -17418398.826 8  20360946.633
 -16104137.060 7 -12535014.189 7  21593320.555
 -17462711.35448 -13560114.85846  21558545.4454                   21558543.5234
 11  8 18  2 24  0.0000000  0  8G10G30G12G26G29G05G25G02
  -5816583.87947  -4417441.47043  23505231.6094                   23505231.2304
 -14320555.09047 -11114913.79345  21641303.7344                   21641304.2274
 -16842692.857 8 -13108935.930 7  21544351.648
  -6155562.40547  -4699451.04843  23779612.2734                   23779613.7424
 -11935510.054 7  -9284340.532 6  22503686.891
 -22353285.737 8 -17400507.688 8  20365315.781
 -16101195.042 8 -12532721.688 7  21593879.930
 -17423734.28948 -13529743.10346  21565962.5394                   21565960.1334
 11  8 18  2 24 30.0000000  0  8G10G30G12G26G29G05G25G02
  -5712918.44847  -4336663.22643  23524958.5944                   23524958.6884
 -14296658.26847 -11096292.89346  21645851.5084                   21645852.0164
 -16777892.969 7 -13058442.527 7  21556682.305
  -6251956.42447  -4774563.18143  23761269.3444                   23761270.9264
 -12016678.156 7  -9347588.395 6  22488240.805
 -22329800.747 8 -17382207.675 8  20369785.031
 -16097674.942 8 -12529978.761 7  21594550.273
 -17384657.60848 -13499293.73245  21573398.7504                   21573396.4964
 11  8 18  2 25  0.0000000  0  8G10G30G12G26G29G05G25G02
  -5609082.38047  -4255752.02443  23544718.4144                   23544718.3554
 -14272194.67348 -11077230.36045  21650506.7194                   21650506.7584
 -16712674.050 8 -13007622.588 7  21569092.867
  -6348293.75047  -4849631.18044  23742936.4384                   23742938.1414
 -12097754.231 7  -9410764.519 6  22472812.750
 -22305793.359 8 -17363500.607 8  20374353.328
 -16093577.749 8 -12526786.148 7  21595330.039
 -17345481.56648 -13468766.92046  21580853.8054                   21580851.3444
 11  8 18  2 25 30.0000000  0  8G10G30G12G26G29G05G25G02
  -5505077.90947  -4174709.57043  23564509.2734                   23564510.1724
 -14247165.17248 -11057726.86045  21655269.3594                   21655270.3874
 -16647038.049 8 -12956477.657 7  21581583.336
  -6444570.06446  -4924651.59243  23724615.2584                   23724616.6454
 -12178735.739 7  -9473866.933 6  22457402.531
 -22281264.176 8 -17344386.951 8  20379020.773
 -16088903.318 8 -12523143.724 7  21596219.758
 -17306205.92947 -13438162.52245  21588327.2274                   21588325.1024
 11  8 18  2 26  0.0000000  0  8G10G30G12G26G29G05G25G02
  -5400907.47347  -4093537.85043  23584331.9224                   23584333.2194
 -14221571.16848 -11037783.50345  21660139.7974                   21660140.6954
 -16580987.181 8 -12905009.471 7  21594152.305
  -6540781.81646  -4999621.72643  23706306.8674                   23706308.3134
 -12259620.720 7  -9536894.155 7  22442010.234
 -22256214.516 8 -17324867.728 8  20383787.789
 -16083652.130 8 -12519051.906 7  21597218.797
 -17266830.74847 -13407480.55645  21595820.3204                   21595818.0044
 11  8 18  2 26 30.0000000  0  8G10G30G12G26G29G05G25G02
  -5296574.55347  -4012239.41643  23604186.2194                   23604186.3554
 -14195415.15948 -11017402.21445  21665117.1724                   21665118.0784
 -16514524.969 8 -12853220.745 7  21606799.805
  -6636926.46646  -5074539.54743  23688011.5474                   23688013.1604
 -12340408.057 7  -9599845.249 7  22426636.984
 -22230646.793 8 -17304944.821 8  20388653.297
 -16077825.659 8 -12514511.778 7  21598327.438
 -17227357.18048 -13376721.91446  21603332.0314                   21603329.5084
 11  8 18  2 27  0.0000000  0  9G10G30G12G26G29G05G15G25G02
  -5192081.22546  -3930816.07743  23624070.1564                   23624071.2894
 -14168698.14947 -10996583.76445  21670201.0394                   21670201.6334
 -16447653.014 8 -12801112.732 7  21619525.242
  -6732999.72646  -5149401.76043  23669728.8134                   23669730.0124
 -12421095.162 7  -9662718.252 7  22411283.016
 -22204561.968 8 -17284618.973 8  20393616.898
    443873.029 6    380604.306 5  24619125.891
 -16071423.813 8 -12509523.336 7  21599545.531
 -17187784.45647 -13345886.01145  21610862.1644                   21610859.5594
 11  8 18  2 27 30.0000000  0  9G10G30G12G26G29G05G15G25G02
  -5087432.22646  -3849271.47243  23643984.3914                   23643985.1604
 -14141423.73447 -10975330.97045  21675391.1954                   21675392.1484
 -16380376.321 8 -12748689.348 7  21632327.547
  -6829000.11746  -5224207.21143  23651460.7894                   23651462.0824
 -12501682.222 7  -9725513.321 7  22395948.195
 -22177963.691 8 -17263893.033 8  20398678.227
    349193.404 6    306828.153 6  24601109.531
 -16064449.312 8 -12504088.657 7  21600872.453
 -17148115.10147 -13314974.81445  21618411.1724                   21618408.7074
 11  8 18  2 28  0.0000000  0  9G10G30G12G26G29G05G15G25G02
  -4982627.78246  -3767605.68743  23663927.6644                   23663929.1054
 -14113591.51648 -10953643.55645  21680687.8674                   21680688.3984
 -16312695.550 8 -12695951.104 7  21645206.672
  -6924921.98246  -5298951.47143  23633207.4694                   23633209.4924
 -12582164.980 7  -9788227.094 7  22380632.320
 -22150851.443 8 -17242766.591 8  20403837.797
    254393.675 6    232958.377 6  24583069.781
 -16056900.685 8 -12498206.619 7  21602309.430
 -17108346.65447 -13283986.40345  21625978.3524                   21625976.5354
 11  8 18  2 28 30.0000000  0  9G10G30G12G26G29G05G15G25G02
  -4877670.80946  -3685821.06343  23683901.0704                   23683902.1254
 -14085203.29948 -10931522.87645  21686089.6174                   21686090.5394
 -16244612.816 8 -12642899.632 7  21658162.109
  -7020762.11746  -5373632.03243  23614969.1414                   23614971.1054
 -12662542.000 7  -9850858.483 7  22365336.922
 -22123227.179 8 -17221241.191 8  20409094.578
    159476.526 6    158997.156 6  24565006.852
 -16048778.795 8 -12491877.896 7  21603855.023
 -17068479.62147 -13252921.16046  21633565.6024                   21633563.0044
 11  8 18  2 29  0.0000000  0  9G10G30G12G26G29G05G15G25G02
  -4772564.88346  -3603920.37643  23703902.7584                   23703903.2464
 -14056261.65548 -10908970.96645  21691597.2584                   21691597.7304
 -16176132.211 8 -12589538.140 7  21671193.641
  -7116517.69347  -5448246.74943  23596747.8134                   23596749.9924
 -12742811.602 7  -9913406.157 7  22350061.906
 -22095093.053 7 -17199318.477 8  20414448.094
     64443.665 6     84945.745 6  24546922.719
 -16040085.231 8 -12485103.705 7  21605508.828
 -17028514.76548 -13221779.69545  21641170.3284                   21641167.7194
 11  8 18  2 29 30.0000000  0  9G10G30G12G26G29G05G15G25G02
  -4667312.29847  -3521905.39643  23723931.2734                   23723931.8164
 -14026767.65348 -10885988.62945  21697209.5944                   21697210.5984
 -16107255.777 8 -12535868.187 7  21684300.484
  -7212184.55646  -5522792.29443  23578543.0314                   23578545.0004
 -12822971.450 8  -9975868.309 7  22334807.836
 -22066450.024 8 -17176999.221 8  20419898.438
    -30701.752 6     10806.552 6  24528817.320
 -16030820.121 8 -12477884.156 7  21607272.172
 -16988451.87648 -13190561.83845  21648793.5864                   21648791.6374
 11  8 18  2 30  0.0000000  0  9G10G30G12G26G29G05G15G25G02
  -4561916.44547  -3439778.74943  23743987.6414                   23743988.1884
 -13996723.98048 -10862577.99145  21702926.8054                   21702927.8484
 -16037986.702 7 -12481892.302 7  21697481.883
  -7307759.98947  -5597266.57544  23560355.3914                   23560357.6174
 -12903020.487 8 -10038244.120 7  22319575.508
 -22037300.694 8 -17154285.450 8  20425445.344
   -125958.021 6    -63418.952 6  24510690.672
 -16020985.018 8 -12470220.464 7  21609143.820
 -16948291.91348 -13159268.33945  21656435.9454                   21656433.6454
 11  8 18  2 30 30.0000000  0  9G10G30G12G26G29G05G15G25G02
  -4456379.79147  -3357542.42843  23764069.7974                   23764070.9614
 -13966132.43548 -10838740.43145  21708748.2584                   21708749.2114
 -15968327.737 8 -12427612.585 7  21710737.766
  -7403240.61847  -5671667.04444  23542186.3914                   23542186.9884
 -12982956.762 8 -10100532.051 7  22304364.117
 -22007647.071 8 -17131178.720 8  20431088.273
   -221322.533 6   -137728.781 6  24492542.820
 -16010580.840 8 -12462113.321 7  21611123.773
 -16908035.00148 -13127899.31245  21664096.9694                   21664094.4654
 11  8 18  2 31  0.0000000  0  9G10G30G12G26G29G05G15G25G02
  -4350703.62147  -3275197.33643  23784179.9144                   23784180.4614
 -13934993.37347 -10814476.22645  21714673.6644                   21714674.7384
 -15898280.040 8 -12373029.967 7  21724067.320
  -7498621.15747  -5745989.42144  23524035.8754                   23524037.9774
 -13062776.776 7 -10162729.421 7  22289174.828
 -21977489.009 8 -17107678.929 8  20436827.070
   -316791.215 7   -212119.809 6  24474375.469
 -15999606.951 8 -12453562.249 7  21613212.055
 -16867679.76048 -13096453.67245  21671776.0004                   21671773.5904
 11  8 18  2 31 30.0000000  0  9G10G30G12G26G29G05G15G25G02
  -4244892.04947  -3192746.71443  23804314.6024                   23804314.8284
 -13903309.88047 -10789787.79945  21720702.8674                   21720704.3324
 -15827847.680 8 -12318147.619 7  21737469.828
  -7593899.40347  -5820232.16544  23505904.8834                   23505906.6024
 -13142479.967 7 -10224835.761 7  22274007.430
 -21946829.650 8 -17083788.509 8  20442661.344
   -412362.861 6   -286591.103 6  24456189.047
 -15988065.415 8 -12444568.856 7  21615408.258
 -16827227.42847 -13064932.35946  21679473.7194                   21679471.4734
 11  8 18  2 32  0.0000000  0  9G10G30G12G26G29G05G15G25G02
  -4138946.12746  -3110191.44443  23824475.3524                   23824476.1334
 -13871082.53847 -10764675.57745  21726835.6024                   21726835.9924
 -15757032.108 8 -12262966.655 7  21750945.836
  -7689070.64247  -5894391.52344  23487794.4694                   23487795.5234
 -13222062.780 7 -10286848.306 7  22258863.117
 -21915669.265 8 -17059507.682 8  20448591.273
   -508033.497 6   -361139.485 6  24437983.547
 -15975955.886 8 -12435132.866 7  21617712.750
 -16786676.70848 -13033334.39945  21687190.3204                   21687188.0514
 11  8 18  2 32 30.0000000  0  9G10G30G12G26G29G05G15G25G02
  -4032870.04346  -3027534.77443  23844661.4384                   23844661.6844
 -13838314.75547 -10739142.23145  21733070.8594                   21733071.5744
 -15685836.999 8 -12207489.969 7  21764494.461
  -7784132.61847  -5968465.73544  23469704.4614                   23469706.1174
 -13301524.889 7 -10348766.804 7  22243742.242
 -21884011.224 8 -17034839.068 8  20454615.453
   -603802.017 6   -435764.134 6  24419759.063
 -15963280.816 8 -12425256.168 7  21620124.422
 -16746029.54447 -13001661.27946  21694925.2504                   21694923.2704
 11  8 18  2 33  0.0000000  0  9G10G30G12G26G29G05G15G25G02
  -3926665.91246  -2944778.23042  23864870.9224                   23864871.1254
 -13805008.22447 -10713189.08945  21739408.8984                   21739409.9534
 -15614265.711 7 -12151720.131 7  21778113.281
  -7879081.80147  -6042452.03743  23451636.4534                   23451637.7854
 -13380863.802 7 -10410589.283 7  22228644.313
 -21851857.108 8 -17009783.894 8  20460734.055
   -699665.491 6   -510462.784 5  24401515.945
 -15950040.846 8 -12414939.304 7  21622644.141
 -16705285.69047 -12969912.82145  21702678.5634                   21702676.4454
 11  8 18  2 33 30.0000000  0  9G10G30G12G26G29G05G15G25G02
  -3820336.66346  -2861924.24043  23885105.1644                   23885105.3134
 -13771165.19447 -10686817.87945  21745849.2664                   21745850.3014
 -15542321.101 7 -12095659.405 7  21791804.117
  -7973914.60247  -6116347.68244  23433590.2974                   23433591.9534
 -13460078.090 7 -10472314.674 7  22213570.891
 -21819209.246 7 -16984343.993 8  20466947.406
   -795621.820 6   -585233.825 5  24383255.906
 -15936237.331 8 -12404183.313 7  21625270.531
 -16664445.38947 -12938089.20245  21710450.3444                   21710448.0394
 11  8 18  2 34  0.0000000  0  9G10G30G12G26G29G05G15G25G02
  -3713884.04646  -2778974.16243  23905362.4534                   23905362.9734
 -13736786.46547 -10660029.25945  21752391.1804                   21752392.6454
 -15470004.712 7 -12039308.966 7  21805565.203
  -8068626.44647  -6190149.07344  23415567.6644                   23415568.4414
 -13539164.809 8 -10533940.650 7  22198521.531
 -21786067.930 8 -16958519.585 8  20473253.578
   -891666.985 6   -660074.043 6  24364979.414
 -15921870.131 8 -12392988.061 7  21628004.383
 -16623507.89548 -12906189.85545  21718239.9924                   21718237.9694
 11  8 18  2 34 30.0000000  0  9G10G30G12G26G29G05G15G25G02
  -3607311.36446  -2695930.49743  23925642.1644                   23925642.9144
 -13701875.02548 -10632825.52345  21759034.6484                   21759036.0084
 -15397320.121 7 -11982671.638 7  21819396.906
  -8163214.57947  -6263854.05444  23397567.8594                   23397568.8754
 -13618122.694 7 -10595466.212 7  22183495.641
 -21752436.090 8 -16932312.932 8  20479653.328
   -987799.602 6   -734982.483 6  24346686.383
 -15906941.167 8 -12381355.097 7  21630845.586
 -16582473.96048 -12874215.36845  21726048.6254                   21726046.4494
 11  8 18  2 35  0.0000000  0  9G10G30G12G26G29G05G15G25G02
  -3500621.03246  -2612795.19643  23945944.7584                   23945946.0124
 -13666432.56147 -10605208.02645  21765779.4694                   21765780.3984
 -15324269.781 7 -11925749.291 7  21833297.531
  -8257675.33247  -6337459.79444  23379591.7664                   23379593.9924
 -13696949.198 7 -10656889.434 7  22168495.133
 -21718315.304 8 -16905725.301 8  20486146.336
  -1084016.320 6   -809956.379 6  24328376.328
 -15891451.282 8 -12369285.042 7  21633793.211
 -16541343.21248 -12842165.43045  21733875.8054                   21733873.3794
 11  8 18  2 35 30.0000000  0  9G10G30G12G26G29G05G15G25G02
  -3393815.44546  -2529570.07043  23966268.9454                   23966270.4304
 -13630460.74347 -10577178.02445  21772624.4144                   21772625.7274
 -15250856.197 7 -11868543.906 7  21847268.063
  -8352004.57147  -6410963.02444  23361642.2034                   23361643.6054
 -13775641.937 7 -10718208.404 7  22153520.883
 -21683707.089 8 -16878757.856 8  20492732.609
  -1180314.375 6   -884993.725 6  24310051.500
 -15875401.126 8 -12356778.417 7  21636847.625
 -16500115.69648 -12810040.10045  21741721.0784                   21741718.6134
 11  8 18  2 36  0.0000000  0  9G10G30G12G26G29G05G15G25G02
  -3286898.28646  -2446257.98644  23986615.0704                   23986615.7504
 -13593962.50648 -10548737.84245  21779569.7424                   21779570.3794
 -15177083.269 7 -11811058.506 7  21861306.969
  -8446199.84647  -6484361.90644  23343717.2274                   23343718.7504
 -13854199.870 8 -10779422.384 7  22138571.359
 -21648614.093 8 -16851412.646 8  20499410.086
  -1276692.033 6   -960092.986 6  24291712.344
 -15858792.792 8 -12343836.834 7  21640007.859
 -16458792.25848 -12777840.01745  21749584.7274                   21749582.4774
 11  8 18  2 36 30.0000000  0  9G10G30G12G26G29G05G15G25G02
  -3179870.99646  -2362860.09643  24006981.6414                   24006982.6724
 -13556939.34848 -10519888.62745  21786614.8054                   21786616.4024
 -15102952.769 7 -11753294.487 7  21875413.063
  -8540256.59747  -6557652.83244  23325819.4384                   23325820.4384
 -13932620.281 8 -10840529.197 7  22123648.828
 -21613037.580 8 -16823690.683 8  20506180.109
  -1373145.787 6  -1035251.598 6  24273356.789
 -15841626.666 8 -12330460.621 7  21643274.555
 -16417372.30848 -12745564.73645  21757466.6094                   21757464.6334
 11  8 18  2 37  0.0000000  0  9G10G30G12G26G29G05G15G25G02
  -3072736.24647  -2279378.47544  24027368.9064                   24027369.4024
 -13519393.67347 -10490632.27645  21793759.8284                   21793760.4414
 -15028467.870 8 -11695254.306 7  21889586.852
  -8634171.57247  -6630833.27643  23307947.6564                   23307948.7114
 -14010901.556 7 -10901527.583 7  22108751.906
 -21576979.892 8 -16795593.767 8  20513041.578
  -1469673.598 7  -1110468.014 6  24254988.883
 -15823904.343 8 -12316650.998 7  21646646.945
 -16375856.46647 -12713214.73545  21765366.8364                   21765364.7704
 11  8 18  2 37 30.0000000  0  9G10G30G12G26G29G05G15G25G02
  -2965496.59646  -2195815.10543  24047775.3444                   24047776.3874
 -13481327.15447 -10460970.04545  21801003.1884                   21801004.6214
 -14953631.440 7 -11636940.201 7  21903827.805
  -8727940.97846  -6703900.31544  23290103.4144                   23290105.2074
 -14089041.176 7 -10962415.551 7  22093882.375
 -21540442.463 8 -16767123.036 8  20519994.703
  -1566272.064 6  -1185739.468 6  24236605.570
 -15805626.525 8 -12302408.539 7  21650124.969
 -16334243.82648 -12680789.29545  21773285.6484                   21773283.1884
 11  8 18  2 38  0.0000000  0  9G10G30G12G26G29G05G15G25G02
  -2858154.27146  -2112171.73043  24068202.6644                   24068202.8874
 -13442741.67047 -10430903.43845  21808346.1414                   21808347.1374
 -14878445.801 7 -11578353.996 7  21918135.344
  -8821560.81147  -6776850.77544  23272287.9144                   23272289.6804
 -14167036.788 7 -11023191.314 7  22079040.477
 -21503426.855 8 -16738279.696 8  20527038.469
  -1662938.751 7  -1261063.993 6  24218210.453
 -15786794.162 8 -12287733.968 7  21653708.766
 -16292534.38948 -12648288.44345  21781222.7584                   21781220.7774
 11  8 18  2 38 30.0000000  0  9G10G30G12G26G29G05G15G25G02
  -2750712.66046  -2028450.98543  24088647.6804                   24088648.1484
 -13403640.58047 -10400435.06745  21815786.9534                   21815787.3834
 -14802914.978 7 -11519498.821 7  21932508.539
  -8915028.50947  -6849682.69744  23254501.7974                   23254503.3984
 -14244887.241 8 -11083853.939 7  22064225.992
 -21465936.339 8 -16709066.304 8  20534172.547
  -1759671.564 6  -1336440.078 6  24199803.227
 -15767409.686 8 -12272629.182 7  21657397.570
 -16250729.29947 -12615713.03845  21789178.1484                   21789175.7274
 11  8 18  2 39  0.0000000  0  9G10G30G12G26G29G05G15G25G02
  -2643173.86146  -1944654.50343  24109111.8524                   24109112.1374
 -13364025.31747 -10369566.02745  21823325.1094                   21823326.1254
 -14727041.058 8 -11460376.293 7  21946946.367
  -9008339.77247  -6922392.69544  23236745.4454                   23236746.4694
 -14322589.666 7 -11144401.284 7  22049439.664
 -21427971.905 8 -16679483.613 7  20541396.781
  -1856466.970 6  -1411865.014 6  24181383.156
 -15747473.503 8 -12257094.486 7  21661191.273
 -16208828.05548 -12583062.70845  21797151.7274                   21797149.1724
 11  8 18  2 39 30.0000000  0  9G10G30G12G26G29G05G15G25G02
  -2535540.15746  -1860784.10143  24129593.3364                   24129593.8674
 -13323898.02848 -10338298.02545  21830961.8984                   21830962.0314
 -14650827.052 8 -11400988.773 7  21961449.859
  -9101491.03047  -6994978.02844  23219019.2974                   23219019.8554
 -14400142.170 8 -11204831.786 7  22034681.930
 -21389535.874 8 -16649533.450 8  20548711.203
  -1953322.641 6  -1487336.842 6  24162952.570
 -15726987.038 8 -12241131.013 7  21665089.703
 -16166830.36548 -12550337.24345  21805143.1174                   21805140.9184
 11  8 18  2 40  0.0000000  0  9G10G30G12G26G29G05G15G25G02
  -2427814.78946  -1776842.23442  24150093.7194                   24150093.9694
 -13283261.59747 -10306633.27245  21838694.1484                   21838694.6134
 -14574276.148 8 -11341338.732 7  21976016.570
  -9194479.17247  -7067436.26544  23201324.1334                   23201325.5434
 -14477543.462 7 -11265144.458 7  22019952.836
 -21350630.699 8 -16619217.715 8  20556114.258
  -2050236.242 6  -1562853.842 6  24144509.750
 -15705951.986 8 -12224740.049 7  21669092.438
 -16124736.90348 -12517537.14745  21813153.5004                   21813150.7774
 11  8 18  2 40 30.0000000  0  9G10G30G12G26G29G05G15G25G02
  -2319999.11346  -1692830.00442  24170609.1174                   24170610.4344
 -13242117.07048 -10274572.60645  21846523.9694                   21846524.7114
 -14497390.371 8 -11281427.732 7  21990647.836
  -9287299.48447  -7139763.72844  23183661.4384                   23183661.9924
 -14554790.064 7 -11325336.578 7  22005253.328
 -21311257.130 8 -16588537.006 8  20563607.297
  -2147204.077 6  -1638413.102 6  24126057.953
 -15684368.824 8 -12207922.016 7  21673199.547
 -16082546.70048 -12484661.64545  21821181.9224                   21821179.7544
 11  8 18  2 41  0.0000000  0  9G10G30G12G26G29G05G15G25G02
  -2212096.61446  -1608750.15742  24191143.0554                   24191143.7344
 -13200467.98048 -10242118.77345  21854449.7114                   21854450.1334
 -14420173.632 8 -11221258.879 7  22005341.961
  -9379949.41547  -7211958.40644  23166030.3054                   23166031.2154
 -14631881.077 7 -11385407.458 7  21990583.016
 -21271418.651 8 -16557494.019 8  20571188.039
  -2244224.360 7  -1714013.230 6  24107595.672
 -15662240.020 8 -12190678.773 7  21677410.375
 -16040260.78848 -12451711.58545  21829228.7664                   21829226.7734
 11  8 18  2 41 30.0000000  0  9G10G30G12G26G29G05G15G25G02
  -2104109.42646  -1524604.33942  24211692.2274                   24211692.8244
 -13158315.77448 -10209272.89445  21862470.8674                   21862470.9104
 -14342627.981 8 -11160833.706 7  22020098.609
  -9472424.52347  -7284016.86944  23148432.3594                   23148433.7114
 -14708813.605 7 -11445354.846 7  21975944.031
 -21231116.264 8 -16526089.559 8  20578857.078
  -2341293.670 6  -1789651.557 6  24089123.281
 -15639566.092 8 -12173010.804 7  21681725.320
 -15997878.59047 -12418686.48845  21837293.7974                   21837291.5204
 11  8 18  2 42  0.0000000  0  9G10G30G12G26G29G05G15G25G02
  -1996039.89746  -1440394.26943  24232257.3524                   24232257.4224
 -13115663.08248 -10176037.03145  21870587.3834                   21870587.8164
 -14264756.907 8 -11100154.950 7  22034916.688
  -9564721.58447  -7355936.58544  23130869.8204                   23130870.6524
 -14785585.835 7 -11505177.314 7  21961334.992
 -21190352.029 7 -16494325.213 8  20586614.367
  -2438409.763 6  -1865326.343 6  24070642.969
 -15616348.800 8 -12154919.412 7  21686143.195
 -15955400.06847 -12385586.34045  21845376.5634                   21845374.8674
 11  8 18  2 42 30.0000000  0  9G10G30G12G26G29G05G15G25G02
  -1887891.05346  -1356122.45843  24252837.1724                   24252837.9844
 -13072512.99748 -10142413.57845  21878798.7584                   21878798.6724
 -14186563.892 8 -11039225.331 7  22049796.023
  -9656837.76147  -7427715.40044  23113340.0234                   23113340.6374
 -14862196.389 8 -11564873.833 7  21946756.297
 -21149129.134 8 -16462203.457 8  20594458.844
  -2535570.268 6  -1941035.720 6  24052153.273
 -15592590.356 8 -12136406.319 7  21690664.766
 -15912826.39648 -12352412.05345  21853478.1254                   21853476.3634
 11  8 18  2 43  0.0000000  0  9G10G30G12G26G29G05G15G25G02
  -1779664.01046  -1271789.73143  24273430.9384                   24273432.4344
 -13028866.04648 -10108402.96945  21887103.9224                   21887104.4224
 -14108050.046 8 -10978045.741 7  22064736.805
  -9748767.54047  -7499348.94244  23095846.4924                   23095847.4454
 -14938641.305 8 -11624441.269 7  21932208.930
 -21107447.794 8 -16429724.489 8  20602390.688
  -2632770.798 6  -2016776.320 6  24033657.555
 -15568290.353 8 -12117471.263 7  21695288.633
 -15870155.51348 -12319162.01145  21861598.7894                   21861595.9224
 11  8 18  2 43 30.0000000  0  9G10G30G12G26G29G05G15G25G02
  -1671362.82946  -1187399.23343  24294041.4454                   24294041.8444
 -12984726.02248 -10074008.12545  21895503.5944                   21895503.8914
 -14029219.900 8 -10916619.653 7  22079738.078
  -9840508.58747  -7570835.41844  23078388.4694                   23078389.2814
 -15014919.886 8 -11683879.086 7  21917693.727
 -21065311.524 8 -16396891.015 8  20610408.594
  -2730010.129 6  -2092547.163 6  24015152.336
 -15543451.745 8 -12098116.514 7  21700015.109
 -15827388.91548 -12285837.37345  21869736.6254                   21869734.4654
 11  8 18  2 44  0.0000000  0  9G10G30G12G26G29G05G15G25G02
  -1562988.43946  -1102951.70043  24314663.6644                   24314665.1414
 -12940094.29647 -10039230.15645  21903996.6564                   21903997.2154
 -13950075.217 8 -10854948.504 7  22094798.789
  -9932056.14947  -7642171.12244  23060967.2584                   23060968.5124
 -15091028.944 8 -11743184.812 7  21903210.172
 -21022721.281 8 -16363703.818 8  20618513.438
  -2827284.260 6  -2168345.057 6  23996642.180
 -15518074.972 8 -12078342.402 7  21704844.453
 -15784525.51248 -12252437.32345  21877893.2664                   21877891.3364
 11  8 18  2 44 30.0000000  0  9G10G30G12G26G29G05G15G25G02
  -1454544.55046  -1018449.95543  24335300.6094                   24335300.3524
 -12894974.14647 -10004071.58245  21912583.5004                   21912583.2584
 -13870619.942 8 -10793035.310 7  22109918.883
 -10023407.73847  -7713354.12644  23043583.7974                   23043585.5474
 -15166967.206 8 -11802357.428 7  21888759.695
 -20979680.366 8 -16330165.436 8  20626703.875
  -2924591.249 6  -2244168.592 6  23978125.063
 -15492162.486 8 -12058150.847 7  21709774.875
 -15741566.15948 -12218962.49845  21886068.4304                   21886066.0204
 11  8 18  2 45  0.0000000  0  9G10G30G12G26G29G05G15G25G02
  -1346033.59946   -933896.00743  24355949.3524                   24355950.0084
 -12849368.06647  -9968534.37945  21921261.8834                   21921261.9454
 -13790857.206 8 -10730882.548 7  22125096.516
 -10114559.47747  -7784381.39344  23026238.1414                   23026238.5084
 -15242732.427 8 -11861395.225 7  21874341.938
 -20936190.664 8 -16296277.335 8  20634979.617
  -3021928.331 6  -2320015.622 6  23959602.352
 -15465715.852 8 -12037543.077 7  21714807.695
 -15698510.68847 -12185412.78645  21894261.0864                   21894259.2544
 11  8 18  2 45 30.0000000  0 10G10G30G12G26G29G05G15G25G02G21
  -1237456.86246   -849290.80243  24376611.2814                   24376611.7704
 -12803277.80047  -9932619.88845  21930031.9774                   21930032.2974
 -13710788.716 8 -10668491.535 7  22140333.055
 -10205506.96147  -7855249.52844  23008931.7274                   23008932.5944
 -15318321.859 8 -11920296.045 7  21859958.023
 -20892253.510 8 -16262040.588 8  20643340.539
  -3119292.083 6  -2395883.409 6  23941074.914
 -15438736.016 8 -12016519.828 7  21719942.078
 -15655358.27948 -12151787.51845  21902473.1484                   21902470.7774
    658318.394 5                  25184818.617
 11  8 18  2 46  0.0000000  0 10G10G30G12G26G29G05G15G25G02G21
  -1128816.71546   -764636.15043  24397284.1804                   24397284.8284
 -12756705.44747  -9896329.75345  21938894.8984                   21938895.0664
 -13630417.575 8 -10605864.686 7  22155627.438
 -10296246.36947  -7925955.50944  22991663.9454                   22991665.4384
 -15393733.071 7 -11979057.982 7  21845607.289
 -20847870.682 8 -16227456.567 8  20651786.422
  -3216679.417 6  -2471769.601 6  23922542.578
 -15411224.114 8 -11995081.985 7  21725177.289
 -15612108.77347 -12118086.61545  21910702.7344                   21910701.0394
    599910.246 5                  25173704.688
 11  8 18  2 46 30.0000000  0 10G10G30G12G26G29G05G15G25G02G21
  -1020117.37146   -679935.39543  24417969.3914                   24417969.2344
 -12709655.06547  -9859667.12545  21947848.1024                   21947848.0904
 -13549748.348 8 -10543005.557 7  22170978.570
 -10386775.76747  -7996497.84244  22974437.1484                   22974438.4804
 -15468965.551 7 -12037680.666 7  21831291.195
 -20803046.076 7 -16192528.304 7  20660316.539
  -3314089.229 6  -2547673.289 6  23904005.711
 -15383183.510 8 -11973232.158 7  21730513.297
 -15568763.83647 -12084311.33545  21918951.1414                   21918949.2384
    541512.284 5                  25162590.461
 11  8 18  2 47  0.0000000  0 10G10G30G12G26G29G05G15G25G02G21
   -911359.03946   -595188.69542  24438664.9064                   24438665.6564
 -12662127.42247  -9822632.60345  21956892.3284                   21956892.5274
 -13468782.322 7 -10479915.163 7  22186385.453
 -10477089.54047  -8066872.17544  22957251.1254                   22957252.2034
 -15544015.092 7 -12096160.794 7  21817010.000
 -20757780.325 8 -16157256.280 7  20668930.320
  -3411516.835 6  -2623590.828 6  23885465.875
 -15354614.008 8 -11950970.204 7  21735949.789
 -15525321.30447 -12050460.02745  21927218.4694                   21927216.1374
    483125.636 5                  25151479.891
 11  8 18  2 47 30.0000000  0 10G10G30G12G26G29G05G15G25G02G21
   -802545.67646   -510399.10843  24459372.1414                   24459372.2234
 -12614126.55347  -9785229.34745  21966026.8054                   21966026.7304
 -13387523.523 7 -10416596.633 7  22201848.438
 -10567185.58047  -8137076.83544  22940105.8754                   22940107.0554
 -15618881.269 8 -12154498.029 7  21802763.563
 -20712076.972 8 -16121643.270 8  20677626.984
  -3508960.743 6  -2699521.102 6  23866923.859
 -15325518.866 8 -11928298.671 7  21741486.750
 -15481783.17947 -12016534.21545  21935503.5554                   21935501.2154
    424748.565 6                  25140371.961
 11  8 18  2 48  0.0000000  0 10G10G30G12G26G29G05G15G25G02G21
   -693678.75246   -425567.76343  24480088.4694                   24480088.5864
 -12565654.10147  -9747458.58945  21975250.5784                   21975250.5664
 -13305974.595 7 -10353052.039 7  22217367.063
 -10657059.17047  -8207108.13944  22923002.8674                   22923004.4774
 -15693560.995 7 -12212690.009 7  21788551.930
 -20665937.172 8 -16085690.181 8  20686407.258
  -3606417.489 6  -2775461.386 6  23848377.961
 -15295898.807 8 -11905218.113 7  21747123.008
 -15438147.84047 -11982532.66145  21943806.9064                   21943805.0044
    366381.16746    866065.33442  25129264.8984                   25129264.2814
 11  8 18  2 48 30.0000000  0 10G10G30G12G26G29G05G15G25G02G21
   -584761.17946   -340696.86442  24500814.5234                   24500815.4304
 -12516712.80847  -9709322.53645  21984564.0394                   21984564.5124
 -13224138.586 7 -10289283.748 7  22232939.664
 -10746707.14647  -8276963.66644  22905944.0164                   22905944.8754
 -15768052.076 7 -12270734.983 7  21774377.094
 -20619363.307 7 -16049398.855 8  20695270.078
  -3703884.402 6  -2851409.566 6  23829829.992
 -15265755.863 8 -11881730.109 7  21752859.328
 -15394415.82647 -11948455.76345  21952128.9774                   21952126.7154
    308022.89746    820591.44242  25118159.4774                   25118160.4774
 11  8 18  2 49  0.0000000  0 10G10G30G12G26G29G05G15G25G02G21
   -475794.026 6                  24521550.008
 -12467304.28547  -9670822.38845  21993966.0784                   21993966.4414
 -13142017.597 7 -10225293.393 7  22248566.922
 -10836124.62547  -8346639.57844  22888928.3284                   22888929.7934
 -15842351.521 7 -12328630.639 7  21760238.227
 -20572356.652 8 -16012770.298 8  20704215.070
  -3801357.562 6  -2927362.583 6  23811282.523
 -15235090.729 8 -11857835.189 7  21758694.281
 -15350585.98147 -11914302.65245  21960469.8444                   21960467.7074
    249673.95046    775124.83942  25107055.2114                   25107057.4774
 11  8 18  2 49 30.0000000  0 10G10G30G12G26G29G05G15G25G02G21
   -366780.974 6                  24542295.461
 -12417432.31547  -9631961.11645  22003456.0004                   22003456.7544
 -13059615.791 7 -10161084.223 7  22264247.250
 -10925309.19547  -8416133.99544  22871957.0394                   22871958.1414
 -15916458.364 7 -12386376.185 7  21746135.703
 -20524920.901 8 -15975807.367 8  20713241.695
  -3898835.318 6  -3003319.234 6  23792732.789
 -15203906.429 8 -11833535.724 7  21764628.172
 -15306659.39548 -11880074.14245  21968828.3984                   21968826.1054
    191332.81945    729664.37242  25095953.6024                   25095955.8634
 11  8 18  2 50  0.0000000  0 10G10G30G12G26G29G05G15G25G02G21
   -257724.25646   -117307.96942  24563048.0084                   24563048.6644
 -12367099.64947  -9592740.85945  22013034.1334                   22013034.9844
 -12976936.271 7 -10096658.641 7  22279980.836
 -11014257.36247  -8485444.21344  22855031.0234                   22855032.1294
 -15990370.437 7 -12443969.986 7  21732071.047
 -20477057.989 8 -15938511.580 7  20722349.734
  -3996314.962 6  -3079277.325 6  23774182.703
 -15172204.859 8 -11808833.219 7  21770660.797
 -15262636.30947 -11845770.42845  21977205.7274                   21977203.3984
    132998.80846    684209.32942  25084853.8524                   25084854.9064
 11  8 18  2 50 30.0000000  0 10G10G30G12G26G29G05G15G25G02G21
   -148625.49346    -32295.97042  24583808.5944                   24583809.8134
 -12316307.93347  -9553162.89745  22022699.5314                   22022699.9024
 -12893981.210 7 -10032018.354 7  22295766.953
 -11102964.40247  -8554566.54344  22838150.1884                   22838151.5554
 -16064084.392 7 -12501409.391 7  21718044.023
 -20428769.280 8 -15900884.009 8  20731538.914
  -4093792.640 6  -3155233.872 6  23755633.242
 -15139986.856 8 -11783728.284 7  21776792.188
 -15218515.57047 -11811390.64045  21985601.6254                   21985599.6174
     74672.17046    638760.14042  25073753.9454                   25073755.7774
 11  8 18  2 51  0.0000000  0  9G30G12G26G29G05G15G25G02G21
 -12265054.38047  -9513225.07045  22032452.8284                   22032453.2894
 -12810748.214 7  -9967161.485 7  22311605.203
 -11191421.40547  -8623494.04044  22821318.0164                   22821318.4264
 -16137592.982 7 -12558688.787 7  21704055.570
 -20380052.066 7 -15862922.547 8  20740809.313
  -4191260.211 6  -3231182.599 6  23737086.063
 -15107248.901 8 -11758218.193 7  21783022.078
 -15174291.47447 -11776930.29445  21994017.2584                   21994014.7934
     16357.89046    593320.59642  25062657.2584                   25062658.3754
 11  8 18  2 51 30.0000000  0  9G30G12G26G29G05G15G25G02G21
 -12213354.02547  -9472939.07845  22042291.2194                   22042291.1484
 -12727252.398 7  -9902099.831 7  22327494.563
 -11279636.90947  -8692233.35944  22804530.4774                   22804531.6844
 -16210906.082 8 -12615815.846 7  21690104.367
 -20330920.601 8 -15824638.279 8  20750158.852
  -4288727.048 6  -3307130.698 6  23718538.625
 -15074005.065 8 -11732313.917 7  21789347.977
 -15129976.27447 -11742398.97345  22002450.0314                   22002448.1844
    -41957.02446    547880.47542  25051559.6414                   25051560.9534
 11  8 18  2 52  0.0000000  0  9G30G12G26G29G05G15G25G02G21
 -12161201.50847  -9432300.74345  22052215.3754                   22052215.7114
 -12643488.955 7  -9836829.626 7  22343433.969
 -11367599.21147  -8760775.34044  22787792.1954                   22787793.0204
 -16284013.538 8 -12672782.668 7  21676192.484
 -20281369.162 8 -15786026.763 8  20759588.008
  -4386182.254 6  -3383069.756 6  23699993.289
 -15040249.279 8 -11706010.715 7  21795771.484
 -15085562.07947 -11707790.51245  22010901.8834                   22010900.0394
   -100265.02846    502445.80842  25040463.8754                   25040465.4024
 11  8 18  2 52 30.0000000  0  9G30G12G26G29G05G15G25G02G21
 -12108602.54147  -9391314.55245  22062224.3524                   22062225.2384
 -12559464.137 7  -9771355.755 7  22359423.164
 -11455307.62647  -8829119.52644  22771101.7504                   22771102.3484
 -16356915.975 7 -12729589.740 7  21662319.492
 -20231402.895 8 -15747092.009 8  20769096.109
  -4483625.879 6  -3458999.821 6  23681450.500
 -15005986.489 8 -11679312.441 7  21802291.641
 -15041051.65547 -11673107.05745  22019371.7584                   22019369.8594
   -158569.52346    457013.89042  25029368.4774                   25029370.5554
 11  8 18  2 53  0.0000000  0  9G30G12G26G29G05G15G25G02G21
 -12055556.95647  -9349980.34745  22072318.8914                   22072319.6024
 -12475177.944 7  -9705678.234 7  22375462.883
 -11542755.77647  -8897260.90944  22754460.8594                   22754461.7424
 -16429608.404 7 -12786233.159 7  21648486.539
 -20181021.524 8 -15707833.789 7  20778683.992
  -4581052.368 6  -3534916.483 6  23662910.430
 -14971215.757 8 -11652218.386 7  21808907.805
 -14996442.11347 -11638346.39045  22027860.8444                   22027858.5594
   -216868.63046    411586.14042  25018274.8204                   25018275.6134
 11  8 18  2 53 30.0000000  0  9G30G12G26G29G05G15G25G02G21
 -12002069.16947  -9308301.55045  22082497.7504                   22082497.7344
 -12390635.192 7  -9639800.763 7  22391550.609
 -11629941.66247  -8965197.93844  22737869.7034                   22737870.1374
 -16502090.331 7 -12842712.521 7  21634693.594
 -20130228.843 8 -15668255.074 7  20788349.125
  -4678460.444 6  -3610818.808 6  23644374.102
 -14935940.845 8 -11624731.454 7  21815620.602
 -14951735.05547 -11603509.72045  22036368.0004                   22036365.8134
   -275164.41946    366160.89242  25007181.5394                   25007182.6954
 11  8 18  2 54  0.0000000  0  9G30G12G26G29G05G15G25G02G21
 -11948141.20147  -9266279.77245  22092759.7814                   22092759.8634
 -12305838.419 7  -9573725.382 7  22407686.461
 -11716860.85947  -9032927.14044  22721329.7734                   22721330.4264
 -16574358.902 7 -12899025.646 7  21620941.680
 -20079026.461 7 -15628357.107 8  20798092.859
  -4775846.337 6  -3686703.852 6  23625842.492
 -14900162.778 8 -11596852.454 7  21822429.063
 -14906929.48547 -11568596.28445  22044894.3594                   22044892.4574
   -333456.28146    320738.84542  24996088.0704                   24996090.4184
 11  8 18  2 54 30.0000000  0  9G30G12G26G29G05G15G25G02G21
 -11893776.31747  -9223917.52145  22103104.5784                   22103105.7894
 -12220790.815 7  -9507454.537 7  22423870.484
 -11803510.17747  -9100446.02844  22704840.8984                   22704841.6764
 -16646412.143 8 -12955171.007 7  21607230.328
 -20027417.560 8 -15588142.366 7  20807913.305
  -4873207.873 6  -3762569.914 6  23607314.516
 -14863884.107 8 -11568583.376 7  21829332.695
 -14862025.87047 -11533606.46545  22053439.0234                   22053437.1684
   -391745.86146    275318.53042  24984995.8524                   24984998.0984
 11  8 18  2 55  0.0000000  0  9G30G12G26G29G05G15G25G02G21
 -11838976.67147  -9181216.51045  22113532.7504                   22113533.5274
 -12135494.991 7  -9440990.287 7  22440101.664
 -11889885.50447  -9167751.46944  22688404.3054                   22688404.9924
 -16718247.361 8 -13011146.463 7  21593560.609
 -19975403.330 8 -15547611.809 7  20817811.492
  -4970541.518 7  -3838414.233 6  23588793.195
 -14827106.281 8 -11539925.329 7  21836331.445
 -14817023.68247 -11498539.84545  22062002.8284                   22062001.3714
   -450032.82446    229900.20042  24973904.2664                   24973905.6334
 11  8 18  2 55 30.0000000  0  9G30G12G26G29G05G15G25G02G21
 -11783745.47647  -9138179.22845  22124042.6724                   22124043.6294
 -12049954.642 7  -9374335.492 7  22456379.422
 -11975983.55847  -9234840.80044  22672020.2814                   22672020.6724
 -16789862.896 8 -13066950.739 7  21579932.539
 -19922986.513 8 -15506767.536 7  20827785.836
  -5067844.515 7  -3914234.700 6  23570277.109
 -14789831.737 8 -11510880.247 7  21843424.766
 -14771922.94847 -11463396.42345  22070584.8674                   22070583.1024
   -508318.29846    184483.10343  24962813.3524                   24962814.6604
 11  8 18  2 56  0.0000000  0  9G30G12G26G29G05G15G25G02G21
 -11728085.13547  -9094807.54445  22134634.9844                   22134635.4304
 -11964172.288 7  -9307492.125 7  22472703.578
 -12061800.12147  -9301710.82144  22655690.0864                   22655690.0744
 -16861255.860 8 -13122581.586 7  21566346.969
 -19870169.500 8 -15465611.419 8  20837836.680
  -5165113.880 6  -3990028.948 6  23551766.438
 -14752062.187 8 -11481449.432 7  21850611.742
 -14726723.18447 -11428175.84045  22079186.2584                   22079184.0664
   -566602.44746    139066.97342  24951722.0004                   24951723.6454
 11  8 18  2 56 30.0000000  0  9G30G12G26G29G05G15G25G02G21
 -11671998.78247  -9051103.90945  22145307.8284                   22145308.3484
 -11878151.408 7  -9240462.887 7  22489073.211
 -12147332.07347  -9368359.06644  22639413.7274                   22639414.7854
 -16932424.398 8 -13178037.569 7  21552803.797
 -19816954.500 8 -15424145.189 7  20847963.234
  -5262346.915 7  -4065794.824 6  23533263.836
 -14713799.976 8 -11451634.742 7  21857892.992
 -14681424.97048 -11392878.52845  22087806.2114                   22087803.9574
   -624886.01546     93651.29342  24940630.5634                   24940632.5784
 11  8 18  2 57  0.0000000  0  9G30G12G26G29G05G15G25G02G21
 -11615489.11947  -9007070.42845  22156060.9614                   22156061.6884
 -11791895.284 7  -9173250.332 7  22505486.805
 -12232575.62447  -9434782.59944  22623192.1804                   22623192.6994
 -17003366.131 8 -13233316.807 7  21539304.023
 -19763344.181 8 -15382370.908 7  20858164.617
  -5359540.439 7  -4141529.964 6  23514769.234
 -14675047.157 8 -11421437.755 7  21865267.477
 -14636027.52547 -11357503.90245  22096445.5474                   22096442.9184
   -683169.38046     48235.75642  24929539.9694                   24929541.2424
 11  8 18  2 57 30.0000000  0  9G30G12G26G29G05G15G25G02G21
 -11558558.80747  -8962709.16545  22166894.0474                   22166895.0664
 -11705406.278 7  -9105856.328 7  22521945.336
 -12317526.63047  -9500978.12544  22607026.6884                   22607027.2384
 -17074078.552 8 -13288417.360 7  21525847.836
 -19709340.281 8 -15340289.942 7  20868441.492
  -5456691.314 7  -4217231.864 6  23496281.797
 -14635805.530 8 -11390859.864 7  21872734.633
 -14590530.51047 -11322051.69245  22105103.6564                   22105100.8244
   -741452.92046      2820.16442  24918448.4304                   24918450.2934
 11  8 18  2 58  0.0000000  0  9G30G12G26G29G05G15G25G02G21
 -11501210.16947  -8918021.93645  22177807.5004                   22177808.3094
 -11618687.198 7  -9038283.043 6  22538447.266
 -12402181.28347  -9566942.74844  22590917.2424                   22590918.4454
 -17144559.040 8 -13343337.215 7  21512436.242
 -19654944.876 8 -15297903.918 7  20878792.156
  -5553796.526 6  -4292898.201 6  23477803.109
 -14596076.862 8 -11359902.489 7  21880295.031
 -14544933.49947 -11286521.55545  22113780.2734                   22113777.3364
   -799736.81446    -42595.72442  24907357.3834                   24907358.3594
 11  8 18  2 58 30.0000000  0  9G30G12G26G29G05G15G25G02G21
 -11443446.72047  -8873011.47745  22188799.7734                   22188800.1684
 -11531741.848 7  -8970533.432 7  22554993.102
 -12486536.43847  -9632674.00744  22574864.9384                   22574865.4654
 -17214806.036 8 -13398075.120 7  21499068.391
 -19600161.184 8 -15255215.326 7  20889217.484
  -5650853.442 7  -4368526.863 6  23459333.633
 -14555863.836 8 -11328567.676 7  21887947.383
 -14499236.92947 -11250913.85245  22122475.8674                   22122473.2814
   -858022.17546    -88012.76542  24896265.8444                   24896267.3714
 11  8 18  2 59  0.0000000  0  9G30G12G26G29G05G15G25G02G21
 -11385271.42847  -8827680.10345  22199869.9454                   22199869.9694
 -11444573.185 7  -8902609.838 7  22571580.734
 -12570588.59647  -9698169.15044  22558870.4614                   22558871.1334
 -17284817.181 8 -13452629.232 7  21485745.664
 -19544991.546 8 -15212226.004 7  20899716.055
  -5747859.026 7  -4444115.592 6  23440874.352
 -14515168.704 8 -11296857.196 7  21895691.461
 -14453440.61847 -11215228.45445  22131190.1954                   22131187.7464
   -916309.35546   -133431.24743  24885174.6804                   24885175.3094
 11  8 18  2 59 30.0000000  0  9G30G12G26G29G05G15G25G02G21
 -11326687.10847  -8782030.00145  22211018.5474                   22211018.9384
 -11357184.392 7  -8834514.675 7  22588209.922
 -12654333.96647  -9763425.26645  22542934.3754                   22542935.6134
 -17354590.144 8 -13506997.747 7  21472468.680
 -19489438.170 8 -15168937.665 7  20910287.359
  -5844810.548 7  -4519662.168 6  23422425.227
 -14473993.641 8 -11264772.745 7  21903526.664
 -14407544.51647 -11179465.27245  22139923.9384                   22139921.8244
   -974598.98246   -178851.57043  24874082.9384                   24874083.4534
 11  8 18  3  0  0.0000000  0  9G30G12G26G29G05G15G25G02G21
 -11267696.12847  -8736063.01245  22222244.1334                   22222244.7854
 -11269578.258 7  -8766250.157 7  22604881.180
 -12737768.50947  -9828439.14545  22527056.8984                   22527057.9384
 -17424121.919 8 -13561178.338 7  21459236.680
 -19433502.878 8 -15125351.715 7  20920931.430
  -5941704.355 7  -4595163.785 6  23403986.148
 -14432340.295 8 -11232315.603 7  21911453.055
 -14361548.09147 -11143623.91245  22148677.0234                   22148674.5274
  -1032891.25146   -224273.99143  24862988.9144                   24862990.1564
 11  8 18  3  0 30.0000000  0  9G30G12G26G29G05G15G25G02G21
 -11208301.64747  -8689781.63245  22233546.7664                   22233546.4414
 -11181757.704 7  -8697818.583 7  22621592.531
 -12820888.56447  -9893207.97945  22511239.5634                   22511240.6524
 -17493410.783 8 -13615169.651 7  21446051.719
 -19377188.310 8 -15081470.235 7  20931647.633
  -6038538.088 7  -4670618.560 6  23385559.727
 -14390211.176 8 -11199487.751 7  21919469.883
 -14315450.99148 -11107704.11945  22157449.2584                   22157446.8404
  -1091186.77246   -269698.97643  24851896.1884                   24851897.2344
 11  8 18  3  1  0.0000000  0  9G30G12G26G29G05G15G25G02G21
 -11148506.46447  -8643188.00045  22244924.9384                   22244925.0984
 -11093726.002 7  -8629222.471 6  22638344.016
 -12903690.66447  -9957729.06145  22495483.3204                   22495484.6334
 -17562454.016 8 -13668969.561 7  21432913.078
 -19320497.331 8 -15037295.444 7  20942435.961
  -6135308.175 7  -4746023.796 6  23367144.867
 -14347608.430 8 -11166290.820 7  21927576.922
 -14269252.97848 -11071705.67945  22166240.5004                   22166238.0354
  -1149486.33546   -315127.09643  24840802.2664                   24840802.8524
 11  8 18  3  1 30.0000000  0  9G30G12G26G29G05G15G25G02G21
 -11088313.26047  -8596284.21945  22256379.2814                   22256379.6764
 -11005485.937 7  -8560464.012 7  22655135.703
 -12986170.90147 -10021999.34445  22479787.5314                   22479787.7934
 -17631249.472 8 -13722576.368 7  21419821.602
 -19263431.670 8 -14992828.681 7  20953294.984
  -6232011.610 7  -4821377.066 6  23348742.508
 -14304534.059 8 -11132726.390 7  21935773.867
 -14222954.04647 -11035628.60745  22175050.7894                   22175047.9654
  -1207789.74746   -360558.28243  24829707.6564                   24829707.9694
 11  8 18  3  2  0.0000000  0  9G30G12G26G29G05G15G25G02G21
 -11027725.67347  -8549073.14745  22267908.7894                   22267909.4224
 -10917041.394 7  -8491546.186 7  22671966.125
 -13068326.18347 -10086016.40345  22464153.8834                   22464154.8404
 -17699795.520 8 -13775988.856 7  21406777.180
 -19205994.049 8 -14948072.084 7  20964225.375
  -6328646.012 7  -4896676.569 6  23330354.016
 -14260990.910 8 -11098796.653 7  21944059.984
 -14176554.15847 -10999472.86345  22183880.3444                   22183878.1524
  -1266098.34246   -405993.40243  24818611.4844                   24818612.6524
 11  8 18  3  2 30.0000000  0  9G30G12G26G29G05G15G25G02G21
 -10966746.45747  -8501556.88745  22279513.0864                   22279513.1954
 -10828395.088 7  -8422471.162 7  22688835.672
 -13150152.75647 -10149777.33345  22448582.9304                   22448583.7304
 -17768089.313 8 -13829204.768 7  21393781.578
 -19148187.057 8 -14903027.678 7  20975225.500
  -6425207.927 7  -4971919.545 6  23311978.547
 -14216981.188 8 -11064503.378 7  21952434.359
 -14130053.01047 -10963238.20845  22192729.5554                   22192726.7384
  -1324412.40046   -451432.80643  24807514.7734                   24807515.0554
 11  8 18  3  3  0.0000000  0  9G30G12G26G29G05G15G25G02G21
 -10905377.62847  -8453737.03245  22291191.0784                   22291191.5634
 -10739549.327 7  -8353240.701 7  22705741.203
 -13231646.15147 -10213278.63745  22433074.9534                   22433076.1684
 -17836128.207 8 -13882222.078 7  21380834.625
 -19090012.121 8 -14857696.547 7  20986295.523
  -6521693.967 7  -5047103.421 6  23293617.609
 -14172506.318 8 -11029847.654 7  21960897.953
 -14083449.50747 -10926923.82945  22201597.0164                   22201595.3984
  -1382731.51946   -496876.14443  24796416.3914                   24796416.8324
 11  8 18  3  3 30.0000000  0  9G30G12G26G29G05G15G25G02G21
 -10843622.62947  -8405616.27145  22302942.2344                   22302943.5164
 -10650507.790 7  -8283857.725 7  22722686.211
 -13312803.06947 -10276517.76245  22417631.3834                   22417632.2194
 -17903909.998 8 -13935039.052 7  21367935.891
 -19031471.869 8 -14812080.778 7  20997435.539
  -6618101.374 7  -5122226.026 6  23275271.938
 -14127568.951 8 -10994831.523 7  21969449.156
 -14036743.89148 -10890529.84745  22210485.2894                   22210482.5434
  -1441056.66946   -542324.20643  24785317.6254                   24785318.0784
 11  8 18  3  4  0.0000000  0  9G30G12G26G29G05G15G25G02G21
 -10781485.24547  -8357197.56145  22314766.3054                   22314766.9414
 -10561274.177 7  -8214325.054 6  22739666.305
 -13393620.88847 -10339492.63545  22402252.1954                   22402253.6524
 -17971433.228 8 -13987654.535 7  21355086.344
 -18972570.111 8 -14766183.303 7  21008644.281
  -6714427.882 7  -5197285.597 6  23256941.039
 -14082172.283 8 -10959457.506 7  21978087.648
 -13989937.15847 -10854057.09445  22219392.3914                   22219390.3284
  -1499389.35246   -587778.10942  24774217.4774                   24774218.1604
 11  8 18  3  4 30.0000000  0  9G30G12G26G29G05G15G25G02G21
 -10718967.32847  -8308482.31345  22326663.6564                   22326664.0514
 -10471850.315 7  -8144644.153 6  22756683.133
 -13474094.73447 -10402199.50545  22386938.9224                   22386940.0004
 -18038694.244 8 -14040065.690 7  21342287.094
 -18913307.830 8 -14720004.887 7  21019921.516
  -6810669.236 7  -5272278.806 6  23238627.578
 -14036317.552 8 -10923726.562 7  21986813.758
 -13943027.49947 -10817504.13945  22228319.0474                   22228317.2114
  -1557728.68146   -633237.28043  24763115.9454                   24763116.4454
 11  8 18  3  5  0.0000000  0  9G30G12G26G29G05G15G25G02G21
 -10656072.63947  -8259473.48145  22338632.1334                   22338632.2704
 -10382240.410 7  -8074818.277 7  22773735.578
 -13554221.73847 -10464636.08645  22371691.0004                   22371691.5744
 -18105691.798 8 -14092271.544 7  21329538.023
 -18853688.197 8 -14673548.029 7  21031266.859
  -6906823.248 7  -5347203.953 6  23220330.344
 -13990007.923 8 -10887641.124 7  21995626.164
 -13896015.61948 -10780871.53245  22237265.5394                   22237263.1174
  -1616076.01146   -678702.57243  24752012.1024                   24752012.6564
 11  8 18  3  5 30.0000000  0  9G30G12G26G29G05G15G25G02G21
 -10592803.60847  -8210172.94245  22350671.2584                   22350672.4734
 -10292446.989 7  -8004849.394 6  22790823.016
 -13633997.80847 -10526799.21445  22356510.4064                   22356511.0664
 -18172422.759 8 -14144269.681 7  21316839.273
 -18793713.025 8 -14626814.128 7  21042679.320
  -7002886.547 7  -5422058.407 6  23202049.563
 -13943245.129 8 -10851202.580 7  22004524.758
 -13848900.71848 -10744158.64145  22246230.8594                   22246229.1174
  -1674431.22046   -724174.05443  24740907.9614                   24740907.6094
 11  8 18  3  6  0.0000000  0  9G30G12G26G29G05G15G25G02G21
 -10529163.83047  -8160583.52845  22362782.1564                   22362782.6294
 -10202473.558 7  -7934740.217 6  22807944.648
 -13713419.91447 -10588686.54145  22341397.1094                   22341397.5784
 -18238885.598 8 -14196058.895 7  21304192.047
 -18733385.362 8 -14579805.543 7  21054159.648
  -7098856.463 7  -5496840.098 6  23183786.766
 -13896032.279 8 -10814413.354 7  22013509.117
 -13801683.04147 -10707365.66845  22255215.7114                   22255214.6454
  -1732795.46546   -769652.60043  24729800.9924                   24729800.9884
 11  8 18  3  6 30.0000000  0  9G30G12G26G29G05G15G25G02G21
 -10465155.80847  -8110707.15245  22374962.5474                   22374962.7464
 -10112322.690 7  -7864492.825 6  22825099.188
 -13792483.80547 -10650294.72245  22326351.0554                   22326351.6954
 -18305077.124 8 -14247636.711 7  21291596.266
 -18672706.962 8 -14532523.668 7  21065706.164
  -7194729.452 7  -5571546.265 6  23165542.508
 -13848371.124 8 -10777274.784 7  22022578.633
 -13754361.74847 -10670491.96745  22264220.8984                   22264218.9924
  -1791168.69946   -815138.14843  24718693.2584                   24718693.1254
 11  8 18  3  7  0.0000000  0  9G30G12G26G29G05G15G25G02G21
 -10400782.22247  -8060545.91045  22387212.5704                   22387213.2344
 -10021997.311 7  -7794109.436 6  22842287.938
 -13871185.56047 -10711620.72445  22311374.9384                   22311375.4384
 -18370994.815 8 -14299001.146 7  21279052.641
 -18611680.165 8 -14484970.317 7  21077319.031
  -7290502.230 7  -5646174.320 6  23147318.055
 -13800263.821 8 -10739788.570 7  22031732.906
 -13706936.47647 -10633537.24045  22273245.2344                   22273243.7704
  -1849551.04446   -860630.78143  24707583.3984                   24707582.3094
 11  8 18  3  7 30.0000000  0  9G30G12G26G29G05G15G25G02G21
 -10336046.44547  -8010102.46445  22399531.4064                   22399531.3754
  -9931500.651 7  -7723592.546 7  22859508.625
 -13949522.01547 -10772662.07745  22296467.2584                   22296468.4884
 -18436637.084 8 -14350150.959 7  21266561.492
 -18550307.627 8 -14437147.551 7  21088997.875
  -7386172.186 7  -5720722.307 6  23129112.953
 -13751713.278 8 -10701956.981 7  22040972.039
 -13659407.24247 -10596501.49845  22282290.3594                   22282288.4304
  -1907943.50246   -906131.27643  24696471.2034                   24696470.5434
 11  8 18  3  8  0.0000000  0  9G30G12G26G29G05G15G25G02G21
 -10270951.25747  -7959378.94445  22411918.0394                   22411918.7774
  -9840835.482 7  -7652944.410 6  22876761.266
 -14027489.32647 -10833415.79945  22281630.5084                   22281631.3244
 -18502000.965 8 -14401083.842 7  21254122.672
 -18488591.539 8 -14389057.085 7  21100742.555
  -7481735.724 7  -5795187.340 6  23110927.359
 -13702721.488 8 -10663781.573 7  22050294.758
 -13611773.29247 -10559384.16945  22291354.6024                   22291352.3204
  -1966346.09146   -951639.68843  24685357.7504                   24685356.3954
 11  8 18  3  8 30.0000000  0  9G30G12G26G29G05G15G25G02G21
 -10205500.69047  -7908378.52245  22424373.1884                   22424373.8134
  -9750006.017 7  -7582168.196 6  22894045.820
 -14105084.85047 -10893879.80045  22266864.4384                   22266865.3754
 -18567085.124 8 -14451798.756 7  21241737.727
 -18426535.246 8 -14340701.528 7  21112551.453
  -7577190.773 7  -5869567.806 6  23092762.742
 -13653291.965 8 -10625265.068 7  22059701.195
 -13564035.58847 -10522185.98345  22300438.5864                   22300436.8794
  -2024760.18546   -997157.05543  24674241.2194                   24674239.9924
 11  8 18  3  9  0.0000000  0  9G30G12G26G29G05G15G25G02G21
 -10139696.64347  -7857102.64845  22436895.3444                   22436895.5234
  -9659013.958 7  -7511265.331 6  22911360.984
 -14182303.92947 -10954050.47145  22252170.4304                   22252171.4804
 -18631886.304 8 -14502293.183 7  21229406.531
 -18364140.102 8 -14292081.930 7  21124424.703
  -7672533.168 7  -5943860.555 6  23074619.586
 -13603426.120 7 -10586408.578 7  22069190.289
 -13516192.56447 -10484905.72045  22309543.4304                   22309540.8674
  -2083185.19546  -1042682.93343  24663123.2194                   24663122.7664
 11  8 18  3  9 30.0000000  0  9G30G12G26G29G05G15G25G02G21
 -10073543.06647  -7805554.42445  22449484.0474                   22449484.6914
  -9567863.449 7  -7440238.987 6  22928706.406
 -14259143.82547 -11013925.69445  22237548.5474                   22237548.8014
 -18696402.822 8 -14552565.808 7  21217129.961
 -18301409.418 8 -14243200.869 7  21136361.875
  -7767760.843 7  -6018063.876 6  23056498.164
 -13553127.273 8 -10547214.665 7  22078761.516
 -13468244.91347 -10447543.94945  22318667.7114                   22318665.0474
  -2141622.40246  -1088218.37442  24652002.9064                   24652002.4534
 11  8 18  3 10  0.0000000  0  9G30G12G26G29G05G15G25G02G21
 -10007043.04047  -7753736.22545  22462138.6414                   22462138.8284
  -9476557.598 7  -7369091.568 7  22946081.289
 -14335600.97947 -11073502.65945  22222999.3594                   22223000.1134
 -18760632.348 8 -14602614.787 7  21204906.992
 -18238345.562 8 -14194060.199 7  21148362.516
  -7862870.431 7  -6092175.207 6  23038399.898
 -13502397.982 8 -10507685.366 7  22088415.016
 -13420192.31848 -10410100.39445  22327811.8364                   22327809.2814
  -2200072.22046  -1133763.57043  24640880.9304                   24640880.6644
 11  8 18  3 10 30.0000000  0  9G30G12G26G29G05G15G25G02G21
  -9940198.92147  -7701649.91045  22474858.2974                   22474858.4654
  -9385099.083 7  -7297825.226 7  22963485.750
 -14411670.99247 -11132777.97545  22208523.6954                   22208524.0354
 -18824571.921 8 -14652437.820 7  21192739.484
 -18174950.381 8 -14144661.358 7  21160425.914
  -7957858.112 7  -6166191.515 6  23020323.734
 -13451240.010 8 -10467822.021 7  22098150.242
 -13372033.94948 -10372574.40945  22336976.1414                   22336973.5124
  -2258534.34046  -1179318.35343  24629756.1644                   24629755.7544
 11  8 18  3 11  0.0000000  0  9G30G12G26G29G05G15G25G02G21
  -9873014.67847  -7649298.56245  22487643.0084                   22487643.7894
  -9293491.647 7  -7226442.828 6  22980918.133
 -14487351.45547 -11191749.71745  22194122.2274                   22194123.0204
 -18888220.125 8 -14702033.814 7  21180627.906
 -18111227.257 8 -14095006.960 7  21172552.359
  -8052722.242 7  -6240111.587 6  23002271.773
 -13399656.856 8 -10427627.373 7  22107966.000
 -13323770.39347 -10334966.47145  22346160.2274                   22346157.9414
  -2317010.39946  -1224884.04343  24618627.3754                   24618627.7734
 11  8 18  3 11 30.0000000  0 10G18G30G12G26G29G05G15G25G02G21
    569239.756 5                  24692655.578
  -9805491.93547  -7596683.43845  22500492.1484                   22500492.5204
  -9201736.730 7  -7154945.501 6  22998378.352
 -14562636.97847 -11250413.74745  22179795.5084                   22179795.9654
 -18951572.918 8 -14751399.629 7  21168572.359
 -18047177.006 8 -14045097.676 7  21184740.375
  -8147458.040 7  -6313931.628 6  22984244.344
 -13347649.550 8 -10387102.216 7  22117862.656
 -13275399.59047 -10297274.94645  22355364.6254                   22355362.4104
  -2375499.07346  -1270459.55243  24607498.1254                   24607498.3134
 11  8 18  3 12  0.0000000  0 10G18G30G12G26G29G05G15G25G02G21
    479243.686 5                  24675530.094
  -9737640.78447  -7543812.40945  22513403.6174                   22513404.6484
  -9109844.385 7  -7083341.081 7  23015864.727
 -14637531.22147 -11308772.88145  22165543.3674                   22165544.5904
 -19014634.949 8 -14800538.869 7  21156571.930
 -17982809.372 8 -13994941.076 7  21196989.109
  -8242069.166 7  -6387654.552 6  22966240.508
 -13295227.614 8 -10346254.001 7  22127838.766
 -13226928.23847 -10259505.09545  22364588.1804                   22364586.4024
  -2434008.01546  -1316050.86243  24596364.0234                   24596364.1994
 11  8 18  3 12 30.0000000  0 10G18G30G12G26G29G05G15G25G02G21
                                  24658435.547
  -9669451.74347  -7490678.12245  22526379.3984                   22526380.5634
  -9017805.016 7  -7011622.094 6  23033379.063
 -14712018.22147 -11366814.69045  22151369.1254                   22151369.9924
 -19077391.505 8 -14849440.092 7  21144630.000
 -17918113.964 8 -13944529.069 7  21209300.156
  -8336540.117 7  -6461268.260 6  22948262.914
 -13242381.149 8 -10305074.933 7  22137895.289
 -13178343.78047 -10221647.12245  22373834.0554                   22373832.2774
  -2492524.95846  -1361648.42443  24585228.9614                   24585228.5664
 11  8 18  3 13  0.0000000  0  9G30G12G26G29G05G15G25G02G21
  -9600930.19647  -7437284.72645  22539418.6334                   22539419.9774
  -8925624.216 7  -6939792.918 6  23050920.484
 -14786096.70047 -11424538.16745  22137272.3524                   22137273.0634
 -19139842.257 7 -14898103.013 7  21132745.672
 -17853095.266 8 -13893865.149 7  21221672.992
  -8430870.276 7  -6534772.217 6  22930313.008
 -13189114.927 8 -10263568.827 7  22148031.438
 -13129647.86347 -10183702.27745  22383100.7114                   22383098.3714
  -2551052.49546  -1407254.22643  24574091.3134                   24574090.5314
 11  8 18  3 13 30.0000000  0 10G18G30G12G26G29G05G15G25G02G21
                                  24624336.820
  -9532092.54147  -7383644.98845  22552518.7344                   22552519.1764
  -8833318.099 7  -6867866.087 6  23068485.867
 -14859776.44347 -11481950.93645  22123251.2664                   22123252.5274
 -19201998.323 8 -14946536.310 7  21120917.797
 -17787769.182 8 -13842961.726 7  21234104.422
  -8525069.330 7  -6608174.052 6  22912387.414
 -13135444.900 8 -10221748.045 7  22158244.109
 -13080853.59447 -10145680.79045  22392385.9774                   22392383.6844
  -2609604.86846  -1452879.39543  24562949.0084                   24562949.1054
 11  8 18  3 14  0.0000000  0 10G18G30G12G26G29G05G15G25G02G21
  -1454528.043 5                  24607336.211
  -9462926.57647  -7329749.45545  22565680.3914                   22565681.1994
  -8740874.642 7  -6795832.226 6  23086077.352
 -14933038.60647 -11539038.32045  22109310.5314                   22109310.9574
 -19263842.095 8 -14994726.267 7  21109149.352
 -17722123.001 8 -13791808.860 7  21246595.758
  -8619119.252 7  -6681459.658 6  22894490.000
 -13081358.466 8 -10179602.798 7  22168536.641
 -13031945.41747 -10107570.55145  22401692.9774                   22401690.4264
  -2668166.85246  -1498512.06043  24551804.9454                   24551804.8984
 11  8 18  3 14 30.0000000  0 10G18G30G12G26G29G05G15G25G02G21
  -1543708.99145   -359011.13443  24590365.4534                   24590367.5474
  -9393443.44147  -7275606.75944  22578902.8054                   22578902.8984
  -8648304.956 7  -6723700.004 6  23103692.500
 -15005887.41247 -11595803.61045  22095447.6804                   22095448.2194
 -19325379.290 8 -15042677.318 7  21097439.609
 -17656167.115 8 -13740414.653 7  21259147.211
  -8713024.857 7  -6754632.804 7  22876620.281
 -13026866.097 8 -10137141.243 7  22178905.766
 -12982931.11847 -10069377.59845  22411019.7344                   22411017.4534
  -2726746.73246  -1544158.63043  24540657.0704                   24540656.9264
 11  8 18  3 15  0.0000000  0 10G18G30G12G26G29G05G15G25G02G21
  -1632723.84946   -428373.11142  24573425.6804                   24573428.8754
  -9323644.01447  -7221217.61245  22592185.0234                   22592185.6914
  -8555609.756 7  -6651469.980 6  23121331.844
 -15078317.41647 -11652242.56045  22081664.5164                   22081665.3594
 -19386605.038 8 -15090385.688 7  21085788.836
 -17589901.424 8 -13688779.056 7  21271757.289
  -8806780.577 7  -6827689.168 6  22858779.727
 -12971968.225 8 -10094363.694 7  22189352.906
 -12933807.94747 -10031099.82345  22420367.6254                   22420365.1174
  -2785342.68746  -1589817.75743  24529506.4534                   24529506.3244
 11  8 18  3 15 30.0000000  0 10G18G30G12G26G29G05G15G25G02G21
  -1721571.57946   -497604.91842  24556519.0234                   24556521.3714
  -9253531.78947  -7166584.70545  22605526.8914                   22605527.4734
  -8462792.286 7  -6579144.710 6  23138994.695
 -15150325.40948 -11708352.65945  22067962.1094                   22067962.6724
 -19447517.621 8 -15137850.025 7  21074197.289
 -17523329.143 8 -13636904.550 7  21284425.281
  -8900383.777 7  -6900626.675 6  22840967.219
 -12916667.907 8 -10051272.566 7  22199876.516
 -12884575.80647  -9992737.15245  22429736.1094                   22429733.7234
  -2843955.72446  -1635490.20243  24518353.4304                   24518352.3164
 11  8 18  3 16  0.0000000  0 10G18G30G12G26G29G05G15G25G02G21
  -1810251.44346   -566705.92842  24539642.0394                   24539646.4614
  -9183110.33047  -7111710.83745  22618927.7194                   22618928.2584
  -8369855.970 7  -6506726.810 6  23156679.711
 -15221908.12947 -11764131.39745  22054340.1484                   22054340.4774
 -19508114.856 8 -15185068.620 7  21062665.953
 -17456452.864 8 -13584793.176 7  21297151.602
  -8993831.781 7  -6973443.260 7  22823184.117
 -12860968.177 8 -10007870.202 7  22210475.219
 -12835234.69047  -9954289.55145  22439125.8914                   22439123.5084
  -2902586.20546  -1681176.20943  24507196.1804                   24507195.5314
 11  8 18  3 16 30.0000000  0 10G18G30G12G26G29G05G15G25G02G21
  -1898761.84546   -635674.85742  24522801.3134                   24522803.6644
  -9112382.46747  -7056598.23545  22632386.9454                   22632387.6334
  -8276803.732 7  -6434218.595 6  23174387.195
 -15293062.22948 -11819576.12545  22040800.3134                   22040800.4144
 -19568394.305 8 -15232039.609 7  21051194.570
 -17389274.701 8 -13532446.560 7  21309935.344
  -9087121.202 7  -7046136.262 7  22805432.086
 -12804871.486 8  -9964158.518 7  22221150.102
 -12785784.16547  -9915756.70845  22448535.7584                   22448533.7114
  -2961234.56946  -1726876.14143  24496035.4454                   24496035.0704
 11  8 18  3 17  0.0000000  0 10G18G30G12G26G29G05G15G25G02G21
  -1987102.04246   -704511.24943  24505990.7274                   24505992.4884
  -9041351.84847  -7001249.72345  22645903.5164                   22645904.2854
  -8183639.243 7  -6361622.902 6  23192115.695
 -15363784.43647 -11874684.31945  22027341.4384                   22027342.4924
 -19628354.078 8 -15278761.487 7  21039785.234
 -17321797.825 8 -13479867.177 7  21322775.750
  -9180249.393 7  -7118703.623 7  22787710.109
 -12748380.984 8  -9920139.955 7  22231899.828
 -12736224.49747  -9877138.79545  22457966.4384                   22457964.0124
  -3019901.55946  -1772590.63043  24484871.1804                   24484870.7974
 11  8 18  3 17 30.0000000  0 10G18G30G12G26G29G05G15G25G02G21
  -2075269.08345   -773212.63942  24489211.9534                   24489215.3284
  -8970020.13547  -6945666.58045  22659477.3674                   22659478.0864
  -8090363.679 7  -6288940.660 6  23209865.922
 -15434070.02848 -11929452.30045  22013966.9534                   22013967.6524
 -19687990.035 8 -15325231.058 7  21028436.898
 -17254023.236 8 -13427055.807 7  21335672.500
  -9273211.708 7  -7191141.766 7  22770020.375
 -12691497.857 8  -9875815.465 7  22242724.680
 -12686554.02347  -9838434.54145  22467418.3134                   22467416.3634
  -3078586.31746  -1818318.90743  24473704.0944                   24473703.2154
 11  8 18  3 18  0.0000000  0 10G18G30G12G26G29G05G15G25G02G21
  -2163262.73345   -841778.99042  24472468.1414                   24472470.3754
  -8898390.98647  -6889851.68245  22673108.7424                   22673108.8794
  -7996981.033 7  -6216174.985 6  23227635.492
 -15503916.09447 -11983877.78845  22000676.0084                   22000676.6134
 -19747300.629 8 -15371447.086 7  21017150.492
 -17185953.568 8 -13374014.519 7  21348625.711
  -9366005.465 7  -7263448.528 7  22752361.898
 -12634225.363 7  -9831187.563 7  22253623.297
 -12636772.40747  -9799643.69745  22476891.8054                   22476889.4264
  -3137289.60846  -1864061.67943  24462533.5394                   24462533.3244
 11  8 18  3 18 30.0000000  0 10G18G30G12G26G29G05G15G25G02G21
  -2251084.39146   -910211.26342  24455755.2584                   24455758.2624
  -8826470.28947  -6833809.60045  22686793.8674                   22686794.9264
  -7903496.604 7  -6143330.022 6  23245425.000
 -15573321.65447 -12037960.00945  21987468.1644                   21987468.1214
 -19806286.254 8 -15417409.904 7  21005925.758
 -17117593.885 8 -13320747.232 7  21361634.414
  -9458630.516 7  -7335623.862 7  22734736.273
 -12576569.014 8  -9786260.574 7  22264595.055
 -12586882.39047  -9760768.37545  22486385.4774                   22486383.6644
  -3196014.28646  -1909821.08543  24451357.3524                   24451357.7344
 11  8 18  3 19  0.0000000  0 10G18G30G12G26G29G05G15G25G02G21
  -2338728.53845   -978505.27142  24439077.0314                   24439080.5704
  -8754257.13647  -6777539.62945  22700535.9384                   22700536.6884
  -7809909.727 7  -6070405.172 6  23263234.188
 -15642279.32348 -12091693.24745  21974346.7584                   21974346.8094
 -19864940.281 8 -15463114.328 7  20994764.141
 -17048942.688 8 -13267252.798 7  21374698.406
  -9551079.446 7  -7407661.952 7  22717143.258
 -12518527.330 7  -9741033.292 7  22275640.102
 -12536878.94347  -9721804.65945  22495900.5084                   22495899.0784
  -3254756.65946  -1955594.30343  24440179.4384                   24440179.7734
 11  8 18  3 19 30.0000000  0 10G18G30G12G26G29G05G15G25G02G21
  -2426196.77746  -1046662.08442  24422433.2034                   24422434.9184
  -8681757.34847  -6721046.29945  22714332.3524                   22714333.0274
  -7716225.879 7  -5997404.771 6  23281061.305
 -15710788.39347 -12145076.90145  21961309.5784                   21961309.8244
 -19923263.157 8 -15508560.716 7  20983665.789
 -16980005.347 8 -13213535.384 7  21387816.523
  -9643351.800 7  -7479562.448 6  22699584.914
 -12460105.790 7  -9695510.039 7  22286757.070
 -12486764.99647  -9682754.86545  22505436.7034                   22505435.1414
  -3313520.31646  -2001384.08643  24428997.6254                   24428997.9734
 11  8 18  3 20  0.0000000  0 10G18G30G12G26G29G05G15G25G02G21
  -2513487.69946  -1114680.87042  24405821.7344                   24405823.4574
  -8608973.95647  -6664332.00145  22728182.6804                   22728183.1054
  -7622448.155 7  -5924331.276 6  23298907.453
 -15778845.60747 -12198108.46445  21948358.0084                   21948358.7544
 -19981252.596 8 -15553747.273 7  20972630.648
 -16910783.947 8 -13159596.636 7  21400988.828
  -9735444.374 7  -7551322.859 7  22682060.070
 -12401307.038 7  -9649692.858 7  22297946.586
 -12436540.16347  -9643618.66945  22514994.7974                   22514992.6374
  -3372305.24846  -2047190.46043  24417811.6334                   24417811.2664
 11  8 18  3 20 30.0000000  0 10G18G30G12G26G29G05G15G25G02G21
  -2600598.88546  -1182559.57342  24389244.0704                   24389246.7194
  -8535908.86747  -6607398.17745  22742086.3674                   22742086.8524
  -7528577.879 7  -5851185.606 6  23316769.625
 -15846445.93247 -12250784.02045  21935494.6884                   21935495.1334
 -20038904.827 8 -15598671.065 7  20961659.766
 -16841279.682 8 -13105437.471 7  21414215.563
  -9827352.586 7  -7622939.595 6  22664569.797
 -12342132.429 8  -9603582.766 7  22309206.625
 -12386202.30147  -9604394.37845  22524573.6954                   22524571.8714
  -3431110.16446  -2093012.39843  24406621.1804                   24406621.6094
 11  8 18  3 21  0.0000000  0 10G18G30G12G26G29G05G15G25G02G21
  -2687530.54146  -1250298.42142  24372701.6094                   24372703.8134
  -8462566.61547  -6550248.39044  22756042.8284                   22756043.0744
  -7434619.627 7  -5777971.412 6  23334649.789
 -15913587.43347 -12303102.06545  21922717.5394                   21922718.2974
 -20096218.852 8 -15643331.355 7  20950753.453
 -16771495.985 8 -13051060.568 7  21427494.609
  -9919074.609 7  -7694411.244 6  22647116.391
 -12282586.248 7  -9557183.187 7  22320537.773
 -12335752.56147  -9565082.90745  22534174.1024                   22534172.2854
  -3489936.82046  -2138851.32143  24395426.6334                   24395426.8874
 11  8 18  3 21 30.0000000  0 10G18G30G12G26G29G05G15G25G02G21
  -2774279.77146  -1317895.07542  24356194.1174                   24356195.8444
  -8388948.77647  -6492883.83144  22770051.4384                   22770052.5784
  -7340574.753 7  -5704689.693 6  23352545.242
 -15980265.40547 -12355058.87445  21910029.4224                   21910029.7734
 -20153190.554 7 -15687724.878 7  20939912.070
 -16701433.926 8 -12996466.751 7  21440827.078
 -10010606.014 7  -7765734.402 6  22629698.008
 -12222669.658 7  -9510494.934 7  22331939.930
 -12285189.11047  -9525682.83145  22543795.8674                   22543793.5204
  -3548784.26046  -2184706.37343  24384228.1954                   24384228.5514
 11  8 18  3 22  0.0000000  0 10G18G30G12G26G29G05G15G25G02G21
  -2860846.49646  -1385349.57843  24339720.6484                   24339722.1134
  -8315059.79547  -6435308.00444  22784111.9064                   22784112.3364
  -7246447.515 7  -5631343.819 6  23370458.227
 -16046477.47747 -12406652.66445  21897429.5784                   21897430.1604
 -20209819.190 8 -15731851.076 7  20929135.602
 -16631097.274 8 -12941658.969 7  21454211.383
 -10101944.748 7  -7836907.387 7  22612317.289
 -12162386.698 7  -9463521.221 7  22343411.203
 -12234512.76647  -9486194.80145  22553439.2424                   22553437.4614
  -3607654.06946  -2230578.88743  24373025.7664                   24373025.8244
 11  8 18  3 22 30.0000000  0 10G18G30G12G26G29G05G15G25G02G21
  -2947229.44446  -1452660.81143  24323282.4224                   24323284.1174
  -8240902.53847  -6377523.14744  22798223.8444                   22798224.8364
  -7152240.734 7  -5557935.937 6  23388384.555
 -16112220.24447 -12457880.78345  21884919.0704                   21884919.6174
 -20266101.959 8 -15775707.761 7  20918425.719
 -16560488.021 8 -12886638.783 7  21467648.039
 -10193087.353 7  -7907927.545 7  22594973.445
 -12101739.796 7  -9416263.935 7  22354951.844
 -12183722.72447  -9446618.17744  22563103.9924                   22563102.0004
  -3666545.86846  -2276468.52743  24361819.1414                   24361818.8554
 11  8 18  3 23  0.0000000  0 10G18G30G12G26G29G05G15G25G02G21
  -3033428.45646  -1519828.75243  24306877.8984                   24306880.3244
  -8166481.10147  -6319532.43144  22812386.0634                   22812386.5744
  -7057958.279 7  -5484469.112 6  23406326.000
 -16177491.20548 -12508741.24145  21872498.8754                   21872498.8594
 -20322037.606 8 -15819293.984 7  20907781.227
 -16489609.470 8 -12831408.738 7  21481135.703
 -10284031.645 7  -7978793.200 7  22577667.344
 -12040732.783 7  -9368726.010 7  22366561.164
 -12132819.50747  -9406953.36245  22572791.1254                   22572788.8554
  -3725461.55146  -2322376.83543  24350607.4614                   24350607.0824
 11  8 18  3 23 30.0000000  0 10G18G30G12G26G29G05G15G25G02G21
  -3119439.87946  -1586850.55443  24290511.4224                   24290513.0984
  -8091796.18947  -6261336.42344  22826598.2584                   22826598.3794
  -6963600.565 7  -5410943.646 6  23424281.625
 -16242284.41047 -12559229.42845  21860168.6484                   21860168.8404
 -20377621.086 8 -15862605.778 7  20897204.078
 -16418461.707 8 -12775968.919 7  21494674.766
 -10374771.670 7  -8049499.658 7  22560399.539
 -11979365.890 7  -9320907.662 7  22378238.992
 -12081800.29147  -9367198.16545  22582499.5554                   22582497.6764
  -3784398.35246  -2368301.51543  24339392.2344                   24339391.2424
 11  8 18  3 24  0.0000000  0 10G18G30G12G26G29G05G15G25G02G21
  -3205265.67246  -1653727.68943  24274179.5314                   24274180.7464
  -8016854.25047  -6202940.13744  22840858.2504                   22840859.2974
  -6869173.863 6  -5337364.401 6  23442249.711
 -16306599.99747 -12609345.43945  21847930.3364                   21847929.7974
 -20432853.211 8 -15905643.789 7  20886693.703
 -16347050.402 8 -12720323.752 7  21508263.875
 -10465308.082 7  -8120047.438 7  22543171.109
 -11917645.252 7  -9272813.675 7  22389983.648
 -12030667.90447  -9327354.78045  22592229.6254                   22592227.6994
  -3843360.00446  -2414245.58843  24328172.2274                   24328171.5514
 11  8 18  3 24 30.0000000  0 10G18G30G12G26G29G05G15G25G02G21
  -3290903.17946  -1720458.12342  24257883.7344                   24257884.0554
  -7941656.80247  -6144344.74944  22855168.6254                   22855169.5904
  -6774679.533 7  -5263732.522 6  23460232.453
 -16370433.03747 -12659085.45145  21835782.7894                   21835782.4304
 -20487730.238 8 -15948405.089 7  20876251.063
 -16275375.851 8 -12664473.440 7  21521902.984
 -10555635.976 7  -8190432.783 7  22525982.117
 -11855572.095 7  -9224445.009 7  22401796.148
 -11979420.39947  -9287421.69945  22601982.2894                   22601979.7704
  -3902345.53146  -2460208.26043  24316947.2344                   24316947.4844
 11  8 18  3 25  0.0000000  0 10G18G30G12G26G29G05G15G25G02G21
  -3376350.67146  -1787040.54743  24241623.2344                   24241624.4144
  -7866206.64147  -6085552.42544  22869525.9304                   22869527.1604
  -6680119.831 7  -5190049.632 6  23478226.359
 -16433779.66347 -12708446.44745  21823728.7344                   21823729.0164
 -20542249.165 8 -15990887.372 7  20865876.586
 -16203440.461 8 -12608419.890 7  21535591.945
 -10645751.252 7  -8260652.419 7  22508833.977
 -11793148.808 7  -9175803.497 7  22413674.711
 -11928057.12447  -9247398.38945  22611756.0864                   22611753.8164
  -3961354.53346  -2506189.24643  24305718.2894                   24305717.7234
 11  8 18  3 25 30.0000000  0 10G18G30G12G26G29G05G15G25G02G21
  -3461607.52246  -1853474.31143  24225398.7734                   24225400.5124
  -7790507.26347  -6026565.92244  22883931.5704                   22883932.1644
  -6585498.468 7  -5116318.699 6  23496232.289
 -16496637.26647 -12757426.36445  21811767.2194                   21811766.9614
 -20596408.345 8 -16033089.328 7  20855570.406
 -16131246.769 8 -12552165.062 7  21549330.258
 -10735651.418 7  -8330704.435 7  22491726.523
 -11730378.541 7  -9126891.613 7  22425619.844
 -11876577.60547  -9207284.51044  22621552.2504                   22621550.3054
  -4020387.85446  -2552189.14743  24294484.5554                   24294483.4614
 11  8 18  3 26  0.0000000  0 10G18G30G12G26G29G05G15G25G02G21
  -3546673.18946  -1919759.19043  24209212.2814                   24209213.1024
  -7714562.74347  -5967388.39844  22898383.0784                   22898384.3444
  -6490818.882 7  -5042542.404 6  23514249.297
 -16559003.17847 -12806023.14645  21799898.7974                   21799899.9024
 -20650206.128 8 -16075009.664 7  20845333.313
 -16058798.396 8 -12495711.802 7  21563116.742
 -10825334.239 7  -8400587.117 7  22474660.680
 -11667264.993 7  -9077712.226 7  22437629.961
 -11824982.41747  -9167080.49545  22631370.9144                   22631368.4734
  -4079446.33646  -2598208.68743  24283245.8134                   24283245.6094
 11  8 18  3 26 30.0000000  0 10G18G30G12G26G29G05G15G25G02G21
  -3631546.06046  -1985893.76943  24193061.5314                   24193062.0434
  -7638375.79647  -5908021.94044  22912881.4454                   22912881.4964
  -6396083.566 7  -4968722.725 6  23532276.758
 -16620873.95347 -12854234.11945  21788125.5474                   21788126.1804
 -20703639.949 8 -16116646.403 7  20835164.711
 -15986096.797 8 -12439061.221 7  21576951.180
 -10914796.006 7  -8470297.547 7  22457636.414
 -11603810.724 7  -9028267.353 7  22449704.563
 -11773270.89347  -9126785.80345  22641211.2424                   22641208.7934
  -4138529.97546  -2644247.82343  24272001.7814                   24272002.0784
 11  8 18  3 27  0.0000000  0 10G18G30G12G26G29G05G15G25G02G21
  -3716225.48346  -2051877.69743  24176946.9064                   24176947.5234
  -7561949.64147  -5848469.09544  22927424.9844                   22927425.1334
  -6301295.984 7  -4894862.247 6  23550314.148
 -16682246.36447 -12902056.76145  21776446.6804                   21776447.0984
 -20756707.376 8 -16157997.645 7  20825066.398
 -15913144.561 8 -12382215.311 7  21590833.672
 -11004033.746 7  -8539833.417 7  22440655.266
 -11540018.449 7  -8978559.111 7  22461844.367
 -11721442.16247  -9086399.81445  22651073.6484                   22651071.6884
  -4197638.81246  -2690306.62343  24260754.1804                   24260753.8674
 11  8 18  3 27 30.0000000  0 10G18G30G12G26G29G05G15G25G02G21
  -3800709.96146  -2117709.65443  24160869.9384                   24160870.8634
  -7485287.11047  -5788732.09344  22942013.3754                   22942013.4574
  -6206458.582 7  -4820963.002 6  23568361.289
 -16743116.82347 -12949488.25045  21764863.0784                   21764863.7194
 -20809405.408 8 -16199061.037 7  20815038.336
 -15839943.589 8 -12325175.607 7  21604762.961
 -11093044.159 7  -8609192.140 7  22423717.250
 -11475890.805 7  -8928589.514 7  22474047.180
 -11669496.19547  -9045922.46745  22660958.6334                   22660956.6604
  -4256773.38946  -2736385.46343  24249501.3204                   24249501.3444
 11  8 18  3 28  0.0000000  0 10G18G30G12G26G29G05G15G25G02G21
  -3884997.79146  -2183388.42543  24144830.5474                   24144830.8014
  -7408391.07747  -5728813.09444  22956645.6644                   22956647.0664
  -6111573.588 7  -4747026.652 6  23586417.234
 -16803481.73047 -12996525.82045  21753375.9224                   21753377.3754
 -20861731.800 8 -16239834.840 7  20805081.133
 -15766496.007 8 -12267943.716 7  21618739.898
 -11181823.358 7  -8678370.690 7  22406822.641
 -11411430.291 7  -8878360.526 7  22486313.617
 -11617431.65447  -9005352.69445  22670866.1724                   22670864.1374
  -4315933.32246  -2782484.05243  24238243.9224                   24238243.4494
 11  8 18  3 28 30.0000000  0 10G18G30G12G26G29G05G15G25G02G21
  -3969089.94846  -2248914.70243  24128828.0704                   24128828.9024
  -7331266.62447  -5668716.12544  22971321.6724                   22971322.9224
  -6016645.832 7  -4673056.986 6  23604481.109
 -16863339.88147 -13043168.51545  21741985.4454                   21741985.6414
 -20913686.294 8 -16280318.852 7  20795194.328
 -15692806.146 8 -12210523.051 7  21632762.641
 -11270369.993 7  -8747368.033 7  22389973.281
 -11346641.740 7  -8827875.946 7  22498642.656
 -11565250.13947  -8964691.78245  22680796.2894                   22680793.6844
  -4375120.42046  -2828603.83143  24226980.7504                   24226980.1684
 11  8 18  3 29  0.0000000  0 10G18G30G12G26G29G05G15G25G02G21
  -4052983.12147  -2314285.91143  24112864.2974                   24112864.8134
  -7253914.73947  -5608441.94844  22986041.7584                   22986042.6914
  -5921676.306 6  -4599054.773 6  23622553.328
 -16922685.82947 -13089412.07845  21730692.6804                   21730693.0044
 -20965264.185 8 -16320509.408 7  20785379.289
 -15618874.400 8 -12152913.912 7  21646831.227
 -11358678.897 7  -8816180.141 7  22373168.102
 -11281525.863 7  -8777136.326 7  22511033.766
 -11512949.09847  -8923937.73144  22690748.9224                   22690746.5864
  -4434333.31946  -2874743.69443  24215712.6564                   24215713.2464
 11  8 18  3 29 30.0000000  0 10G18G30G12G26G29G05G15G25G02G21
  -4136678.37746  -2379502.90643  24096937.5944                   24096937.7544
  -7176341.04847  -5547994.90444  23000803.2664                   23000803.9964
  -5826670.152 6  -4525024.056 6  23640632.633
 -16981519.10147 -13135256.15845  21719497.1414                   21719498.0354
 -21016465.508 8 -16360406.541 7  20775635.961
 -15544705.048 8 -12095119.610 7  21660945.305
 -11446749.390 7  -8884806.460 7  22356408.719
 -11216087.939 7  -8726145.742 7  22523486.086
 -11460530.35747  -8883091.96044  22700723.7274                   22700721.0664
  -4493574.23047  -2920905.35644  24204439.8524                   24204439.9924
 11  8 18  3 30  0.0000000  0 10G18G30G12G26G29G05G15G25G02G21
  -4220173.02146  -2444563.62343  24081048.3444                   24081048.7274
  -7098546.83247  -5487376.04044  23015607.1484                   23015607.5864
  -5731628.325 6  -4450965.487 6  23658718.117
 -17039834.59547 -13180696.78145  21708399.8984                   21708400.1844
 -21067286.000 8 -16400006.909 7  20765965.508
 -15470298.664 8 -12037140.630 7  21675104.469
 -11534576.317 7  -8953242.999 7  22339695.750
 -11150329.010 7  -8674905.018 7  22535999.516
 -11407991.94047  -8842152.94944  22710721.4534                   22710719.1994
  -4552841.57846  -2967087.66043  24193161.5944                   24193161.9494
 11  8 18  3 30 30.0000000  0 10G18G30G12G26G29G05G15G25G02G21
  -4303466.29546  -2509467.38443  24065198.1564                   24065198.8284
  -7020535.69247  -5426588.12944  23030452.4844                   23030452.9844
  -5636554.064 7  -4376881.667 6  23676809.602
 -17097629.48247 -13225731.74345  21697401.4924                   21697402.4804
 -21117724.383 8 -16439309.531 7  20756366.945
 -15395657.893 8 -11978979.000 7  21689308.008
 -11622156.987 7  -9021487.660 7  22323030.109
 -11084252.395 7  -8623416.742 7  22548573.430
 -11355333.57047  -8801120.48044  22720741.6954                   22720740.0044
  -4612135.76446  -3013290.86643  24181878.3444                   24181878.1914
 11  8 18  3 31  0.0000000  0 10G18G30G12G26G29G05G15G25G02G21
  -4386557.59746  -2574213.75443  24049386.8364                   24049386.8834
  -6942311.11447  -5365633.92644  23045337.4064                   23045339.3634
  -5541450.979 6  -4302775.391 6  23694907.555
 -17154900.96047 -13270358.84445  21686503.1954                   21686504.1604
 -21167778.101 8 -16478312.427 8  20746842.250
 -15320785.426 8 -11920636.832 7  21703555.297
 -11709488.611 7  -9089538.247 7  22306411.047
 -11017861.280 7  -8571683.427 7  22561207.688
 -11302555.12747  -8759994.40945  22730785.5164                   22730782.9064
  -4671457.51846  -3059515.54443  24170589.7974                   24170589.0704
 11  8 18  3 31 30.0000000  0 10G18G30G12G26G29G05G15G25G02G21
  -4469446.28946  -2638802.26743  24033612.7194                   24033613.2734
  -6863876.68047  -5304516.18844  23060263.1804                   23060264.3404
  -5446322.212 6  -4228649.115 6  23713009.766
 -17211646.38947 -13314576.02945  21675705.2114                   21675705.5784
 -21217445.102 8 -16517013.991 8  20737390.750
 -15245684.173 8 -11862116.373 7  21717846.766
 -11796568.226 7  -9157392.464 7  22289840.352
 -10951159.036 7  -8519707.675 7  22573900.352
 -11249656.60447  -8718774.79444  22740851.4534                   22740849.7234
  -4730807.74646  -3105762.44044  24159295.6564                   24159295.4574
 11  8 18  3 32  0.0000000  0 10G18G30G12G26G29G05G15G25G02G21
  -4552130.37446  -2703231.34043  24017878.5394                   24017879.4804
  -6785234.80347  -5243236.82344  23075228.8284                   23075228.6454
  -5351169.742 6  -4154504.302 6  23731116.891
 -17267862.13448 -13358380.49545  21665007.8364                   21665007.9574
 -21266722.915 8 -16555412.278 7  20728013.633
 -15170355.797 8 -11803418.952 7  21732181.250
 -11883392.283 7  -9225047.548 7  22273318.594
 -10884147.851 7  -8467491.173 7  22586651.883
 -11196636.66347  -8677460.55944  22750940.7584                   22750938.6214
  -4790185.79147  -3152031.01343  24147996.3054                   24147995.9384
 11  8 18  3 32 30.0000000  0 10G18G30G12G26G29G05G15G25G02G21
  -4634610.12346  -2767501.17743  24002182.9694                   24002184.3404
  -6706389.85047  -5181799.18844  23090232.1564                   23090232.9494
  -5255997.357 7  -4080344.046 6  23749228.266
 -17323546.16947 -13401770.63345  21654411.5554                   21654411.4064
 -21315610.073 8 -16593506.149 7  20718710.578
 -15094803.579 8 -11744547.109 7  21746558.523
 -11969958.676 7  -9292501.841 7  22256845.148
 -10816831.855 7  -8415037.123 7  22599462.031
 -11143496.16747  -8636052.40045  22761053.1954                   22761051.5274
  -4849593.09646  -3198322.36844  24136692.0864                   24136690.9104
 11  8 18  3 33  0.0000000  0 10G18G30G12G26G29G05G15G25G02G21
  -4716883.79246  -2831610.42543  23986526.7034                   23986528.1294
  -6627344.17447  -5120205.15944  23105274.1644                   23105274.7344
  -5160807.390 7  -4006170.041 6  23767342.531
 -17378694.67748 -13444743.46945  21643916.6804                   21643916.9344
 -21364103.519 8 -16631293.247 7  20709482.836
 -15019028.957 8 -11685501.952 7  21760978.117
 -12056263.061 7  -9359751.998 7  22240422.406
 -10749213.101 7  -8362347.206 7  22612328.992
 -11090233.93347  -8594549.33744  22771188.7344                   22771186.7504
  -4909029.02747  -3244636.02144  24125381.5004                   24125381.0944
 11  8 18  3 33 30.0000000  0 10G18G30G12G26G29G05G15G25G02G21
  -4798950.91346  -2895558.78443  23970910.5004                   23970910.8984
  -6548101.78946  -5058457.86044  23120353.1094                   23120354.5664
  -5065603.559 7  -3931985.224 6  23785458.125
 -17433305.57848 -13487297.39145  21633524.7664                   21633525.2624
 -21412201.931 8 -16668772.519 7  20700329.586
 -14943035.253 8 -11626286.087 7  21775439.367
 -12142303.198 7  -9426796.229 7  22224049.297
 -10681295.349 7  -8309424.265 7  22625253.672
 -11036850.05947  -8552951.50444  22781347.7894                   22781345.8134
  -4968494.12947  -3290972.43743  24114065.8204                   24114064.8244
 11  8 18  3 34  0.0000000  0 10G18G30G12G26G29G05G15G25G02G21
  -4880809.61946  -2959344.72243  23955332.3524                   23955333.2034
  -6468664.99347  -4996559.05344  23135470.1334                   23135470.0984
  -4970387.721 7  -3857791.070 6  23803577.648
 -17487374.83247 -13529429.24845  21623235.5314                   21623236.0124
 -21459901.999 8 -16705941.387 7  20691252.992
 -14866823.592 8 -11566900.393 7  21789941.742
 -12228075.363 7  -9493631.660 7  22207727.430
 -10613080.676 7  -8256269.972 7  22638234.875
 -10983343.29447  -8511257.92444  22791529.0864                   22791527.4024
  -5027987.92447  -3337331.24543  24102744.2734                   24102742.6724
 11  8 18  3 34 30.0000000  0 10G18G30G12G26G29G05G15G25G02G21
  -4962459.58046  -3022968.01643  23939795.5474                   23939796.0704
  -6389037.43547  -4934511.62144  23150621.5234                   23150623.4384
  -4875163.014 7  -3783590.028 6  23821698.594
 -17540900.08047 -13571137.21545  21613049.8834                   21613050.5704
 -21507202.076 8 -16742798.578 8  20682252.000
 -14790396.871 8 -11507347.121 7  21804485.086
 -12313576.839 7  -9560256.161 7  22191456.898
 -10544572.596 7  -8202887.051 7  22651271.461
 -10929713.75447  -8469468.66244  22801734.2584                   22801732.4104
  -5087511.50147  -3383713.17843  24091416.5314                   24091416.3054
 11  8 18  3 35  0.0000000  0 10G18G30G12G26G29G05G15G25G02G21
  -5043900.63246  -3086428.51643  23924297.7664                   23924298.2274
  -6309223.17447  -4872318.69144  23165810.9924                   23165811.8674
  -4779933.363 7  -3709385.114 6  23839819.766
 -17593879.22047 -13612419.65545  21602968.6644                   21602968.8054
 -21554101.100 8 -16779343.255 7  20673327.469
 -14713758.369 8 -11447628.825 7  21819069.180
 -12398805.357 7  -9626667.974 7  22175238.961
 -10475774.902 7  -8149278.460 7  22664362.695
 -10875961.73447  -8427583.97345  22811963.5474                   22811961.7894
  -5147065.60747  -3430118.95144  24080083.9924                   24080083.2034
 11  8 18  3 35 30.0000000  0 10G18G30G12G26G29G05G15G25G02G21
  -5125129.93946  -3149724.06843  23908841.0004                   23908839.8984
  -6229223.61347  -4809981.40444  23181034.1174                   23181035.2304
  -4684699.846 6  -3635177.209 6  23857942.445
 -17646307.75448 -13653273.03545  21592991.6954                   21592991.8284
 -21600594.675 8 -16815572.013 8  20664479.430
 -14636908.517 8 -11387745.844 7  21833693.406
 -12483755.845 7  -9692863.125 7  22159073.063
 -10406688.824 7  -8095445.161 7  22677510.055
 -10822085.12247  -8385602.19145  22822215.7194                   22822213.8284
  -5206648.60847  -3476547.17944  24068746.1334                   24068744.8134
 11  8 18  3 36  0.0000000  0 10G18G30G12G26G29G05G15G25G02G21
  -5206147.60346  -3212854.66143  23893423.3134                   23893422.9844
  -6149043.00247  -4747502.99444  23196292.3284                   23196292.5904
  -4589466.397 7  -3560969.304 6  23876065.008
 -17698183.57847 -13693695.72145  21583119.9224                   21583120.1994
 -21646681.756 8 -16851484.002 8  20655709.789
 -14559850.788 8 -11327700.873 7  21848356.852
 -12568426.287 7  -9758840.066 7  22142960.461
 -10337318.347 7  -8041390.245 7  22690710.406
 -10768084.60247  -8343523.85544  22832491.5084                   22832490.1054
  -5266261.46647  -3522998.75043  24057401.7504                   24057400.7894
 11  8 18  3 36 30.0000000  0 10G18G30G12G26G29G05G15G25G02G21
  -5286952.52047  -3275819.49943  23878046.1334                   23878047.0314
  -6068684.44147  -4684885.95344  23211583.3364                   23211584.9614
  -4494235.453 7  -3486763.386 6  23894185.789
 -17749503.70647 -13733685.41545  21573354.3834                   21573354.3484
 -21692360.033 8 -16887077.444 7  20647017.313
 -14482586.983 8 -11267495.305 7  21863059.563
 -12652813.566 7  -9824596.369 7  22126902.766
 -10267666.387 7  -7987115.978 7  22703965.031
 -10713959.44247  -8301348.39944  22842791.4224                   22842789.5164
  -5325904.91147  -3569474.08844  24046051.4694                   24046051.1454
 11  8 18  3 37  0.0000000  0 10G18G30G12G26G29G05G15G25G02G21
  -5367544.57147  -3338618.46843  23862710.5704                   23862710.5274
  -5988151.71447  -4622133.16844  23226908.0704                   23226909.4614
  -4399010.732 6  -3412562.323 6  23912306.469
 -17800265.99548 -13773240.41745  21563694.5554                   21563694.9454
 -21737628.002 8 -16922351.189 8  20638403.359
 -14405120.781 8 -11207132.069 7  21877800.625
 -12736915.197 7  -9890130.068 7  22110898.203
 -10197736.588 7  -7932625.231 7  22717271.922
 -10659709.80047  -8259075.94644  22853114.2974                   22853112.3984
  -5385579.21146  -3615973.49744  24034695.9064                   24034695.3054
 11  8 18  3 37 30.0000000  0 10G18G30G12G26G29G05G15G25G02G21
  -5447921.84347  -3401250.08143  23847415.0004                   23847414.8634
  -5907447.38547  -4559246.68744  23242266.1174                   23242267.1884
  -4303794.441 7  -3338367.858 6  23930426.773
 -17850467.17248 -13812358.17045  21554141.6564                   21554141.6604
 -21782482.785 8 -16957302.955 8  20629867.414
 -14327453.095 8 -11146611.807 7  21892580.602
 -12820727.383 7  -9955438.245 7  22094949.625
 -10127531.335 7  -7877919.861 7  22730631.914
 -10605334.87047  -8216705.88144  22863461.5944                   22863459.7034
  -5445283.90147  -3662496.57444  24023334.5084                   24023333.6724
 11  8 18  3 38  0.0000000  0 10G18G30G12G26G29G05G15G25G02G21
  -5528083.71747  -3463713.82943  23832160.7034                   23832160.4494
  -5826574.88147  -4496229.19344  23257655.4304                   23257656.0434
  -4208589.510 6  -3264182.245 6  23948542.664
 -17900104.53047 -13851036.60345  21544695.4224                   21544696.3284
 -21826922.458 8 -16991931.259 8  20621410.922
 -14249586.622 7 -11085936.651 7  21907397.672
 -12904247.215 7 -10020518.598 7  22079056.219
 -10057053.800 7  -7823002.323 7  22744043.000
 -10550834.14447  -8174237.77244  22873833.3674                   22873830.9344
  -5505019.48247  -3709043.73844  24011967.9534                   24011967.1804
 11  8 18  3 38 30.0000000  0 10G18G30G12G26G29G05G15G25G02G21
  -5608029.87247  -3526009.50043  23816947.4614                   23816947.0394
  -5745537.59547  -4433083.27244  23273076.5944                   23273077.4694
  -4113398.704 7  -3190007.583 6  23966657.563
 -17949175.42748 -13889273.64245  21535357.6724                   21535357.8524
 -21870945.312 8 -17026234.783 8  20613033.500
 -14171523.662 7 -11025108.405 7  21922252.914
 -12987471.902 7 -10085368.977 7  22063218.922
  -9986307.371 7  -7767875.226 7  22757505.352
 -10496207.53647  -8131671.58244  22884228.5234                   22884226.3164
  -5564786.58447  -3755615.48844  24000594.5164                   24000593.5354
 11  8 18  3 39  0.0000000  0 10G18G30G12G26G29G05G15G25G02G21
  -5687759.70147  -3588136.60043  23801775.6174                   23801775.0084
  -5664339.29647  -4369811.89044  23288528.0004                   23288528.6644
  -4018225.487 7  -3115846.660 6  23984768.203
 -17997677.74548 -13927067.63845  21526128.0554                   21526128.5044
 -21914549.229 8 -17060211.850 8  20604735.984
 -14093267.493 8 -10964129.592 7  21937145.148
 -13070398.881 7 -10149987.356 7  22047438.453
  -9915295.512 7  -7712541.330 7  22771018.344
 -10441455.01947  -8089007.26444  22894646.9924                   22894645.1484
  -5624585.60647  -3802212.12744  23989214.5164                   23989214.4844
 11  8 18  3 39 30.0000000  0 10G18G30G12G26G29G05G15G25G02G21
  -5767271.64547  -3650093.90243  23786644.8914                   23786643.5984
  -5582982.36047  -4306416.88644  23304009.7734                   23304010.3524
  -3923072.168 7  -3041701.194 6  24002875.516
 -18045608.00848 -13964415.85045  21517006.7584                   21517007.5744
 -21957731.581 8 -17093860.437 8  20596518.891
 -14014819.542 8 -10903001.336 7  21952073.188
 -13153024.298 7 -10214370.760 7  22031715.375
  -9844020.482 7  -7657002.367 7  22784581.891
 -10386575.48447  -8046243.97144  22905090.4844                   22905087.9964
  -5684415.75947  -3848832.97844  23977829.8914                   23977829.7664
 11  8 18  3 40  0.0000000  0 10G18G30G12G26G29G05G15G25G02G21
  -5846563.55246  -3711879.74243  23771555.8914                   23771555.1484
  -5501469.01347  -4242899.98044  23319520.8594                   23319522.3324
  -3827940.462 6  -2967572.634 6  24020978.188
 -18092962.35648 -14001315.32145  21507995.9614                   21507996.4144
 -22000489.272 8 -17127178.112 8  20588382.586
 -13936180.799 7 -10841724.399 7  21967037.633
 -13235344.113 7 -10278516.046 7  22016050.148
  -9772484.385 7  -7601259.955 7  22798195.023
 -10331567.63447  -8003380.73144  22915558.0944                   22915555.7584
  -5744276.45347  -3895477.68643  23966438.6954                   23966438.6174
 11  8 18  3 40 30.0000000  0 10G18G30G12G26G29G05G15G25G02G21
  -5925636.13846  -3773494.74143  23756509.0084                   23756508.2504
  -5419803.78847  -4179264.75644  23335062.3134                   23335062.8164
  -3732834.526 6  -2893464.139 6  24039076.867
 -18139739.71148 -14037765.17745  21499094.3984                   21499094.8914
 -22042821.669 8 -17160164.383 8  20580327.016
 -13857355.037 7 -10780301.746 7  21982037.828
 -13317356.565 7 -10342421.813 7  22000443.516
  -9700691.619 7  -7545317.534 7  22811856.320
 -10276432.36047  -7960418.17644  22926049.6334                   22926048.1954
  -5804169.28947  -3942147.37444  23955040.7114                   23955040.7304
 11  8 18  3 41  0.0000000  0 10G18G30G12G26G29G05G15G25G02G21
  -6004488.66046  -3834938.20343  23741503.8444                   23741503.6564
  -5337990.05247  -4115513.80644  23350629.9384                   23350631.3754
  -3637757.055 7  -2819377.792 6  24057169.461
 -18185937.56748 -14073763.48045  21490303.1484                   21490303.7664
 -22084726.605 8 -17192817.581 8  20572352.547
 -13778344.451 7 -10718735.091 7  21997072.586
 -13399058.868 7 -10406085.926 7  21984896.516
  -9628645.309 7  -7489177.567 7  22825566.047
 -10221169.32547  -7917356.06345  22936566.4924                   22936564.5594
  -5864094.46147  -3988842.30543  23943637.5864                   23943637.2384
 11  8 18  3 41 30.0000000  0 10G18G30G12G26G29G05G15G25G02G21
  -6083120.24847  -3896209.51543  23726540.8594                   23726540.1764
  -5256030.90646  -4051649.52844  23366226.1484                   23366227.0514
  -3542711.029 7  -2745315.942 6  24075255.172
 -18231553.08948 -14109308.02145  21481623.0554                   21481623.3714
 -22126202.227 8 -17225136.248 8  20564460.055
 -13699151.588 7 -10657026.385 7  22012142.633
 -13480447.844 8 -10469505.881 7  21969408.305
  -9556348.563 7  -7432842.462 7  22839323.727
 -10165777.96147  -7874193.95544  22947106.6804                   22947105.0204
  -5924051.94347  -4035562.40144  23932228.0634                   23932227.9184
 11  8 18  3 42  0.0000000  0 10G18G30G12G26G29G05G15G25G02G21
  -6161529.51346  -3957307.59043  23711619.1954                   23711619.3674
  -5173929.12446  -3987674.11944  23381849.6804                   23381851.2934
  -3447698.484 7  -2671280.202 6  24093336.633
 -18276583.22747 -14144396.42845  21473054.0474                   21473054.1684
 -22167245.781 8 -17257118.242 8  20556649.930
 -13619777.854 7 -10595176.742 7  22027246.773
 -13561520.066 7 -10532678.994 7  21953980.945
  -9483803.919 7  -7376314.172 7  22853128.539
 -10110257.60647  -7830931.34844  22957671.9844                   22957669.5594
  -5984041.37247  -4082307.37144  23920812.4614                   23920811.2774
 11  8 18  3 42 30.0000000  0 10G18G30G12G26G29G05G15G25G02G21
  -6239716.01346  -4018232.10043  23696740.9454                   23696740.8754
  -5091688.07146  -3923590.21444  23397500.1564                   23397500.8364
  -3352722.542 7  -2597272.971 6  24111408.422
 -18321025.71048 -14179026.91145  21464596.7344                   21464597.1134
 -22207855.504 8 -17288762.185 8  20548921.617
 -13540226.417 7 -10533188.616 7  22042385.047
 -13642272.725 7 -10595603.136 7  21938614.492
  -9411014.675 7  -7319595.304 7  22866980.172
 -10054607.99547  -7787568.02844  22968261.7424                   22968259.5164
  -6044063.23147  -4129077.62144  23909390.8204                   23909389.3134
 11  8 18  3 43  0.0000000  0 10G18G30G12G26G29G05G15G25G02G21
  -6317679.94346  -4078983.15743  23681904.7424                   23681905.2974
  -5009312.01346  -3859401.09843  23413175.5314                   23413176.5704
  -3257787.224 7  -2523297.419 6  24129475.117
 -18364879.16447 -14213198.41445  21456251.9774                   21456251.8244
 -22248030.016 8 -17320066.998 8  20541276.883
 -13460499.841 8 -10471064.041 7  22057556.695
 -13722703.958 8 -10658276.802 7  21923308.398
  -9337985.045 7  -7262689.102 7  22880877.156
  -9998829.53647  -7744104.29444  22978875.7424                   22978873.8954
  -6104118.68047  -4175874.02644  23897962.8054                   23897962.1804
 11  8 18  3 43 30.0000000  0 10G18G30G12G26G29G05G15G25G02G21
  -6395418.83346  -4139558.89143  23667112.1804                   23667112.0984
  -4926802.52947  -3795107.96344  23428876.6724                   23428876.9264
  -3162893.355 7  -2449354.134 6  24147532.531
 -18408139.12048 -14246907.45345  21448019.7114                   21448019.9574
 -22287766.249 8 -17351030.292 8  20533715.305
 -13380598.790 7 -10408803.489 7  22072761.328
 -13802808.775 8 -10720696.100 7  21908065.125
  -9264716.404 7  -7205596.684 7  22894819.656
  -9942920.38447  -7700538.70644  22989515.3444                   22989512.9734
  -6164206.18947  -4222695.42444  23886528.4454                   23886527.1294
 11  8 18  3 44  0.0000000  0 10G18G30G12G26G29G05G15G25G02G21
  -6472932.75146  -4199959.29243  23652360.9844                   23652361.3244
  -4844163.91846  -3730714.26044  23444602.3054                   23444603.4224
  -3068044.986 6  -2375446.344 6  24165581.383
 -18450804.36848 -14280153.08645  21439900.6564                   21439900.9574
 -22327062.961 8 -17381651.104 8  20526237.414
 -13300526.607 7 -10346409.602 7  22087998.781
 -13882585.630 8 -10782859.839 7  21892884.172
  -9191212.861 7  -7148321.228 7  22908807.148
  -9886880.97847  -7656871.65644  23000178.9694                   23000177.3634
  -6224326.87547  -4269542.70144  23875088.0864                   23875087.3324
 11  8 18  3 44 30.0000000  0 10G18G30G12G26G29G05G15G25G02G21
  -6550220.38347  -4260183.36443  23637653.9224                   23637654.1334
  -4761398.48847  -3666221.73544  23460352.0234                   23460352.9264
  -2973244.077 6  -2301575.510 6  24183621.281
 -18492871.80047 -14312932.88745  21431895.2114                   21431896.2034
 -22365917.087 8 -17411927.041 8  20518843.797
 -13220284.921 7 -10283883.633 7  22103268.070
 -13962030.452 8 -10844764.887 7  21877766.086
  -9117476.829 7  -7090864.579 7  22922838.797
  -9830710.21547  -7613102.23244  23010868.2034                   23010866.3834
  -6284480.10347  -4316415.30144  23863640.9144                   23863640.2384
 11  8 18  3 45  0.0000000  0 10G18G30G12G26G29G05G15G25G02G21
  -6627281.56347  -4320230.99943  23622989.5004                   23622989.6254
  -4678510.17047  -3601633.45744  23476125.2664                   23476125.7664
  -2878493.862 7  -2227744.187 6  24201651.898
 -18534339.35247 -14345245.24445  21424004.5474                   21424004.8404
 -22404327.868 7 -17441857.521 8  20511534.391
 -13139876.794 7 -10221227.958 7  22118569.617
 -14041140.924 8 -10906409.379 7  21862711.852
  -9043511.953 7  -7033229.641 7  22936913.813
  -9774408.50947  -7569230.76744  23021581.4454                   23021580.4924
  -6344666.40647  -4363313.69344  23852187.4384                   23852187.0984
 11  8 18  3 45 30.0000000  0 10G18G30G12G26G29G05G15G25G02G21
  -6704115.56047  -4380101.58443  23608368.9304                   23608369.2504
  -4595502.00047  -3536951.78344  23491920.9454                   23491922.0594
  -2783797.193 6  -2153954.580 6  24219671.711
 -18575204.79148 -14377088.41845  21416227.7814                   21416227.5394
 -22442293.218 8 -17471440.900 8  20504309.891
 -13059304.049 7 -10158444.005 7  22133901.766
 -14119914.175 8 -10967791.101 7  21847721.883
  -8969321.379 7  -6975418.791 7  22951032.063
  -9717975.38147  -7525256.90244  23032320.9224                   23032319.2424
  -6404886.06947  -4410238.05844  23840727.7504                   23840727.2584
 11  8 18  3 46  0.0000000  0 10G18G30G12G26G29G05G15G25G02G21
  -6780721.31746  -4439794.35444  23593791.1254                   23593790.6094
  -4512376.95347  -3472179.02244  23507739.4384                   23507740.4574
  -2689156.378 6  -2080208.488 6  24237681.672
 -18615465.24348 -14408460.18345  21408566.6174                   21408567.0234
 -22479810.364 8 -17500675.042 8  20497170.609
 -12978568.663 7 -10095533.349 7  22149264.953
 -14198346.756 7 -11028907.367 7  21832796.586
  -8894907.816 7  -6917434.206 7  22965192.070
  -9661409.77047  -7481179.82544  23043084.8204                   23043082.8714
  -6465139.12147  -4457188.43044  23829262.3594                   23829261.9304
 11  8 18  3 46 30.0000000  0 10G18G30G12G26G29G05G15G25G02G21
  -6857098.33647  -4499308.88244  23579257.1804                   23579257.4924
  -4429138.53647  -3407317.93544  23523579.1724                   23523580.3324
  -2594574.413 6  -2006508.264 6  24255679.992
 -18655119.01948 -14439359.21245  21401020.5474                   21401021.1804
 -22516878.000 8 -17529558.911 8  20490117.016
 -12897673.172 7 -10032497.911 7  22164658.797
 -14276436.403 8 -11089756.406 7  21817936.469
  -8820274.801 7  -6859278.601 7  22979394.133
  -9604711.91447  -7436999.68144  23053874.4454                   23053872.3674
  -6525425.65647  -4504164.93744  23817790.7584                   23817790.0124
 11  8 18  3 47  0.0000000  0 10G18G30G12G26G29G05G15G25G02G21
  -6933245.38947  -4558644.15044  23564766.7114                   23564767.0234
  -4345789.36247  -3342370.51944  23539439.1804                   23539440.1684
  -2500053.714 6  -1932855.738 6  24273667.117
 -18694162.75747 -14469782.89145  21393591.0944                   21393591.1374
 -22553493.494 7 -17558090.458 8  20483149.297
 -12816619.557 7  -9969339.247 7  22180083.086
 -14354179.248 8 -11150335.218 7  21803142.563
  -8745424.854 7  -6800953.960 7  22993637.797
  -9547880.92947  -7392715.76844  23064688.9304                   23064686.9414
  -6585745.09547  -4551167.04144  23806311.8754                   23806311.4224
 11  8 18  3 47 30.0000000  0 10G18G30G12G26G29G05G15G25G02G21
  -7009162.34847  -4617800.17844  23550319.8594                   23550319.6804
  -4262332.98747  -3277339.59044  23555321.2584                   23555322.2464
  -2405597.344 7  -1859253.367 6  24291641.297
 -18732594.93047 -14499730.02045  21386277.5784                   21386277.9454
 -22589655.341 8 -17586268.521 8  20476267.563
 -12735410.012 7  -9906059.101 7  22195537.031
 -14431572.996 7 -11210642.006 7  21788415.141
  -8670361.521 7  -6742463.038 6  23007921.859
  -9490916.76947  -7348328.10644  23075528.7734                   23075526.2234
  -6646097.94347  -4598195.20344  23794827.5164                   23794826.5864
 11  8 18  3 48  0.0000000  0 10G18G30G12G26G29G05G15G25G02G21
  -7084848.63946  -4676776.46143  23535917.5394                   23535917.2584
  -4178772.71046  -3212227.67344  23571221.9384                   23571222.7194
  -2311208.070 6  -1785703.295 6  24309602.555
 -18770413.32348 -14529198.87845  21379080.9844                   21379081.3164
 -22625361.699 8 -17614091.648 8  20469473.156
 -12654046.595 7  -9842659.050 7  22211019.273
 -14508614.892 7 -11270674.615 7  21773754.172
  -8595088.069 7  -6683808.415 6  23022245.438
  -9433818.98447  -7303836.32444  23086393.6094                   23086391.7624
  -6706484.70447  -4645249.77744  23783335.2974                   23783335.1844
 11  8 18  3 48 30.0000000  0 10G18G30G12G26G29G05G15G25G02G21
  -7160302.76847  -4735571.84343  23521558.2504                   23521558.5044
  -4095111.22947  -3147036.92244  23587141.7274                   23587142.6454
  -2216887.948 7  -1712207.058 6  24327551.273
 -18807615.00148 -14558187.18345  21372001.9774                   21372002.2274
 -22660610.438 8 -17641558.193 8  20462765.391
 -12572531.593 7  -9779140.872 7  22226531.250
 -14585301.523 8 -11330430.413 7  21759161.219
  -8519607.064 7  -6624992.028 6  23036608.875
  -9376586.81347  -7259239.81544  23097284.8984                   23097282.6174
  -6766905.05247  -4692330.50844  23771838.2504                   23771837.2544
 11  8 18  3 49  0.0000000  0 10G18G30G12G26G29G05G15G25G02G21
  -7235524.71046  -4794186.28243  23507244.7734                   23507244.7624
  -4011352.12046  -3081770.07243  23603080.1724                   23603081.5354
  -2122640.137 7  -1638767.190 6  24345486.734
 -18844198.46847 -14586693.76145  21365040.2344                   21365040.7274
 -22695399.606 8 -17668666.633 8  20456145.180
 -12490867.321 7  -9715506.385 7  22242071.742
 -14661630.097 8 -11389907.186 7  21744636.383
  -8443922.056 7  -6566016.715 6  23051011.781
  -9319220.43947  -7214538.73844  23108201.8984                   23108199.4024
  -6827358.93647  -4739437.40144  23760334.2584                   23760332.9574
 11  8 18  3 49 30.0000000  0 10G18G30G12G26G29G05G15G25G02G21
  -7310513.59446  -4852619.10343  23492974.2814                   23492974.7074
  -3927498.46246  -3016429.59043  23619037.9694                   23619038.7704
  -2028467.440 6  -1565385.844 6  24363406.453
 -18880161.17648 -14614716.62945  21358196.5314                   21358196.7034
 -22729727.820 8 -17695415.889 8  20449612.602
 -12409056.010 7  -9651757.316 7  22257639.891
 -14737597.707 8 -11449102.711 7  21730180.391
  -8368036.033 7  -6506884.756 6  23065452.227
  -9261719.12246  -7169732.50944  23119143.7504                   23119141.6254
  -6887846.48847  -4786570.55144  23748824.0084                   23748822.6994
 11  8 18  3 50  0.0000000  0 10G18G30G12G26G29G05G15G25G02G21
  -7385268.79747  -4910869.90743  23478748.8444                   23478749.0044
  -3843553.47446  -2951017.91544  23635012.0864                   23635013.1764
  -1934372.645 6  -1492065.234 6  24381312.383
 -18915501.21947 -14642254.31445  21351471.7974                   21351471.8484
 -22763593.052 8 -17721804.373 8  20443168.703
 -12327099.722 7  -9587895.289 7  22273235.563
 -14813201.544 8 -11508014.763 7  21715793.719
  -8291952.209 7  -6447598.692 6  23079930.680
  -9204082.69247  -7124820.99744  23130110.8524                   23130109.4184
  -6948367.98147  -4833730.09944  23737306.8674                   23737306.1374
 11  8 18  3 50 30.0000000  0 10G18G30G12G26G29G05G15G25G02G21
  -7459789.20947  -4968937.68343  23464568.1564                   23464568.3244
  -3759519.76846  -2885537.11344  23651003.0394                   23651004.8444
  -1840357.605 7  -1418806.758 6  24399202.891
 -18950215.91447 -14669304.71045  21344865.9304                   21344866.0084
 -22796992.643 7 -17747830.030 8  20436812.719
 -12245000.303 7  -9523921.714 7  22288858.430
 -14888438.293 8 -11566640.782 7  21701475.844
  -8215673.269 7  -6388160.548 6  23094445.742
  -9146310.04347  -7079803.34444  23141105.2194                   23141103.1884
  -7008923.07547  -4880915.88744  23725784.0004                   23725782.1524
 11  8 18  3 51  0.0000000  0 10G18G30G12G26G29G05G15G25G02G21
  -7534074.18047  -5026822.06243  23450432.4924                   23450431.6844
  -3675400.53646  -2819989.68144  23667010.4144                   23667011.2854
  -1746425.145 6  -1345612.616 6  24417077.383
 -18984303.13348 -14695866.15545  21338379.0394                   21338379.0594
 -22829924.470 8 -17773491.196 8  20430546.172
 -12162759.629 8  -9459838.103 7  22304508.570
 -14963305.136 8 -11624978.563 7  21687229.859
  -8139202.235 7  -6328572.768 6  23108998.180
  -9088400.74247  -7034679.22944  23152124.8284                   23152122.5824
  -7069511.55547  -4928127.63944  23714253.2584                   23714253.1804
 11  8 18  3 51 30.0000000  0 10G18G30G12G26G29G05G15G25G02G21
  -7608124.71747  -5084523.74643  23436341.3674                   23436340.7384
  -3591200.40746  -2754379.24143  23683033.7734                   23683034.0004
  -1652579.351 6  -1272486.020 6  24434935.727
 -19017762.15548 -14721938.09945  21332011.9534                   21332012.3634
 -22862389.268 8 -17798788.423 8  20424367.797
 -12080381.366 8  -9395647.255 7  22320185.109
 -15037801.141 8 -11683027.371 7  21673053.367
  -8062543.849 7  -6268838.978 6  23123585.766
  -9030356.09346  -6989449.63244  23163169.9304                   23163167.8874
  -7130134.63947  -4975366.40144  23702717.5394                   23702717.4184
 11  8 18  3 52  0.0000000  0 10G18G30G12G26G29G05G15G25G02G21
  -7681938.66847  -5142041.08943  23422295.0554                   23422294.2504
  -3506921.02846  -2688706.99443  23699071.1564                   23699072.3324
  -1558821.573 6  -1199428.026 6  24452776.844
 -19050589.54647 -14747517.87345  21325765.1484                   21325765.3634
 -22894383.341 8 -17823718.868 8  20418279.750
 -11997866.137 7  -9331349.689 7  22335886.383
 -15111921.258 8 -11740783.288 7  21658949.352
  -7985699.656 7  -6208960.391 7  23138208.539
  -8972174.35547  -6944113.22544  23174241.9534                   23174239.5234
  -7190791.55247  -5022631.51344  23691175.2194                   23691174.1884
 11  8 18  3 52 30.0000000  0 10G18G30G12G26G29G05G15G25G02G21
  -7755515.65847  -5199373.77443  23408293.6564                   23408293.2154
  -3422565.83546  -2622975.70743  23715123.3284                   23715124.6884
  -1465154.502 6  -1126440.686 6  24470601.539
 -19082783.54148 -14772604.09445  21319638.8834                   21319638.6804
 -22925904.919 8 -17848281.133 8  20412281.492
 -11915216.625 7  -9266947.470 7  22351614.063
 -15185662.752 8 -11798244.169 7  21644916.695
  -7908673.068 7  -6148939.692 7  23152866.625
  -8913855.22246  -6898669.73844  23185339.2814                   23185337.8054
  -7251482.03447  -5069922.75444  23679625.8284                   23679625.7504
 11  8 18  3 53  0.0000000  0 10G18G30G12G26G29G05G15G25G02G21
  -7828855.38047  -5256521.58943  23394337.1334                   23394336.9494
  -3338138.18446  -2557187.92543  23731190.1484                   23731190.6174
  -1371581.129 6  -1053526.374 6  24488407.539
 -19114342.47548 -14797195.45445  21313633.5554                   21313633.1134
 -22956952.481 8 -17872474.033 8  20406373.305
 -11832434.864 8  -9202442.214 7  22367366.977
 -15259023.441 8 -11855408.326 7  21630956.453
  -7831467.467 7  -6088779.518 7  23167557.805
  -8855398.50947  -6853119.06144  23196463.7584                   23196461.8244
  -7312206.63647  -5117240.60644  23668070.2034                   23668069.9494
 11  8 18  3 53 30.0000000  0 10G18G30G12G26G29G05G15G25G02G21
  -7901956.84747  -5313483.73443  23380426.1724                   23380425.8164
  -3253640.92546  -2491345.90243  23747268.5394                   23747269.7424
  -1278103.587 6   -980686.746 6  24506196.242
 -19145264.18248 -14821290.28845  21307749.3834                   21307749.4304
 -22987524.128 8 -17896296.090 8  20400555.820
 -11749523.142 8  -9137835.660 7  22383144.852
 -15332000.406 8 -11912273.478 7  21617069.313
  -7754085.723 7  -6028482.098 7  23182283.250
  -8796803.91447  -6807460.92944  23207613.7504                   23207611.8524
  -7372965.04747  -5164584.79044  23656508.7734                   23656507.7774
 11  8 18  3 54  0.0000000  0 10G18G30G12G26G29G05G15G25G02G21
  -7974820.31947  -5370260.46344  23366561.3914                   23366560.5354
  -3169077.94246  -2425452.67243  23763360.0474                   23763361.2854
  -1184725.401 6   -907924.474 6  24523965.047
 -19175547.19048 -14844887.42545  21301986.7194                   21301986.9614
 -23017618.619 8 -17919746.336 8  20394828.883
 -11666483.793 7  -9073129.663 7  22398946.508
 -15404591.413 8 -11968837.870 7  21603255.398
  -7676531.693 7  -5968050.397 7  23197041.305
  -8738071.49246  -6761695.43044  23218790.2974                   23218788.5434
  -7433757.89747  -5211955.81944  23644940.8134                   23644939.1414
 11  8 18  3 54 30.0000000  0 10G18G30G12G26G29G05G15G25G02G21
  -8047443.58547  -5426849.99644  23352741.3834                   23352741.0084
  -3084450.99646  -2359509.61544  23779465.1724                   23779465.6454
  -1091448.038 6   -835240.895 6  24541715.773
 -19205188.47648 -14867984.51545  21296346.1024                   21296345.9734
 -23047233.028 8 -17942822.493 8  20389193.680
 -11583317.782 7  -9008324.976 7  22414773.016
 -15476792.319 8 -12025098.311 7  21589515.961
  -7598807.149 7  -5907485.830 7  23211832.711
  -8679199.49246  -6715821.19344  23229992.8914                   23229991.4104
  -7494583.94847  -5259352.72744  23633364.7894                   23633364.2894
 11  8 18  3 55  0.0000000  0 10G18G30G12G26G29G05G15G25G02G21
  -8119827.49047  -5483253.01144  23338967.6724                   23338966.5744
  -2999764.18846  -2293519.90543  23795579.7814                   23795581.2464
   -998274.893 6   -762638.474 6  24559445.586
 -19234187.04448 -14890580.79845  21290827.6644                   21290827.8324
 -23076366.679 8 -17965524.039 8  20383649.539
 -11500028.120 7  -8943423.931 7  22430622.398
 -15548601.388 8 -12081053.402 7  21575851.180
  -7520916.245 7  -5846791.622 7  23226654.484
  -8620188.71646  -6669838.79444  23241222.6564                   23241220.5634
  -7555444.02847  -5306776.11744  23621783.8834                   23621783.1294
 11  8 18  3 55 30.0000000  0 10G18G30G12G26G29G05G15G25G02G21
  -8191971.41547  -5539469.00944  23325238.6174                   23325239.3754
  -2915020.53547  -2227485.88643  23811706.0864                   23811706.5204
   -905208.419 6   -690119.148 6  24577156.148
 -19262540.88948 -14912674.68645  21285431.9924                   21285432.3754
 -23105017.455 8 -17987849.316 8  20378197.547
 -11416616.728 7  -8878428.045 7  22446495.375
 -15620015.501 8 -12136700.748 7  21562261.547
  -7442861.911 7  -5785970.074 7  23241507.508
  -8561038.32346  -6623747.60744  23252478.0164                   23252476.8954
  -7616337.15047  -5354225.26444  23610195.9694                   23610195.3914
 11  8 18  3 56  0.0000000  0 10G18G30G12G26G29G05G15G25G02G21
  -8263874.46247  -5595497.30844  23311555.6724                   23311555.9304
  -2830222.87747  -2161409.76644  23827843.1484                   23827843.1414
   -812250.940 6   -617684.794 6  24594844.789
 -19290248.14247 -14934264.73545  21280159.6484                   21280159.7854
 -23133183.867 8 -18009797.159 8  20372837.648
 -11333085.490 7  -8813338.777 7  22462390.336
 -15691031.742 8 -12192038.056 7  21548747.656
  -7364647.234 7  -5725023.607 6  23256391.203
  -8501748.04246  -6577547.43744  23263760.8914                   23263759.1054
  -7677264.64247  -5401701.19044  23598602.3914                   23598602.0664
 11  8 18  3 56 30.0000000  0 10G18G30G12G26G29G05G15G25G02G21
  -8335535.97647  -5651337.41544  23297919.5474                   23297918.3594
  -2745374.42147  -2095294.07144  23843988.5944                   23843989.6844
   -719405.244 6   -545337.558 6  24612512.672
 -19317307.17948 -14955349.67545  21275010.4384                   21275010.5634
 -23160864.168 8 -18031366.211 8  20367570.148
 -11249436.602 7  -8748157.805 7  22478308.141
 -15761647.614 8 -12247063.398 7  21535309.930
  -7286275.214 7  -5663954.541 6  23271305.023
  -8442317.58946  -6531238.03244  23275070.0084                   23275068.3554
  -7738225.86347  -5449203.40644  23587001.7274                   23587001.0984
 11  8 18  3 57  0.0000000  0 10G18G30G12G26G29G05G15G25G02G21
  -8406955.68747  -5706989.11044  23284328.3134                   23284327.5554
  -2660478.49147  -2029141.40043  23860143.6564                   23860144.5434
   -626673.960 6   -473079.427 6  24630158.578
 -19343716.24548 -14975928.16045  21269985.2114                   21269985.1054
 -23188056.978 8 -18052555.399 8  20362395.609
 -11165672.460 7  -8682887.019 7  22494247.500
 -15831860.527 8 -12301774.739 7  21521948.805
  -7207749.409 7  -5602765.582 6  23286247.984
  -8382746.71046  -6484819.19344  23286405.8594                   23286404.2584
  -7799220.95447  -5496731.99544  23575394.5634                   23575394.4104
 11  8 18  3 57 30.0000000  0 10G18G30G12G26G29G05G15G25G02G21
  -8478133.23346  -5762452.10644  23270783.9064                   23270783.4064
  -2575537.89547  -1962953.92344  23876307.5944                   23876308.5784
   -534059.609 6   -400912.408 6  24647783.109
 -19369473.56048 -14995998.76945  21265083.2814                   21265083.3914
 -23214760.371 8 -18073363.230 8  20357313.977
 -11081794.677 7  -8617527.693 7  22510209.344
 -15901667.543 7 -12356169.801 7  21508664.930
  -7129072.570 7  -5541458.987 6  23301219.406
  -8323034.99946  -6438290.63144  23297768.5784                   23297767.6644
  -7860249.57247  -5544286.72244  23563781.7114                   23563781.0864
 11  8 18  3 58  0.0000000  0 10G18G30G12G26G29G05G15G25G02G21
  -8549067.84947  -5817725.79044  23257285.3674                   23257284.8714
  -2490555.71846  -1896734.02443  23892479.5554                   23892480.4844
   -441564.643 6   -328838.415 6  24665383.359
 -19394577.29948 -15015560.11645  21260306.3054                   21260306.4614
 -23240972.526 8 -18093788.271 8  20352326.078
 -10997805.180 7  -8552081.294 7  22526192.156
 -15971065.603 8 -12410246.199 7  21495458.961
  -7050247.779 7  -5480037.117 7  23316219.406
  -8263181.79747  -6391651.83044  23309159.0164                   23309156.9924
  -7921311.43347  -5591867.32744  23552162.2274                   23552160.5594
